Date StartTime U_cm/s V_cm/s W_cm/s Ustd_cm/s Vstd_cm/s Wstd_cm/s Uvar_(cm/s)^2 Vvar_(cm/s)^2 Wvar_(cm/s)^2 KE_(m/s)^2 TurbulentKE_(m/s)^2 HorizWindSpeed_cm/s FrictionSpeec_cm/s DragCoef SpeedOfSound_m/s SonicTemperature_C Pressure_mb 
08/29/2014  00:00:00      -89.818       28.917      -22.830       26.500       35.679       19.453      702.228     1272.976      378.414        0.589        0.118       94.358       13.184        0.020      346.321       24.483      863.126
08/29/2014  00:01:00     -103.221       15.914       -7.701       46.755       34.020       16.991     2186.049     1157.357      288.682        0.730        0.182      104.441       15.731        0.023      346.140       24.172      863.149
08/29/2014  00:02:00     -205.308       19.369      -21.661       61.578       47.978       27.931     3791.797     2301.922      780.117        2.493        0.344      206.220       20.742        0.010      346.042       24.001      863.185
08/29/2014  00:03:00     -148.082        3.361       -9.896       64.248       42.926       26.694     4127.801     1842.638      712.554        1.436        0.334      148.120       31.031        0.044      345.880       23.728      863.223
08/29/2014  00:04:00      -65.536       10.175       -3.251       33.883       22.080       14.630     1148.055      487.505      214.036        0.313        0.092       66.321       11.927        0.032      345.946       23.841      863.212
08/29/2014  00:05:00      -97.521        4.111      -12.952       24.116       34.669       17.552      581.571     1201.952      308.064        0.589        0.105       97.607       17.841        0.033      346.014       23.957      863.211
08/29/2014  00:06:00      -98.393       17.541      -16.446       26.926       34.893       14.084      725.003     1217.528      198.371        0.620        0.107       99.944        9.844        0.010      346.001       23.933      863.215
08/29/2014  00:07:00     -125.488      -55.758      -13.901       40.152       28.905       23.708     1612.161      835.522      562.075        1.103        0.150      137.318       17.228        0.016      345.897       23.756      863.210
08/29/2014  00:08:00     -101.324      -16.136       -4.796       35.986       51.432       24.703     1295.026     2645.227      610.244        0.755        0.228      102.601       16.652        0.026      345.750       23.503      863.220
08/29/2014  00:09:00     -129.671      -25.506       -6.225       39.044       50.617       20.859     1524.437     2562.039      435.119        1.101        0.226      132.156       11.770        0.008      345.784       23.561      863.240
08/29/2014  00:10:00     -146.036      132.821      -30.811       47.337      106.431       30.186     2240.839    11327.619      911.188        2.720        0.724      197.403       39.395        0.040      345.922       23.796      863.250
08/29/2014  00:11:00     -232.761      193.289      -51.582       68.626       99.706       39.633     4709.496     9941.253     1570.755        5.521        0.811      302.552       47.059        0.024      346.145       24.177      863.227
08/29/2014  00:12:00     -142.921      140.549      -26.883       69.229       75.782       48.010     4792.595     5742.953     2304.975        2.687        0.642      200.450       44.699        0.050      346.053       24.020      863.220
08/29/2014  00:13:00     -116.763      193.977      -25.557       95.709      112.519       40.868     9160.282    12660.614     1670.173        3.770        1.175      226.408       62.444        0.076      345.938       23.824      863.202
08/29/2014  00:14:00     -167.818      197.701      -44.809       70.286       69.240       37.542     4940.149     4794.125     1409.428        4.020        0.557      259.323       37.040        0.020      345.916       23.786      863.211
08/29/2014  00:15:00     -134.502      184.466      -30.966       57.196       66.732       39.207     3271.356     4453.107     1537.222        3.117        0.463      228.294       34.062        0.022      345.862       23.691      863.209
08/29/2014  00:16:00     -123.058      151.026      -23.210       56.467       67.584       31.845     3188.472     4567.604     1014.098        2.363        0.439      194.813       35.589        0.033      345.866       23.700      863.201
08/29/2014  00:17:00      -89.435      137.901      -22.198       28.152       44.001       20.176      792.538     1936.070      407.056        1.532        0.157      164.364        8.466        0.003      345.845       23.666      863.186
08/29/2014  00:18:00      -60.599       90.022      -12.092       39.163       41.381       23.844     1533.749     1712.378      568.535        0.787        0.191      108.518       27.536        0.064      345.767       23.532      863.182
08/29/2014  00:19:00      -82.455       70.838      -14.634       35.663       39.964       25.602     1271.872     1597.128      655.451        0.778        0.176      108.705       25.665        0.056      345.860       23.694      863.175
08/29/2014  00:20:00      -72.670       99.474      -10.478       35.622       48.157       27.273     1268.921     2319.106      743.809        0.981        0.217      123.191       19.961        0.026      345.816       23.616      863.160
08/29/2014  00:21:00     -108.055      133.895      -28.995       31.529       32.359       24.583      994.087     1047.106      604.331        1.654        0.132      172.057       17.844        0.011      345.834       23.649      863.150
08/29/2014  00:22:00     -107.908      102.748      -20.254       44.088       53.527       21.976     1943.754     2865.131      482.923        1.395        0.265      149.001       18.488        0.015      345.914       23.785      863.146
08/29/2014  00:23:00     -124.380      124.938      -28.808       50.319       65.367       33.488     2531.971     4272.881     1121.446        1.992        0.396      176.295       35.687        0.041      346.016       23.959      863.154
08/29/2014  00:24:00     -123.575       97.080      -25.997       49.546       41.250       29.540     2454.816     1701.592      872.638        1.520        0.251      157.147       27.481        0.031      345.954       23.856      863.142
08/29/2014  00:25:00      -91.965      103.166      -20.807       45.391       48.715       37.435     2060.361     2373.143     1401.415        1.268        0.292      138.205       32.349        0.055      345.880       23.728      863.131
08/29/2014  00:26:00      -40.344       48.574       11.357       43.583       44.770       29.240     1899.498     2004.368      854.974        0.444        0.238       63.143       32.989        0.273      345.765       23.529      863.121
08/29/2014  00:27:00      -96.737       65.162      -18.722       40.199       40.708       29.119     1615.958     1657.125      847.900        0.904        0.206      116.637       21.804        0.035      345.830       23.642      863.115
08/29/2014  00:28:00      -86.338       13.247      -12.545       27.935       26.404       16.520      780.363      697.153      272.924        0.477        0.088       87.349       18.270        0.044      345.815       23.614      863.107
08/29/2014  00:29:00     -135.042       14.238      -17.372       50.171       42.368       27.018     2517.163     1795.020      729.981        1.189        0.252      135.790       28.025        0.043      345.813       23.611      863.112
08/29/2014  00:30:00      -78.245       44.859       -5.769       62.323       47.220       32.286     3884.213     2229.723     1042.416        0.766        0.358       90.192       22.053        0.060      345.766       23.530      863.106
08/29/2014  00:31:00      -99.601      159.387      -23.355       53.696       81.064       40.413     2883.251     6571.449     1633.205        2.348        0.554      187.949       48.881        0.068      345.816       23.614      863.099
08/29/2014  00:32:00      -87.264       74.053       -9.762       33.673       48.390       17.703     1133.904     2341.640      313.399        0.849        0.189      114.450       15.355        0.018      345.731       23.472      863.103
08/29/2014  00:33:00     -120.615       87.864      -25.989       40.261       42.498       26.647     1620.973     1806.053      710.046        1.354        0.207      149.224       20.456        0.019      345.753       23.510      863.110
08/29/2014  00:34:00     -127.877       53.331      -17.411       35.457       38.939       21.991     1257.164     1516.225      483.624        1.138        0.163      138.552        9.041        0.004      345.667       23.360      863.105
08/29/2014  00:35:00      -88.307       37.155        0.484       30.825       43.159       24.409      950.205     1862.742      595.796        0.629        0.170       95.805       10.681        0.012      345.655       23.342      863.101
08/29/2014  00:36:00     -119.539       63.893      -20.060       36.754       46.215       28.500     1350.867     2135.800      812.276        1.154        0.215      135.543       22.365        0.027      345.704       23.424      863.106
08/29/2014  00:37:00     -135.324      107.282      -22.594       47.389       48.510       30.426     2245.671     2353.256      925.716        1.793        0.276      172.690       21.227        0.015      345.733       23.474      863.102
08/29/2014  00:38:00     -153.434      108.578      -33.571       39.963       66.248       30.635     1597.063     4388.784      938.484        2.169        0.346      187.966       31.339        0.028      345.706       23.427      863.110
08/29/2014  00:39:00     -151.243      119.052      -36.674       34.877       40.172       24.344     1216.386     1613.814      592.621        2.091        0.171      192.478       15.889        0.007      345.684       23.390      863.112
08/29/2014  00:40:00     -122.749       29.046      -15.303       27.031       33.329       22.279      730.683     1110.793      496.343        0.924        0.117      126.139       10.525        0.007      345.614       23.269      863.109
08/29/2014  00:41:00     -153.954       -3.239      -15.329       23.786       30.760       25.289      565.793      946.191      639.543        1.305        0.108      153.988       15.744        0.010      345.657       23.344      863.126
08/29/2014  00:42:00      -77.967       -6.109      -10.874       33.886       63.735       29.839     1148.259     4062.183      890.342        0.617        0.305       78.206       20.135        0.066      345.620       23.280      863.119
08/29/2014  00:43:00      -78.010      -17.176      -11.626       17.521       28.004       15.578      306.997      784.232      242.671        0.392        0.067       79.879        5.188        0.004      345.671       23.367      863.114
08/29/2014  00:44:00      -32.665       17.910        2.225       30.399       31.949       19.419      924.097     1020.717      377.106        0.186        0.116       37.253       13.818        0.138      345.605       23.253      863.105
08/29/2014  00:45:00      -63.594      106.323      -23.706       41.285       38.652       22.368     1704.465     1493.941      500.313        0.980        0.185      123.890       17.962        0.021      345.628       23.295      863.121
08/29/2014  00:46:00      -88.914      185.470      -22.115       69.753       90.492       29.123     4865.497     8188.824      848.129        2.835        0.695      205.682       31.218        0.023      345.584       23.217      863.116
08/29/2014  00:47:00     -143.925      202.426      -32.897       65.934       58.222       35.845     4347.336     3389.853     1284.894        3.590        0.451      248.376       35.800        0.021      345.732       23.469      863.127
08/29/2014  00:48:00     -115.392      168.171      -27.501       75.371       68.962       34.436     5680.715     4755.780     1185.824        2.699        0.581      203.952       33.631        0.027      345.812       23.608      863.123
08/29/2014  00:49:00     -137.378      209.716      -32.417       56.684       59.872       36.296     3213.120     3584.666     1317.384        3.601        0.406      250.706       27.697        0.012      345.733       23.471      863.130
08/29/2014  00:50:00      -97.223      188.448      -21.463       70.912       85.613       41.358     5028.458     7329.603     1710.452        2.974        0.703      212.049       40.708        0.037      345.836       23.648      863.136
08/29/2014  00:51:00      -95.163      195.484      -23.478       46.274       98.538       36.507     2141.315     9709.740     1332.736        3.050        0.659      217.416       39.614        0.033      345.878       23.720      863.129
08/29/2014  00:52:00     -124.702       82.390      -15.107       49.662       54.602       30.789     2466.346     2981.352      947.987        1.448        0.320      149.461       25.355        0.029      345.932       23.817      863.132
08/29/2014  00:53:00     -136.695      105.085      -23.033       60.139       64.135       34.606     3616.718     4113.353     1197.570        1.959        0.446      172.420       36.198        0.044      345.812       23.609      863.132
08/29/2014  00:54:00     -183.182      165.181      -48.193       47.673       58.878       25.827     2272.746     3466.635      667.015        3.478        0.320      246.658       24.907        0.010      345.998       23.925      863.120
08/29/2014  00:55:00     -140.912      130.078      -30.937       41.659       56.503       26.451     1735.488     3192.594      699.681        2.168        0.281      191.772       29.352        0.023      345.852       23.677      863.104
08/29/2014  00:56:00     -119.990       47.869      -18.938       42.775       40.132       32.136     1829.662     1610.543     1032.702        1.076        0.224      129.186       26.361        0.042      345.880       23.727      863.098
08/29/2014  00:57:00     -119.740       82.888      -17.854       47.298       51.198       30.884     2237.120     2621.219      953.845        1.367        0.291      145.630       26.416        0.033      346.008       23.947      863.075
08/29/2014  00:58:00     -101.624       54.550      -21.297       46.615       45.507       31.062     2172.966     2070.879      964.824        0.948        0.260      115.339       28.597        0.061      345.967       23.877      863.058
08/29/2014  00:59:00      -96.555       -3.571       -7.668       35.380       35.484       19.421     1251.751     1259.115      377.192        0.614        0.144       96.621       16.322        0.029      345.698       23.413      863.056
08/29/2014  01:00:00     -131.821      -12.249      -19.416       23.318       28.974       15.900      543.739      839.506      252.798        0.977        0.082      132.389        7.897        0.004      345.583       23.215      863.066
08/29/2014  01:01:00     -143.058       -5.681      -19.836       27.331       34.727       17.116      746.958     1205.981      292.971        1.157        0.112      143.171        9.694        0.005      345.569       23.192      863.061
08/29/2014  01:02:00     -121.663      -12.746      -15.652       34.139       28.673       19.451     1165.485      822.125      378.334        0.879        0.118      122.328       17.298        0.020      345.477       23.035      863.049
08/29/2014  01:03:00     -119.341       72.781      -19.400       30.142       38.871       21.435      908.537     1510.949      459.445        1.140        0.144      139.783       19.020        0.019      345.757       23.516      863.029
08/29/2014  01:04:00      -74.192       44.386       -8.960       31.841       29.772       22.780     1013.843      886.351      518.944        0.499        0.121       86.456       17.232        0.040      345.776       23.548      863.018
08/29/2014  01:05:00     -169.092      -65.829       -4.317       52.235       31.783       17.709     2728.485     1010.130      313.621        1.850        0.203      181.454       19.742        0.012      345.428       22.950      863.023
08/29/2014  01:06:00     -134.292      -26.124       -9.557       46.847       34.898       21.560     2194.613     1217.885      464.847        1.134        0.194      136.809       22.184        0.026      345.206       22.570      863.034
08/29/2014  01:07:00      -68.673      -27.390        3.253       45.473       38.963       22.552     2067.759     1518.081      508.577        0.478        0.205       73.934       26.110        0.125      345.136       22.450      863.023
08/29/2014  01:08:00     -120.640      -23.265       -3.610       49.753       41.965       23.037     2475.404     1761.061      530.681        0.994        0.238      122.862       25.307        0.042      345.149       22.473      863.032
08/29/2014  01:09:00      -42.759      -37.358        8.174       49.707       35.774       19.771     2470.760     1279.793      390.882        0.372        0.207       56.779       19.305        0.116      345.187       22.538      863.042
08/29/2014  01:10:00     -114.764     -108.185       -2.946       62.239       56.009       37.033     3873.746     3137.006     1371.439        1.663        0.419      157.717       31.253        0.039      345.103       22.394      863.047
08/29/2014  01:11:00     -139.517      -78.195       -8.159       50.179       37.473       29.376     2517.923     1404.204      862.948        1.521        0.239      159.935       26.186        0.027      345.013       22.241      863.049
08/29/2014  01:12:00     -135.952      -87.961       -0.903       50.962       58.099       32.616     2597.121     3375.521     1063.821        1.663        0.352      161.926       29.988        0.034      345.032       22.272      863.034
08/29/2014  01:13:00     -132.208      -81.580       -3.297       51.118       78.981       31.321     2613.013     6238.051      981.020        1.699        0.492      155.352       27.396        0.031      345.076       22.346      863.029
08/29/2014  01:14:00     -103.349      -52.558       -2.336       49.592       38.974       23.286     2459.347     1518.957      542.260        0.898        0.226      115.946       22.073        0.036      344.960       22.151      863.018
08/29/2014  01:15:00      -78.600       -0.952       -1.891       36.187       41.884       29.275     1309.483     1754.230      857.044        0.505        0.196       78.606       20.747        0.070      344.931       22.100      863.016
08/29/2014  01:16:00      -44.434       25.060       -3.399       20.851       28.446       15.843      434.768      809.195      250.995        0.205        0.075       51.013       10.806        0.045      344.682       21.674      863.012
08/29/2014  01:17:00      -54.989      -23.339        7.215       52.919       23.321       21.985     2800.401      543.880      483.346        0.372        0.191       59.737       26.345        0.194      344.719       21.737      863.014
08/29/2014  01:18:00      -97.741       11.182       -6.376       48.203       39.585       25.096     2323.504     1567.004      629.814        0.712        0.226       98.379       20.977        0.045      344.634       21.592      863.026
08/29/2014  01:19:00     -146.633      -48.682       -5.142       32.983       38.710       20.526     1087.885     1498.453      421.324        1.345        0.150      154.503       10.043        0.004      344.620       21.569      863.006
08/29/2014  01:20:00      -86.254      -44.154        8.470       61.136       36.834       29.959     3737.661     1356.772      897.520        0.773        0.300       96.899       31.767        0.107      344.759       21.805      862.979
08/29/2014  01:21:00      -92.164      -42.981        4.068       61.307       49.351       26.454     3758.512     2435.526      699.791        0.862        0.345      101.694       28.806        0.080      344.909       22.063      862.962
08/29/2014  01:22:00     -115.833      -41.209       -1.508       21.041       24.546       18.969      442.738      602.505      359.828        0.826        0.070      122.945       11.515        0.009      344.956       22.143      862.948
08/29/2014  01:23:00      -80.831      -24.297        3.417       29.777       33.445       17.416      886.653     1118.578      303.309        0.472        0.115       84.404       18.215        0.047      344.850       21.962      862.939
08/29/2014  01:24:00      -79.206       -8.487        0.474       45.247       34.641       20.408     2047.325     1199.985      416.478        0.500        0.183       79.659       21.746        0.075      344.802       21.879      862.928
08/29/2014  01:25:00      -77.742       41.307       -0.505       30.559       22.394       19.718      933.852      501.512      388.792        0.479        0.091       88.034       15.805        0.032      344.514       21.386      862.926
08/29/2014  01:26:00     -121.829       38.853       -7.113       30.092       18.698       17.011      905.523      349.620      289.377        0.897        0.077      127.875        7.140        0.003      344.669       21.651      862.921
08/29/2014  01:27:00     -124.385       22.576       -2.434       36.447       30.464       22.621     1328.366      928.074      511.708        0.938        0.138      126.418       18.785        0.022      344.765       21.815      862.919
08/29/2014  01:28:00     -112.580      -11.231      -10.238       43.251       31.483       19.736     1870.657      991.184      389.496        0.808        0.163      113.139       20.681        0.033      345.039       22.285      862.908
08/29/2014  01:29:00     -124.779      -15.100       -4.478       43.532       26.154       19.545     1895.032      684.052      382.018        0.939        0.148      125.689       15.816        0.016      345.030       22.270      862.897
08/29/2014  01:30:00      -93.206      -39.018        0.124       35.592       35.512       20.876     1266.801     1261.126      435.810        0.659        0.148      101.043       18.228        0.033      344.721       21.741      862.886
08/29/2014  01:31:00     -148.078      -82.759       -5.970       52.677       34.945       21.190     2774.846     1221.131      449.035        1.663        0.222      169.635       24.626        0.021      344.595       21.526      862.880
08/29/2014  01:32:00      -90.173      -37.472        0.605       53.026       33.217       20.378     2811.772     1103.336      415.246        0.693        0.217       97.649       24.897        0.065      344.609       21.550      862.875
08/29/2014  01:33:00     -119.374      -33.642       -6.053       51.399       46.182       27.348     2641.845     2132.818      747.928        1.047        0.276      124.024       29.534        0.057      344.813       21.899      862.877
08/29/2014  01:34:00     -158.471       -2.123      -14.343       36.635       32.258       22.937     1342.087     1040.570      526.105        1.412        0.145      158.485       21.702        0.019      344.761       21.808      862.894
08/29/2014  01:35:00     -130.088      -45.425       -3.240       36.949       32.583       22.312     1365.208     1061.671      497.842        1.096        0.146      137.791       23.226        0.028      344.774       21.832      862.891
08/29/2014  01:36:00     -121.610      -40.535        4.079       47.531       34.881       21.138     2259.149     1216.693      446.804        1.018        0.196      128.188       20.510        0.026      344.749       21.788      862.894
08/29/2014  01:37:00     -128.278      -61.741        2.482       42.403       35.969       21.215     1798.006     1293.748      450.088        1.191        0.177      142.363       22.123        0.024      344.974       22.175      862.895
08/29/2014  01:38:00     -101.718      -40.887       -4.665       55.353       37.099       22.861     3063.903     1376.330      522.621        0.850        0.248      109.628       24.274        0.049      344.904       22.053      862.880
08/29/2014  01:39:00      -81.461      -45.397        1.686       40.075       32.149       19.688     1606.043     1033.587      387.622        0.586        0.151       93.256       22.342        0.057      344.858       21.975      862.867
08/29/2014  01:40:00      -86.002      -44.166        2.498       47.071       33.611       21.782     2215.719     1129.682      474.453        0.659        0.191       96.680       26.591        0.076      344.775       21.834      862.856
08/29/2014  01:41:00     -132.374      -41.980        2.092       62.971       47.147       27.719     3965.378     2222.808      768.359        1.312        0.348      138.871       28.825        0.043      344.746       21.783      862.851
08/29/2014  01:42:00     -212.292      -17.804      -19.659       37.842       38.284       26.810     1432.041     1465.694      718.791        2.469        0.181      213.038       18.831        0.008      344.684       21.675      862.838
08/29/2014  01:43:00     -131.297      -20.997       -8.286       68.925       37.257       27.688     4750.724     1388.052      766.609        1.233        0.345      132.965       34.812        0.069      344.669       21.651      862.818
08/29/2014  01:44:00     -147.838      -42.305        2.022       58.795       35.784       28.728     3456.867     1280.501      825.319        1.461        0.278      153.772       24.974        0.026      344.629       21.583      862.806
08/29/2014  01:45:00     -112.791      -58.450        0.781       43.270       33.806       24.994     1872.268     1142.866      624.690        0.989        0.182      127.036       21.046        0.027      344.785       21.852      862.791
08/29/2014  01:46:00     -153.273      -67.204       -3.308       65.970       38.205       28.703     4352.004     1459.631      823.875        1.733        0.332      167.359       32.506        0.038      345.030       22.269      862.771
08/29/2014  01:47:00     -129.853      -84.063        1.109       53.854       43.115       31.229     2900.292     1858.862      975.271        1.483        0.287      154.689       32.966        0.045      344.941       22.117      862.757
08/29/2014  01:48:00     -153.558      -75.154       -5.671       34.147       27.009       23.813     1166.052      729.479      567.074        1.586        0.123      170.962       20.055        0.014      344.884       22.020      862.756
08/29/2014  01:49:00     -117.474      -65.998        1.803       52.787       43.186       29.033     2786.461     1865.050      842.896        1.183        0.275      134.744       26.952        0.040      344.835       21.935      862.747
08/29/2014  01:50:00     -154.683      -47.445        0.702       55.515       37.588       23.731     3081.866     1412.827      563.181        1.562        0.253      161.796       24.427        0.023      344.852       21.965      862.738
08/29/2014  01:51:00     -180.363      -70.827       -1.801       38.887       33.105       23.494     1512.205     1095.960      551.963        2.035        0.158      193.772       18.828        0.009      344.879       22.009      862.741
08/29/2014  01:52:00     -139.053      -23.071        4.694       44.919       39.025       26.153     2017.687     1522.980      683.999        1.206        0.211      140.954       22.770        0.026      344.871       21.998      862.727
08/29/2014  01:53:00     -152.787      -40.355       -2.028       38.834       38.941       18.223     1508.114     1516.433      332.080        1.417        0.168      158.027       19.988        0.016      344.877       22.007      862.714
08/29/2014  01:54:00     -157.005      -44.326        1.859       51.384       54.175       28.173     2640.324     2934.911      793.743        1.649        0.318      163.142       30.825        0.036      344.819       21.908      862.707
08/29/2014  01:55:00     -168.951      -69.449       -5.472       43.647       41.610       27.341     1905.022     1731.369      747.512        1.889        0.219      182.668       24.565        0.018      344.750       21.790      862.701
08/29/2014  01:56:00     -124.661      -76.715        4.143      112.215       58.377       42.046    12592.096     3407.847     1767.895        1.960        0.888      146.374       49.635        0.115      344.793       21.862      862.665
08/29/2014  01:57:00     -188.073      -83.752      -16.550       51.505       53.760       33.010     2652.719     2890.110     1089.672        2.464        0.332      205.878       28.701        0.019      344.803       21.879      862.654
08/29/2014  01:58:00     -182.281      -82.032       -8.286       48.555       45.936       28.513     2357.559     2110.079      812.982        2.265        0.264      199.889       23.350        0.014      344.806       21.884      862.652
08/29/2014  01:59:00     -133.784      -27.127       -7.312       43.980       41.734       18.649     1934.203     1741.721      347.786        1.135        0.201      136.506       14.846        0.012      344.738       21.771      862.652
08/29/2014  02:00:00     -106.261       12.478       -4.247       53.407       24.751       23.882     2852.332      612.607      570.355        0.775        0.202      106.991       28.379        0.070      344.538       21.427      862.638
08/29/2014  02:01:00     -143.139      -20.878       -0.592       46.069       40.174       26.606     2122.368     1613.933      707.894        1.268        0.222      144.653       24.354        0.028      344.612       21.554      862.621
08/29/2014  02:02:00     -151.382      -53.727        7.892       47.822       41.829       26.960     2286.924     1749.645      726.863        1.531        0.238      160.634       19.882        0.015      344.667       21.649      862.618
08/29/2014  02:03:00     -170.852      -71.311       -4.780       44.624       38.334       27.760     1991.308     1469.490      770.596        1.926        0.212      185.137       26.518        0.021      344.711       21.722      862.612
08/29/2014  02:04:00     -133.687      -88.322       -0.949       67.526       51.335       33.925     4559.805     2635.288     1150.934        1.701        0.417      160.228       33.714        0.044      344.757       21.801      862.594
08/29/2014  02:05:00     -135.719     -127.579       -8.074       61.230       49.197       34.919     3749.052     2420.371     1219.351        2.107        0.369      186.268       23.545        0.016      344.761       21.807      862.571
08/29/2014  02:06:00     -103.588     -111.585        8.326       82.743       55.560       48.731     6846.366     3086.891     2374.679        1.778        0.615      152.255       46.170        0.092      344.691       21.687      862.549
08/29/2014  02:07:00     -122.681     -121.283       10.006       89.006       70.762       49.285     7922.082     5007.318     2428.972        2.261        0.768      172.511       52.906        0.094      344.773       21.825      862.539
08/29/2014  02:08:00     -189.343     -105.815        0.443       77.578       48.116       31.611     6018.421     2315.121      999.241        2.819        0.467      216.905       37.668        0.030      344.846       21.950      862.536
08/29/2014  02:09:00     -141.547     -115.173        0.070       50.322       42.748       30.355     2532.295     1827.405      921.416        1.929        0.264      182.484       25.401        0.019      344.738       21.770      862.528
08/29/2014  02:10:00     -173.417     -100.075       -1.137       83.898       55.958       31.895     7038.811     3131.274     1017.308        2.564        0.559      200.221       33.099        0.027      344.743       21.776      862.523
08/29/2014  02:11:00     -154.908      -70.671       -3.504       52.986       35.948       24.435     2807.514     1292.245      597.067        1.685        0.235      170.267       23.242        0.019      344.701       21.706      862.524
08/29/2014  02:12:00     -218.915      -68.466      -19.454      117.020       67.778       41.287    13693.612     4593.814     1704.595        3.649        1.000      229.372       42.122        0.034      344.924       22.086      862.532
08/29/2014  02:13:00     -110.403       -5.351        8.073       67.010       50.295       34.156     4490.281     2529.562     1166.666        1.023        0.409      110.532       35.206        0.101      344.709       21.721      862.536
08/29/2014  02:14:00     -109.383      -48.857        1.808       44.751       30.496       20.103     2002.632      930.008      404.139        0.885        0.167      119.798       18.412        0.024      344.722       21.744      862.533
08/29/2014  02:15:00      -84.597      -71.425        5.710       74.364       62.092       27.049     5529.991     3855.466      731.675        1.120        0.506      110.716       27.104        0.060      344.735       21.763      862.535
08/29/2014  02:16:00     -147.517      -42.719       -1.609       65.981       50.090       25.656     4353.540     2509.001      658.205        1.555        0.376      153.578       28.205        0.034      344.747       21.785      862.544
08/29/2014  02:17:00     -104.015      -48.834       -4.076       46.866       42.362       26.647     2196.387     1794.511      710.044        0.896        0.235      114.908       23.117        0.040      344.739       21.771      862.534
08/29/2014  02:18:00     -141.971       -6.236      -12.964       45.537       25.264       21.043     2073.637      638.287      442.814        1.176        0.158      142.108       22.051        0.024      344.734       21.762      862.528
08/29/2014  02:19:00     -165.172       -5.683      -20.708       26.932       22.949       18.462      725.358      526.675      340.831        1.467        0.080      165.270       11.736        0.005      344.726       21.750      862.513
08/29/2014  02:20:00     -145.050      -55.860      -17.625       32.857       32.405       19.154     1079.554     1050.078      366.893        1.348        0.125      155.434       16.547        0.011      344.685       21.678      862.503
08/29/2014  02:21:00     -131.438      -35.171       -6.778       41.428       39.864       20.199     1716.276     1589.146      408.003        1.114        0.186      136.062       16.016        0.014      344.621       21.569      862.491
08/29/2014  02:22:00     -110.532      -53.545        5.268       51.107       36.470       29.804     2611.886     1330.045      888.265        0.997        0.242      122.818       29.880        0.059      344.593       21.521      862.486
08/29/2014  02:23:00      -81.132      -34.522       -4.477       55.971       45.766       25.868     3132.707     2094.551      669.157        0.684        0.295       88.171       21.176        0.058      344.662       21.640      862.484
08/29/2014  02:24:00      -53.222      -47.718       -0.468       56.803       52.186       32.029     3226.604     2723.361     1025.872        0.604        0.349       71.482       30.959        0.188      344.613       21.556      862.493
08/29/2014  02:25:00     -110.374       -5.940      -14.798       32.315       29.186       20.444     1044.258      851.814      417.959        0.737        0.116      110.534       17.798        0.026      344.495       21.354      862.507
08/29/2014  02:26:00      -68.671      -41.833       -5.588       33.780       23.807       21.095     1141.071      566.770      444.980        0.432        0.108       80.409       19.028        0.056      344.403       21.197      862.500
08/29/2014  02:27:00      -54.318        9.931      -12.646       20.392       43.234       15.389      415.851     1869.178      236.832        0.286        0.126       55.218        5.774        0.011      344.336       21.083      862.487
08/29/2014  02:28:00      -51.809       30.583      -10.319       25.311       20.219       17.551      640.628      408.820      308.053        0.254        0.068       60.162       17.524        0.085      344.425       21.234      862.474
08/29/2014  02:29:00      -37.103       32.068       -3.510       20.598       47.369       18.627      424.292     2243.810      346.951        0.272        0.151       49.041       21.913        0.200      344.398       21.188      862.468
08/29/2014  02:30:00      -42.919       87.856      -11.648       20.723       15.005       12.753      429.422      225.163      162.647        0.526        0.041       97.779        7.221        0.005      344.429       21.242      862.462
08/29/2014  02:31:00       -0.494       26.177       -2.210       12.660       18.843       11.912      160.278      355.050      141.884        0.067        0.033       26.181       10.975        0.176      344.423       21.231      862.455
08/29/2014  02:32:00       -3.355       25.547        0.553       15.023       15.051        9.204      225.691      226.538       84.720        0.060        0.027       25.767        8.258        0.103      344.450       21.276      862.447
08/29/2014  02:33:00       -5.332       46.434       -2.833       19.921       23.932       17.197      396.852      572.733      295.752        0.173        0.063       46.740       18.828        0.162      344.422       21.228      862.447
08/29/2014  02:34:00        6.555       35.053       -7.388       16.429       12.224        6.108      269.924      149.419       37.312        0.089        0.023       35.660        4.779        0.018      344.461       21.299      862.453
08/29/2014  02:35:00       15.316       19.266       -3.548       14.700        8.599        7.566      216.082       73.942       57.242        0.048        0.017       24.612        6.076        0.061      344.308       21.035      862.446
08/29/2014  02:36:00      -21.950        2.448       -1.889       14.365        7.941        8.643      206.353       63.058       74.706        0.042        0.017       22.086        8.410        0.145      344.566       21.473      862.442
08/29/2014  02:37:00       -5.247      -33.886       -0.315       14.067       15.091       14.414      197.868      227.732      207.754        0.090        0.032       34.290       12.427        0.131      344.593       21.523      862.431
08/29/2014  02:38:00      -36.164        1.911       -2.867       20.275       19.194       11.465      411.087      368.419      131.438        0.112        0.046       36.215       11.418        0.099      344.240       20.918      862.427
08/29/2014  02:39:00       -8.047      -21.842       -5.498       10.623        8.311        4.143      112.838       69.072       17.166        0.039        0.010       23.277        3.821        0.027      344.437       21.254      862.427
08/29/2014  02:40:00      -18.024      -31.379       -8.317       11.132       14.137        6.996      123.924      199.852       48.948        0.088        0.019       36.188        7.749        0.046      344.682       21.673      862.431
08/29/2014  02:41:00      -15.531      -13.920       -1.529       10.574       12.471        8.783      111.802      155.533       77.138        0.039        0.017       20.856        4.741        0.052      344.570       21.483      862.439
08/29/2014  02:42:00       -7.287      -12.744        3.359       11.415       21.274        7.564      130.302      452.566       57.216        0.043        0.032       14.680        9.616        0.429      344.559       21.462      862.431
08/29/2014  02:43:00      -13.290      -40.750        1.016       15.697       13.386        8.971      246.401      179.179       80.472        0.117        0.025       42.863        9.188        0.046      344.750       21.788      862.429
08/29/2014  02:44:00       11.968      -11.553       10.528       18.475       19.372       13.876      341.333      375.276      192.552        0.065        0.045       16.634       11.715        0.496      344.626       21.577      862.432
08/29/2014  02:45:00       12.194       38.843        0.454       14.059       28.458       13.794      197.660      809.876      190.266        0.143        0.060       40.712       15.866        0.152      344.220       20.883      862.442
08/29/2014  02:46:00       19.325       49.295       -7.831        8.101       11.089        7.105       65.622      122.971       50.487        0.155        0.012       52.948        5.625        0.011      344.221       20.887      862.457
08/29/2014  02:47:00       13.798       22.749       -3.352        6.792       10.552        5.451       46.125      111.341       29.710        0.045        0.009       26.606        5.984        0.051      344.401       21.191      862.477
08/29/2014  02:48:00       12.192       16.008        4.290       10.123        7.755        5.293      102.485       60.138       28.016        0.031        0.010       20.122        2.588        0.017      344.290       21.001      862.488
08/29/2014  02:49:00       22.079       38.052        0.095        5.794        6.061        8.896       33.565       36.731       79.135        0.104        0.007       43.994        5.044        0.013      344.284       20.994      862.498
08/29/2014  02:50:00       16.712       41.120       -4.294       10.268       13.083        7.258      105.441      171.163       52.680        0.116        0.016       44.386        6.494        0.021      344.170       20.799      862.497
08/29/2014  02:51:00       24.447       16.963       -1.484        9.923       11.080        7.296       98.468      122.766       53.228        0.058        0.014       29.756        6.104        0.042      344.231       20.902      862.504
08/29/2014  02:52:00       17.923       -1.762       -3.135       11.308       13.082        4.078      127.860      171.142       16.630        0.032        0.016       18.010        4.830        0.072      344.327       21.067      862.509
08/29/2014  02:53:00       -5.367      -38.254       -3.316       10.159       17.185        5.258      103.206      295.339       27.648        0.096        0.021       38.629        6.259        0.026      344.462       21.298      862.512
08/29/2014  02:54:00      -30.505      -50.662       -9.906       15.377       16.840       12.068      236.457      283.571      145.633        0.213        0.033       59.137       11.492        0.038      344.348       21.103      862.503
08/29/2014  02:55:00      -42.261      -37.479        2.396       22.014       16.252       12.060      484.612      264.114      145.450        0.205        0.045       56.486       10.979        0.038      344.218       20.882      862.491
08/29/2014  02:56:00      -23.613      -15.809        1.727       18.453       23.348       12.111      340.518      545.131      146.679        0.092        0.052       28.417        8.582        0.091      344.123       20.721      862.487
08/29/2014  02:57:00      -37.571       -0.694        0.261       23.972       15.342       11.837      574.674      235.386      140.106        0.118        0.048       37.578       14.713        0.153      343.983       20.480      862.486
08/29/2014  02:58:00      -71.810        1.785       -3.209       21.560       20.934        7.003      464.842      438.243       49.042        0.306        0.048       71.832        7.258        0.010      343.937       20.401      862.480
08/29/2014  02:59:00      -14.361      -24.480        1.241       14.955        9.679        6.602      223.650       93.687       43.589        0.058        0.018       28.381        4.901        0.030      343.973       20.461      862.468
08/29/2014  03:00:00      -68.452      -24.604       -3.061       16.373       14.241       10.038      268.084      202.804      100.768        0.294        0.029       72.739        6.779        0.009      343.996       20.502      862.472
08/29/2014  03:01:00      -56.022      -20.822       -4.938       21.941       15.519       14.011      481.390      240.846      196.316        0.226        0.046       59.767        7.946        0.018      343.816       20.194      862.481
08/29/2014  03:02:00       -5.734      -36.163       -6.743       14.209       14.130        9.570      201.909      199.651       91.576        0.094        0.025       36.615        7.012        0.037      343.915       20.364      862.484
08/29/2014  03:03:00        7.059       31.359       37.498       15.302       27.255       16.377      234.160      742.851      268.201        0.184        0.062       32.144        8.775        0.075      343.874       20.292      862.469
08/29/2014  03:04:00      -36.418       -5.358        5.676       29.199       19.573       16.983      852.591      383.087      288.430        0.146        0.076       36.810       18.576        0.255      343.865       20.278      862.479
08/29/2014  03:05:00      -58.391       -2.071       -3.550       26.340       22.164       13.370      693.794      491.234      178.746        0.239        0.068       58.427       13.542        0.054      343.634       19.882      862.491
08/29/2014  03:06:00      -52.747      -37.196       -2.993       32.291       21.839       13.700     1042.703      476.934      187.703        0.294        0.085       64.543       15.659        0.059      343.615       19.852      862.509
08/29/2014  03:07:00      -22.610      -27.140        0.480       15.451       11.347        7.694      238.738      128.746       59.205        0.084        0.021       35.324        7.011        0.039      343.745       20.071      862.513
08/29/2014  03:08:00      -30.433      -15.928       -0.584       10.739        9.023        5.738      115.317       81.413       32.928        0.070        0.011       34.349        5.460        0.025      343.835       20.227      862.501
08/29/2014  03:09:00      -81.259      -24.925       -2.024       16.664       25.090       11.002      277.700      629.524      121.055        0.413        0.051       84.996        7.053        0.007      343.818       20.197      862.498
08/29/2014  03:10:00      -34.934      -10.407        2.168       28.071       15.040       10.735      787.988      226.200      115.246        0.123        0.056       36.451       14.661        0.162      343.609       19.840      862.508
08/29/2014  03:11:00      -20.345      -61.607        3.561       29.417       30.337       13.913      865.387      920.354      193.579        0.310        0.099       64.879        9.288        0.020      343.868       20.282      862.520
08/29/2014  03:12:00      -84.835      -80.655        0.397       31.144       34.518       19.213      969.968     1191.474      369.143        0.812        0.127      117.056       18.960        0.026      343.861       20.270      862.528
08/29/2014  03:13:00      -88.409      -42.342       -0.821       30.293       21.138       15.590      917.673      446.798      243.047        0.561        0.080       98.025       14.849        0.023      343.774       20.122      862.528
08/29/2014  03:14:00      -26.015      -64.484        4.670       24.259       30.485       21.833      588.491      929.325      476.685        0.343        0.100       69.534       15.385        0.049      343.774       20.124      862.518
08/29/2014  03:15:00      -50.352      -72.049        1.451       26.579       33.243       17.836      706.444     1105.093      318.133        0.493        0.106       87.900        9.738        0.012      343.810       20.184      862.499
08/29/2014  03:16:00     -107.134      -70.487      -13.646       29.173       33.093       18.651      851.077     1095.167      347.875        0.946        0.115      128.242       11.435        0.008      343.843       20.239      862.491
08/29/2014  03:17:00     -111.906      -65.358       -9.386       16.069       24.846       13.698      258.197      617.316      187.623        0.897        0.053      129.594       10.676        0.007      343.788       20.147      862.498
08/29/2014  03:18:00      -87.865      -47.942       -3.409       25.594       19.052       10.935      655.051      362.991      119.572        0.558        0.057      100.094        9.060        0.008      343.750       20.083      862.505
08/29/2014  03:19:00      -85.389      -73.814       -0.566       32.300       27.468       21.333     1043.280      754.506      455.085        0.750        0.113      112.871       15.052        0.018      343.776       20.126      862.506
08/29/2014  03:20:00     -111.002     -105.939       -3.273       46.997       49.396       26.704     2208.721     2440.013      713.096        1.446        0.268      153.442       23.936        0.024      343.832       20.220      862.508
08/29/2014  03:21:00      -99.542      -81.402        3.553       48.175       37.480       28.796     2320.870     1404.788      829.210        1.055        0.228      128.588       32.285        0.063      343.784       20.140      862.511
08/29/2014  03:22:00     -103.811      -68.101        6.244       42.497       34.766       28.743     1805.999     1208.685      826.139        0.965        0.192      124.155       23.524        0.036      343.767       20.110      862.517
08/29/2014  03:23:00      -67.531      -57.021        1.009       34.047       31.882       21.096     1159.201     1016.447      445.048        0.522        0.131       88.384       17.909        0.041      343.777       20.128      862.511
08/29/2014  03:24:00      -96.135      -16.865       -3.039       22.086       31.112       20.786      487.770      967.931      432.077        0.571        0.094       97.604       16.748        0.029      343.777       20.128      862.510
08/29/2014  03:25:00      -54.585      -55.711        1.426       29.149       44.556       15.037      849.660     1985.253      226.115        0.457        0.153       77.996       14.003        0.032      343.785       20.141      862.520
08/29/2014  03:26:00      -77.301      -90.855       -0.395       37.170       39.781       22.777     1381.636     1582.539      518.799        0.886        0.174      119.289       13.201        0.012      343.799       20.165      862.525
08/29/2014  03:27:00      -78.402      -67.129        7.248       52.381       45.824       25.059     2743.733     2099.857      627.971        0.809        0.274      103.214       22.791        0.049      343.741       20.066      862.523
08/29/2014  03:28:00      -84.648     -124.149      -11.502       25.314       25.782       20.170      640.791      664.696      406.823        1.221        0.086      150.260        9.052        0.004      343.746       20.072      862.513
08/29/2014  03:29:00      -57.454     -100.878       -1.890       37.704       55.658       20.913     1421.564     3097.862      437.359        0.922        0.248      116.092       22.060        0.036      343.769       20.114      862.505
08/29/2014  03:30:00      -70.043      -59.731       12.231       35.622       36.848       22.784     1268.906     1357.751      519.105        0.588        0.157       92.054       19.688        0.046      343.693       19.985      862.497
08/29/2014  03:31:00      -90.236      -56.464        0.381       37.259       29.644       22.186     1388.241      878.791      492.229        0.704        0.138      106.445       21.952        0.043      343.682       19.965      862.481
08/29/2014  03:32:00      -97.175      -64.038       -4.426       41.761       27.877       17.757     1743.997      777.121      315.315        0.820        0.142      116.378       20.780        0.032      343.672       19.949      862.465
08/29/2014  03:33:00      -90.238      -46.962       -3.035       41.381       32.525       16.037     1712.366     1057.871      257.182        0.669        0.151      101.727        8.582        0.007      343.641       19.896      862.449
08/29/2014  03:34:00      -72.099      -55.451        4.755       41.053       35.848       22.528     1685.359     1285.112      507.502        0.589        0.174       90.957       17.513        0.037      343.643       19.898      862.450
08/29/2014  03:35:00     -164.944      -71.974       -5.158       57.295       34.776       25.916     3282.726     1209.394      671.628        1.879        0.258      179.963       27.361        0.023      343.675       19.952      862.444
08/29/2014  03:36:00      -82.274      -51.948       -1.951       62.431       39.542       25.698     3897.661     1563.580      660.390        0.780        0.306       97.302       25.735        0.070      343.607       19.838      862.437
08/29/2014  03:37:00      -71.470      -25.439        0.103       38.168       25.338       18.914     1456.834      642.032      357.728        0.411        0.123       75.862       18.324        0.058      343.581       19.792      862.416
08/29/2014  03:38:00      -68.026      -43.687        9.419       45.164       24.510       20.655     2039.779      600.761      426.643        0.485        0.153       80.846       25.608        0.100      343.601       19.826      862.399
08/29/2014  03:39:00      -70.801      -37.096        5.065       42.723       24.662       21.377     1825.280      608.236      456.968        0.465        0.145       79.931       21.392        0.072      343.604       19.832      862.374
08/29/2014  03:40:00      -79.950      -21.002       -2.925       40.525       24.192       19.633     1642.249      585.245      385.472        0.473        0.131       82.663       23.204        0.079      343.495       19.646      862.362
08/29/2014  03:41:00     -102.755        2.049       -3.752       32.263       23.982       18.539     1040.914      575.137      343.706        0.627        0.098      102.775       18.873        0.034      343.283       19.285      862.374
08/29/2014  03:42:00     -102.704      -28.583       -0.952       40.189       26.643       19.569     1615.145      709.872      382.929        0.704        0.135      106.607       18.206        0.029      343.188       19.124      862.388
08/29/2014  03:43:00     -103.004      -15.610        8.857       42.949       37.602       21.818     1844.630     1413.923      476.011        0.733        0.187      104.180       25.037        0.058      343.050       18.887      862.400
08/29/2014  03:44:00      -74.499      -19.222        8.833       46.106       32.492       22.756     2125.752     1055.757      517.854        0.485        0.185       76.939       22.490        0.085      343.140       19.043      862.410
08/29/2014  03:45:00      -94.808      -39.743       -1.603       32.322       29.775       17.934     1044.723      886.547      321.621        0.641        0.113      102.801       14.230        0.019      343.357       19.412      862.425
08/29/2014  03:46:00      -87.023      -47.114        0.586       25.536       27.337       14.731      652.092      747.319      217.010        0.570        0.081       98.958       10.084        0.010      343.313       19.336      862.431
08/29/2014  03:47:00     -133.463      -33.062       -0.433       32.554       34.957       17.603     1059.747     1222.025      309.856        1.075        0.130      137.497       15.525        0.013      343.112       18.994      862.441
08/29/2014  03:48:00     -137.340      -21.049        1.596       52.506       32.937       25.353     2756.925     1084.874      642.800        1.190        0.224      138.944       27.991        0.041      342.944       18.709      862.463
08/29/2014  03:49:00     -101.448      -57.505        5.246       55.194       39.886       25.031     3046.344     1590.918      626.531        0.944        0.263      116.613       24.722        0.045      343.272       19.268      862.464
08/29/2014  03:50:00     -133.769      -62.265       -2.323       54.804       43.694       27.690     3003.443     1909.182      766.754        1.373        0.284      147.550       26.322        0.032      343.270       19.262      862.463
08/29/2014  03:51:00     -109.389      -41.957        2.551       43.241       50.226       28.766     1869.779     2522.669      827.493        0.948        0.261      117.159       21.887        0.035      343.297       19.307      862.449
08/29/2014  03:52:00     -131.531      -29.325        1.400       47.819       36.748       21.620     2286.626     1350.446      467.440        1.113        0.205      134.760       24.125        0.032      343.227       19.191      862.450
08/29/2014  03:53:00     -115.899      -24.397        4.242       59.092       37.479       23.418     3491.852     1404.665      548.413        0.974        0.272      118.439       28.218        0.057      343.184       19.116      862.429
08/29/2014  03:54:00      -78.075      -31.552        2.843       39.442       29.228       18.919     1555.692      854.294      357.917        0.493        0.138       84.210       15.488        0.034      343.098       18.970      862.418
08/29/2014  03:55:00      -84.312      -21.196        0.818       41.278       33.152       20.563     1703.872     1099.043      422.843        0.539        0.161       86.935       19.731        0.052      343.057       18.901      862.419
08/29/2014  03:56:00      -72.587       -7.855        5.646       40.628       29.094       18.780     1650.598      846.451      352.676        0.411        0.142       73.010       19.639        0.072      342.952       18.721      862.420
08/29/2014  03:57:00      -67.447       -8.408        3.107       29.218       28.941       19.664      853.690      837.571      386.656        0.335        0.104       67.969       18.741        0.076      343.013       18.826      862.406
08/29/2014  03:58:00      -69.218      -37.898        6.633       45.145       31.316       21.298     2038.056      980.720      453.611        0.487        0.174       78.913       21.496        0.074      343.043       18.877      862.414
08/29/2014  03:59:00      -75.943      -35.679        1.753       42.066       21.564       19.584     1769.515      464.985      383.542        0.483        0.131       83.906       22.634        0.073      343.212       19.165      862.413
08/29/2014  04:00:00      -88.065       -1.782       -2.389       45.832       34.142       24.831     2100.573     1165.647      616.560        0.582        0.194       88.083       26.165        0.088      343.002       18.807      862.408
08/29/2014  04:01:00      -66.510      -39.296        7.171       38.688       20.863       17.933     1496.765      435.254      321.576        0.414        0.113       77.251       20.526        0.071      343.098       18.970      862.410
08/29/2014  04:02:00      -85.157      -63.162       -3.639       44.959       19.699       16.630     2021.291      388.069      276.568        0.697        0.134      106.024       18.964        0.032      343.520       19.690      862.407
08/29/2014  04:03:00     -154.252      -81.476       -7.055       33.761       39.765       20.393     1139.816     1581.248      415.859        1.681        0.157      174.448       17.211        0.010      343.391       19.467      862.405
08/29/2014  04:04:00     -131.414      -72.150        4.621       58.571       44.248       28.473     3430.580     1957.905      810.688        1.435        0.310      149.917       26.929        0.032      343.351       19.400      862.395
08/29/2014  04:05:00      -47.902      -27.952        4.663       27.207       25.931       22.440      740.220      672.434      503.549        0.251        0.096       55.461       17.899        0.104      343.276       19.274      862.382
08/29/2014  04:06:00      -96.185      -31.494       -1.895       22.609       23.775       12.616      511.171      565.271      159.164        0.574        0.062      101.210       11.340        0.013      343.280       19.279      862.362
08/29/2014  04:07:00      -58.874      -33.081        2.604       40.434       22.572       16.156     1634.928      509.489      261.021        0.349        0.120       67.532       12.342        0.033      343.154       19.065      862.349
08/29/2014  04:08:00      -44.817      -20.756       -0.055       19.689       13.769        9.507      387.675      189.582       90.376        0.155        0.033       49.390        9.561        0.037      343.176       19.103      862.336
08/29/2014  04:09:00      -83.847      -18.534       -5.000       24.916       13.794       13.779      620.828      190.287      189.869        0.420        0.050       85.871       10.983        0.016      343.096       18.968      862.329
08/29/2014  04:10:00      -68.127       -8.054        1.689       41.797       22.559       17.007     1747.015      508.894      289.245        0.363        0.127       68.601       18.160        0.070      342.937       18.696      862.324
08/29/2014  04:11:00      -77.042      -15.128       -3.241       46.334       20.435       15.600     2146.880      417.602      243.347        0.449        0.140       78.513       17.463        0.049      342.748       18.374      862.327
08/29/2014  04:12:00      -35.423       -4.670       -8.712       22.167       12.909       10.204      491.376      166.648      104.128        0.106        0.038       35.730        8.820        0.061      342.690       18.274      862.321
08/29/2014  04:13:00       -1.763      -30.369       -2.811       14.066       15.635       11.424      197.858      244.467      130.515        0.075        0.029       30.420       11.071        0.132      343.156       19.070      862.326
08/29/2014  04:14:00     -100.526        4.685       -7.878       61.175       19.645       12.711     3742.325      385.945      161.579        0.724        0.214      100.635       19.406        0.037      342.909       18.650      862.326
08/29/2014  04:15:00     -142.453       -5.072      -10.971       49.813       43.095       27.760     2481.303     1857.218      770.608        1.277        0.255      142.544       27.351        0.037      342.454       17.875      862.339
08/29/2014  04:16:00      -47.592        8.193       -0.730       32.475       21.419       15.540     1054.634      458.779      241.485        0.204        0.088       48.292        3.817        0.006      342.446       17.862      862.349
08/29/2014  04:17:00      -19.571      -44.980       -5.821       16.842       11.349        8.550      283.661      128.803       73.110        0.146        0.024       49.053        4.805        0.010      342.909       18.648      862.340
08/29/2014  04:18:00      -51.928      -33.617       -1.754       16.774       13.648        8.781      281.382      186.255       77.105        0.219        0.027       61.860        8.233        0.018      343.029       18.852      862.327
08/29/2014  04:19:00     -135.006      -40.222       -6.728       32.075       17.122       14.294     1028.825      293.151      204.329        1.071        0.076      140.871       11.678        0.007      342.772       18.415      862.338
08/29/2014  04:20:00      -69.475      -23.772        0.880       43.961       23.320       15.389     1932.584      543.811      236.821        0.405        0.136       73.430       20.485        0.078      342.741       18.363      862.342
08/29/2014  04:21:00      -79.373      -27.117       -7.482       34.653       20.046       15.254     1200.858      401.842      232.675        0.446        0.092       83.877       14.736        0.031      342.723       18.333      862.359
08/29/2014  04:22:00      -99.097      -36.971       -4.016       25.519       19.252       14.552      651.206      370.647      211.771        0.622        0.062      105.769       13.664        0.017      342.661       18.227      862.367
08/29/2014  04:23:00     -106.592      -32.068       -7.893       23.012       24.164       11.677      529.530      583.879      136.342        0.685        0.062      111.311        9.642        0.008      342.648       18.204      862.362
08/29/2014  04:24:00      -58.741      -16.492        2.346       42.653       23.987       21.726     1819.312      575.374      472.007        0.330        0.143       61.012       14.694        0.058      342.567       18.067      862.369
08/29/2014  04:25:00      -22.581      -48.572       -2.322       18.991       16.776       10.846      360.670      281.431      117.635        0.182        0.038       53.565        6.361        0.014      342.802       18.467      862.366
08/29/2014  04:26:00     -110.860      -20.423       -9.624       31.903       23.141       16.863     1017.791      535.490      284.371        0.732        0.092      112.726       18.816        0.028      342.629       18.172      862.370
08/29/2014  04:27:00      -90.378      -24.918       -2.245       40.796       30.118       21.642     1664.298      907.109      468.356        0.592        0.152       93.750       23.990        0.065      342.555       18.047      862.381
08/29/2014  04:28:00      -83.953      -62.343       -3.047       22.063       24.114       13.652      486.773      581.464      186.377        0.610        0.063      104.569       10.905        0.011      342.889       18.615      862.378
08/29/2014  04:29:00      -61.091      -12.877        0.093       23.991       24.767       14.117      575.578      613.423      199.304        0.264        0.069       62.433       11.951        0.037      342.778       18.425      862.375
08/29/2014  04:30:00      -82.162       -2.335       -0.909       38.221       23.226       20.362     1460.824      539.462      414.609        0.459        0.121       82.195       19.793        0.058      342.504       17.960      862.363
08/29/2014  04:31:00      -37.120      -30.297       -0.623       26.437       17.286       11.542      698.937      298.809      133.220        0.171        0.057       47.915       11.325        0.056      342.579       18.088      862.355
08/29/2014  04:32:00      -46.866      -21.417        2.757       40.316       22.487       14.640     1625.371      505.643      214.338        0.250        0.117       51.527       17.090        0.110      342.729       18.342      862.340
08/29/2014  04:33:00      -25.281      -35.560       -2.050       17.353       12.133        9.077      301.118      147.202       82.400        0.122        0.027       43.631        6.814        0.024      343.013       18.825      862.318
08/29/2014  04:34:00      -54.593      -28.093       -0.966       21.980       21.929       13.269      483.115      480.893      176.071        0.246        0.057       61.397        9.788        0.025      342.974       18.760      862.300
08/29/2014  04:35:00      -82.512        5.723       -5.125       25.595       26.512       16.759      655.099      702.870      280.864        0.425        0.082       82.710       12.473        0.023      342.615       18.150      862.290
08/29/2014  04:36:00      -86.665        4.623      -12.468       31.884       19.446       11.228     1016.587      378.161      126.057        0.460        0.076       86.788       11.524        0.018      342.521       17.987      862.303
08/29/2014  04:37:00      -95.659      -47.406       -5.006       28.596       34.972       16.704      817.743     1223.062      279.026        0.687        0.116      106.761       10.925        0.010      342.447       17.862      862.319
08/29/2014  04:38:00      -69.130      -20.100       -2.053       42.923       23.468       19.005     1842.397      550.744      361.178        0.397        0.138       71.993       22.319        0.096      342.418       17.812      862.327
08/29/2014  04:39:00      -73.773       -7.952       -0.837       30.735       20.402       17.324      944.665      416.257      300.125        0.358        0.083       74.200       18.281        0.061      342.389       17.766      862.342
08/29/2014  04:40:00      -95.566       -8.238       -3.096       38.550       35.969       26.655     1486.096     1293.743      710.493        0.635        0.175       95.920       24.530        0.065      342.318       17.645      862.371
08/29/2014  04:41:00      -95.240      -21.379      -10.939       46.018       34.080       17.339     2117.702     1161.423      300.635        0.661        0.179       97.610       19.289        0.039      342.343       17.685      862.390
08/29/2014  04:42:00      -52.501      -26.028       -4.109       26.264       23.181       13.641      689.793      537.367      186.085        0.243        0.071       58.599       10.305        0.031      342.274       17.569      862.389
08/29/2014  04:43:00      -60.579      -39.253       -4.990       26.758       19.945       16.155      716.008      397.786      260.997        0.330        0.069       72.184       13.226        0.034      342.386       17.758      862.374
08/29/2014  04:44:00      -64.619      -38.627       -2.190       40.038       23.401       17.049     1603.064      547.591      290.667        0.406        0.122       75.284       20.849        0.077      342.412       17.803      862.378
08/29/2014  04:45:00     -131.176       19.171      -13.564       53.474       35.321       18.358     2859.458     1247.554      337.017        1.110        0.222      132.570       20.988        0.025      342.309       17.627      862.397
08/29/2014  04:46:00     -112.049      -28.986       -2.701       29.051       47.129       20.977      843.939     2221.126      440.022        0.845        0.175      115.737       16.033        0.019      342.175       17.401      862.401
08/29/2014  04:47:00     -118.162      -31.270       -8.198       38.300       32.603       21.810     1466.880     1062.948      475.695        0.901        0.150      122.230       14.972        0.015      342.181       17.412      862.403
08/29/2014  04:48:00      -74.306      -34.553      -12.336       19.158       21.447       14.100      367.047      459.955      198.799        0.395        0.051       81.947       10.406        0.016      342.241       17.513      862.412
08/29/2014  04:49:00      -10.829       -9.250       -5.726       13.611       13.995        8.867      185.266      195.859       78.620        0.035        0.023       14.242        6.806        0.228      342.301       17.616      862.409
08/29/2014  04:50:00      -32.235       -0.025      -10.166       12.725        8.264        9.652      161.918       68.301       93.164        0.073        0.016       32.235        4.321        0.018      342.348       17.693      862.395
08/29/2014  04:51:00        0.504       -8.652        1.137       10.483       20.474       10.986      109.891      419.198      120.697        0.036        0.032        8.667        9.447        1.188      342.452       17.874      862.407
08/29/2014  04:52:00       -8.345      -44.072       -7.419       11.498       16.994       13.583      132.197      288.786      184.491        0.134        0.030       44.855       12.531        0.078      342.348       17.695      862.411
08/29/2014  04:53:00      -30.561      -36.796        5.743       26.247       16.240       17.426      688.907      263.735      303.678        0.179        0.063       47.832       12.106        0.064      342.363       17.721      862.396
08/29/2014  04:54:00      -45.425      -26.747       -1.646       25.477       15.599       17.431      649.100      243.339      303.853        0.199        0.060       52.714       15.978        0.092      342.347       17.695      862.382
08/29/2014  04:55:00      -39.757      -28.996       -2.429       29.598       16.409       11.911      876.067      269.251      141.879        0.186        0.064       49.207       12.699        0.067      342.387       17.761      862.386
08/29/2014  04:56:00      -74.813      -39.952       -9.408       11.340       13.472        9.981      128.584      181.506       99.621        0.385        0.020       84.813        5.247        0.004      342.446       17.860      862.403
08/29/2014  04:57:00     -104.441      -46.786       -6.822       17.588       21.931       11.181      309.343      480.987      125.023        0.703        0.046      114.442        7.594        0.004      342.434       17.841      862.421
08/29/2014  04:58:00     -105.845      -34.407       -4.771       31.881       22.731       15.238     1016.397      516.686      232.191        0.709        0.088      111.297       16.050        0.021      342.388       17.762      862.442
08/29/2014  04:59:00     -143.705      -55.184       -6.261       37.787       23.329       17.536     1427.885      544.239      307.509        1.301        0.114      153.936       17.446        0.013      342.350       17.698      862.459
08/29/2014  05:00:00     -141.422      -47.578       -7.884       32.427       31.894       19.076     1051.522     1017.205      363.896        1.238        0.122      149.211       15.451        0.011      342.162       17.380      862.475
08/29/2014  05:01:00     -126.612        1.760       -5.161       52.544       37.797       24.221     2760.894     1428.619      586.662        1.042        0.239      126.624       21.154        0.028      342.133       17.331      862.489
08/29/2014  05:02:00     -105.056      -11.862       -1.780       42.655       35.746       23.814     1819.434     1277.786      567.096        0.742        0.183      105.723       22.964        0.047      342.118       17.303      862.491
08/29/2014  05:03:00     -106.123      -40.494       -0.149       46.552       35.531       18.030     2167.043     1262.476      325.087        0.833        0.188      113.586       18.555        0.027      342.144       17.348      862.496
08/29/2014  05:04:00     -130.791      -35.271      -10.800       27.269       25.134       15.782      743.605      631.698      249.075        1.005        0.081      135.463       11.695        0.007      342.164       17.382      862.503
08/29/2014  05:05:00     -144.666      -36.631      -10.938       30.130       21.636       19.219      907.828      468.104      369.355        1.207        0.087      149.232       19.027        0.016      342.248       17.525      862.500
08/29/2014  05:06:00     -138.424      -52.819       -8.538       25.870       27.735       19.761      669.243      769.235      390.514        1.193        0.091      148.159       16.524        0.012      342.336       17.674      862.486
08/29/2014  05:07:00     -132.592      -62.158       -6.616       33.232       26.140       16.608     1104.336      683.314      275.813        1.178        0.103      146.439       12.351        0.007      342.532       18.007      862.473
08/29/2014  05:08:00     -112.857      -47.501        5.264       36.154       36.326       25.025     1307.097     1319.607      626.232        0.914        0.163      122.446       19.792        0.026      342.505       17.962      862.477
08/29/2014  05:09:00     -129.562      -39.128       -3.174       32.211       31.387       17.670     1037.540      985.114      312.240        1.033        0.117      135.342       12.543        0.009      342.566       18.066      862.479
08/29/2014  05:10:00     -101.498      -19.467       -4.978       33.233       28.684       18.534     1104.453      822.772      343.512        0.649        0.114      103.348       14.327        0.019      342.545       18.030      862.465
08/29/2014  05:11:00      -94.997      -22.043       -3.419       26.099       19.812       14.627      681.178      392.527      213.954        0.540        0.064       97.521       10.883        0.012      342.617       18.151      862.446
08/29/2014  05:12:00     -107.614      -11.456       -9.068       31.622       29.889       21.831      999.980      893.338      476.579        0.708        0.118      108.222       18.516        0.029      342.708       18.307      862.442
08/29/2014  05:13:00      -93.772       -4.373      -10.783       52.439       33.712       25.393     2749.824     1136.493      644.795        0.673        0.227       93.874       20.087        0.046      342.964       18.741      862.450
08/29/2014  05:14:00      -97.079      -15.217       -7.083       52.684       29.330       20.839     2775.646      860.272      434.272        0.689        0.204       98.264       22.001        0.050      343.040       18.872      862.443
08/29/2014  05:15:00      -80.545       31.286      -17.870       49.642       66.927       26.381     2464.373     4479.251      695.982        0.771        0.382       86.408       29.991        0.120      343.189       19.125      862.443
08/29/2014  05:16:00      -82.645        7.475      -20.925       32.385       39.446       25.576     1048.797     1556.009      654.128        0.529        0.163       82.982       19.386        0.055      343.200       19.143      862.441
08/29/2014  05:17:00      -96.980      -33.609      -14.134       30.927       29.132       16.780      956.478      848.684      281.553        0.641        0.104      102.639       12.854        0.016      342.905       18.642      862.441
08/29/2014  05:18:00     -105.176      -31.311       -3.044       15.479       16.582       10.882      239.592      274.979      118.427        0.634        0.032      109.738        8.295        0.006      342.531       18.007      862.435
08/29/2014  05:19:00      -99.576      -22.062      -15.914       17.861       12.869       11.158      319.010      165.611      124.495        0.563        0.030      101.991        6.250        0.004      342.693       18.281      862.430
08/29/2014  05:20:00      -80.584      -69.205       -5.963       16.468       24.301       12.590      271.183      590.524      158.497        0.617        0.051      106.222       13.838        0.017      343.228       19.192      862.430
08/29/2014  05:21:00      -20.504      -77.910       -8.165       50.970       30.146       16.742     2597.907      908.775      280.283        0.517        0.189       80.563       14.124        0.031      343.662       19.930      862.440
08/29/2014  05:22:00        1.077      -38.494       -3.716       17.747       16.289       13.080      314.957      265.319      171.099        0.112        0.038       38.509        8.205        0.045      343.627       19.872      862.437
08/29/2014  05:23:00      -24.999      110.912      -23.028       19.456       50.734       14.984      378.545     2573.977      224.532        0.832        0.159      113.694        9.570        0.007      343.634       19.883      862.425
08/29/2014  05:24:00      -21.074      129.938      -15.828       45.804       38.480       26.540     2098.040     1480.714      704.356        1.093        0.214      131.636       12.711        0.009      343.513       19.676      862.412
08/29/2014  05:25:00       12.601       85.333      -12.881       31.977       26.470       19.528     1022.528      700.671      381.362        0.486        0.105       86.258       17.106        0.039      343.367       19.428      862.398
08/29/2014  05:26:00       -2.242      106.912      -17.945       33.358       27.057       17.367     1112.769      732.056      301.625        0.695        0.107      106.936       15.998        0.022      343.463       19.593      862.407
08/29/2014  05:27:00      -24.577       50.883        0.266       22.175       51.611       14.684      491.738     2663.693      215.626        0.328        0.169       56.508       20.048        0.126      343.403       19.488      862.410
08/29/2014  05:28:00      -48.583      -14.553       -5.203       16.810       12.890       13.457      282.564      166.140      181.100        0.161        0.031       50.716       10.339        0.042      343.057       18.901      862.411
08/29/2014  05:29:00      -39.311       -9.261      -13.109       15.591       15.010       15.750      243.090      225.286      248.061        0.126        0.036       40.387       10.133        0.063      343.058       18.904      862.404
08/29/2014  05:30:00      -40.728      -39.686       -4.556       31.637       19.092        8.826     1000.891      364.488       77.903        0.235        0.072       56.866        6.366        0.013      343.110       18.990      862.398
08/29/2014  05:31:00      -72.632      -54.650       -4.169       24.629       19.354       15.100      606.594      374.566      228.016        0.474        0.060       90.896        8.118        0.008      343.009       18.818      862.386
08/29/2014  05:32:00      -75.571      -66.250        1.127       32.961       32.235       14.829     1086.419     1039.068      219.891        0.622        0.117      100.498       12.568        0.016      343.010       18.820      862.384
08/29/2014  05:33:00      -64.430      -58.731        2.798       39.795       28.787       19.093     1583.607      828.674      364.543        0.519        0.139       87.181       17.735        0.041      342.995       18.795      862.383
08/29/2014  05:34:00      -65.514      -50.606       -6.333       15.416       12.860       11.154      237.642      165.382      124.409        0.371        0.026       82.783        5.658        0.005      343.143       19.047      862.377
08/29/2014  05:35:00      -67.406      -38.045       -9.716       10.541        6.186        6.082      111.107       38.265       36.986        0.314        0.009       77.402        4.136        0.003      343.151       19.061      862.367
08/29/2014  05:36:00      -84.203      -60.326       -8.385       13.812       11.697       10.396      190.759      136.825      108.076        0.562        0.022      103.583        5.040        0.002      343.254       19.236      862.353
08/29/2014  05:37:00      -74.387      -68.992       -6.896       21.438        9.526       11.824      459.602       90.750      139.807        0.552        0.035      101.456        9.906        0.010      343.256       19.241      862.344
08/29/2014  05:38:00      -54.968      -49.848       -4.238       15.065       12.813        8.337      226.945      164.185       69.500        0.299        0.023       74.205        6.458        0.008      343.291       19.299      862.329
08/29/2014  05:39:00      -58.529      -28.533       -9.915       21.091       17.022       13.642      444.813      289.757      186.115        0.263        0.046       65.114       11.106        0.029      343.263       19.252      862.321
08/29/2014  05:40:00      -92.262      -42.023      -11.389       24.298       12.368        9.498      590.371      152.969       90.221        0.562        0.042      101.381        9.713        0.009      342.805       18.472      862.316
08/29/2014  05:41:00     -106.754      -40.366      -11.027       31.106       31.829       16.589      967.590     1013.083      275.209        0.770        0.113      114.131       15.141        0.018      342.621       18.159      862.311
08/29/2014  05:42:00      -75.474      -22.996        3.761       46.468       29.320       19.742     2159.233      859.682      389.733        0.482        0.170       78.900       23.760        0.091      342.509       17.968      862.311
08/29/2014  05:43:00      -60.153      -36.916       -0.921       20.424       21.285       12.064      417.152      453.035      145.547        0.300        0.051       70.578        9.540        0.018      342.489       17.935      862.308
08/29/2014  05:44:00      -74.210      -50.800       -7.538       27.418       18.041       13.930      751.767      325.487      194.037        0.471        0.064       89.932       10.518        0.014      342.537       18.017      862.319
08/29/2014  05:45:00     -124.756      -47.550       -9.865       37.679       34.943       21.395     1419.707     1221.012      457.753        1.051        0.155      133.511       15.330        0.013      342.466       17.896      862.331
08/29/2014  05:46:00     -145.234      -40.497      -11.461       33.621       35.693       22.824     1130.388     1273.999      520.949        1.289        0.146      150.775       17.636        0.014      342.312       17.634      862.335
08/29/2014  05:47:00     -101.703      -44.903      -10.914       26.725       23.332       15.631      714.249      544.379      244.335        0.699        0.075      111.175       14.435        0.017      342.456       17.877      862.330
08/29/2014  05:48:00      -94.781      -34.244       -7.613       17.451       12.542       10.221      304.526      157.303      104.466        0.539        0.028      100.778        7.500        0.006      342.691       18.278      862.321
08/29/2014  05:49:00      -77.927      -37.878       -8.385       10.285       15.089       10.855      105.781      227.686      117.824        0.401        0.023       86.645        8.374        0.009      342.710       18.309      862.316
08/29/2014  05:50:00      -84.625      -35.697      -10.798       10.625       10.624        7.823      112.889      112.876       61.205        0.442        0.014       91.846        1.746        0.000      342.720       18.327      862.325
08/29/2014  05:51:00      -64.469      -29.932      -10.915       12.673        9.684        9.322      160.605       93.771       86.899        0.276        0.017       71.079        5.852        0.007      342.803       18.469      862.318
08/29/2014  05:52:00      -33.932      -31.976       -1.321       20.100       10.112       10.185      404.025      102.246      103.725        0.139        0.030       46.625        8.658        0.034      342.705       18.302      862.310
08/29/2014  05:53:00      -34.581      -23.208        2.325       19.644       13.291       11.377      385.876      176.639      129.427        0.122        0.035       41.647        8.993        0.047      342.574       18.078      862.312
08/29/2014  05:54:00      -49.824      -31.863       -3.952        8.323       11.749        9.857       69.265      138.032       97.153        0.191        0.015       59.141        7.870        0.018      342.619       18.155      862.316
08/29/2014  05:55:00      -32.582      -41.947       -2.069       15.893       11.593       13.274      252.584      134.399      176.202        0.169        0.028       53.114        7.149        0.018      342.732       18.348      862.325
08/29/2014  05:56:00       -7.483      -24.674       -0.461       19.343       16.538        6.847      374.151      273.505       46.888        0.068        0.035       25.783        6.138        0.057      342.828       18.512      862.345
08/29/2014  05:57:00       31.102       23.669        9.927       15.933       11.173       15.596      253.874      124.842      243.226        0.112        0.031       39.084        4.982        0.016      342.675       18.250      862.367
08/29/2014  05:58:00       15.585       31.577       -1.879       19.234        8.919        9.415      369.932       79.541       88.645        0.089        0.027       35.213        8.101        0.053      342.700       18.293      862.400
08/29/2014  05:59:00      -29.868      -12.216       -3.871       24.094       22.728        8.536      580.508      516.566       72.856        0.111        0.058       32.270        3.436        0.011      342.755       18.386      862.430
08/29/2014  06:00:00      -11.334      -12.225        2.432       26.430       12.021       15.255      698.524      144.504      232.707        0.068        0.054       16.670        2.415        0.021      342.455       17.875      862.460
08/29/2014  06:01:00       -3.821      -32.449       -3.100       16.923       12.851       15.414      286.387      165.148      237.585        0.088        0.034       32.673        9.183        0.079      342.644       18.200      862.465
08/29/2014  06:02:00       -3.075       11.898       24.247       11.908       21.620        9.657      141.811      467.418       93.260        0.072        0.035       12.289        9.212        0.562      342.534       18.013      862.466
08/29/2014  06:03:00       -0.756       13.848       25.969       12.193       22.711       14.826      148.663      515.802      219.802        0.088        0.044       13.868       17.162        1.531      342.434       17.840      862.461
08/29/2014  06:04:00      -24.540      -32.995       -4.416       19.813       11.390        8.053      392.574      129.722       64.843        0.115        0.029       41.120        8.181        0.040      342.649       18.208      862.469
08/29/2014  06:05:00      -79.290      -40.123        0.989       23.369       20.626       17.598      546.115      425.445      309.686        0.459        0.064       88.863       11.696        0.017      342.452       17.871      862.474
08/29/2014  06:06:00      -86.519      -33.006       -5.454       22.999       19.219       13.025      528.946      369.353      169.650        0.484        0.053       92.601        9.784        0.011      342.347       17.692      862.469
08/29/2014  06:07:00      -41.910      -34.537       -1.862       22.744       21.610       12.744      517.303      466.998      162.401        0.205        0.057       54.307        4.524        0.007      342.307       17.623      862.485
08/29/2014  06:08:00      -34.794      -36.748       -4.708       20.390       15.755       11.136      415.763      248.231      124.006        0.169        0.039       50.607        7.304        0.021      342.359       17.713      862.501
08/29/2014  06:09:00      -98.575      -80.253       -3.170       35.458       26.922       23.721     1257.261      724.819      562.673        0.936        0.127      127.113       22.153        0.030      342.516       17.981      862.531
08/29/2014  06:10:00      -81.784      -54.834        5.840       38.342       25.283       22.349     1470.098      639.237      499.464        0.617        0.130       98.466       19.349        0.039      342.490       17.936      862.566
08/29/2014  06:11:00     -121.600      -50.100       -3.597       50.426       29.008       22.571     2542.754      841.439      509.470        1.060        0.195      131.517       25.840        0.039      342.298       17.610      862.606
08/29/2014  06:12:00     -145.861      -53.723      -15.994       23.802       17.469       12.874      566.536      305.159      165.744        1.273        0.052      155.440        9.314        0.004      342.166       17.386      862.631
08/29/2014  06:13:00      -87.601      -40.759      -10.306       20.629       13.534       10.585      425.565      183.182      112.041        0.508        0.036       96.619        9.246        0.009      342.266       17.554      862.640
08/29/2014  06:14:00      -85.926      -48.122      -11.784       18.790       15.579       10.351      353.082      242.706      107.135        0.527        0.035       98.484        8.765        0.008      342.315       17.640      862.650
08/29/2014  06:15:00     -102.203      -29.894      -19.025       17.705       17.853       15.683      313.469      318.729      245.944        0.629        0.044      106.485        4.505        0.002      342.375       17.742      862.659
08/29/2014  06:16:00      -97.319      -26.044      -16.045       16.918       16.768       13.046      286.210      281.155      170.185        0.557        0.037      100.743        9.442        0.009      342.383       17.755      862.679
08/29/2014  06:17:00      -63.500      -32.374      -14.608       16.610       10.145        6.873      275.877      102.927       47.242        0.286        0.021       71.277        3.712        0.003      342.394       17.772      862.696
08/29/2014  06:18:00      -83.270      -31.949       -9.047       15.842       13.454        9.539      250.960      181.016       91.000        0.428        0.026       89.189        7.050        0.006      342.254       17.533      862.720
08/29/2014  06:19:00      -94.881      -42.768      -15.313       14.650       14.797       14.276      214.611      218.965      203.803        0.585        0.032      104.075        8.619        0.007      342.326       17.659      862.740
08/29/2014  06:20:00      -74.213      -29.019      -14.140       22.191       16.676       15.324      492.454      278.105      234.831        0.378        0.050       79.685       10.767        0.018      342.533       18.008      862.762
08/29/2014  06:21:00      -28.426      -21.958        5.834       27.636       24.132       20.542      763.741      582.372      421.984        0.155        0.088       35.919       19.706        0.301      342.432       17.837      862.791
08/29/2014  06:22:00      -37.019       -9.446       -0.434       30.582       28.723       13.776      935.276      825.033      189.789        0.170        0.098       38.205       14.277        0.140      342.404       17.789      862.819
08/29/2014  06:23:00      -24.906       -9.048       -4.238       20.106       32.063       13.682      404.244     1028.015      187.192        0.117        0.081       26.498        9.291        0.123      342.198       17.440      862.844
08/29/2014  06:24:00      -53.654      -27.945       -5.768       23.949       18.356       10.350      573.573      336.938      107.133        0.236        0.051       60.495        3.456        0.003      342.032       17.158      862.855
08/29/2014  06:25:00      -51.951       17.816      -13.276       20.262       31.102       17.830      410.558      967.325      317.913        0.244        0.085       54.921        6.054        0.012      342.238       17.508      862.836
08/29/2014  06:26:00      -74.998       36.955      -10.238       21.497       28.778       25.535      462.128      828.148      652.026        0.452        0.097       83.609       12.508        0.022      342.361       17.717      862.811
08/29/2014  06:27:00      -39.450       17.693       -7.117       27.358       37.169       15.782      748.474     1381.549      249.076        0.215        0.119       43.236       18.384        0.181      342.323       17.652      862.788
08/29/2014  06:28:00        7.311      -19.689       -0.695       10.506       18.751        9.494      110.377      351.587       90.133        0.050        0.028       21.002        5.377        0.066      342.173       17.399      862.758
08/29/2014  06:29:00      -21.236      -36.744      -11.320       20.068       15.675       10.854      402.706      245.692      117.803        0.135        0.038       42.439       10.951        0.067      342.224       17.485      862.735
08/29/2014  06:30:00      -28.727      -34.547       -0.414       24.187       19.653       15.445      585.021      386.248      238.556        0.161        0.060       44.930       10.654        0.056      342.135       17.332      862.726
08/29/2014  06:31:00      -61.738      -31.772       -3.870       21.090       21.471       11.996      444.794      460.998      143.910        0.294        0.052       69.434        8.316        0.014      341.882       16.904      862.729
08/29/2014  06:32:00      -23.588      -18.489       -7.705       10.152       10.513        8.483      103.065      110.517       71.958        0.062        0.014       29.971        3.355        0.013      341.948       17.014      862.729
08/29/2014  06:33:00      -38.356      -24.007       -9.139       22.122        8.098        8.996      489.378       65.574       80.936        0.138        0.032       45.249        6.863        0.023      342.054       17.197      862.741
08/29/2014  06:34:00      -66.819      -31.611      -10.665       22.825       23.088       13.172      520.962      533.049      173.510        0.340        0.061       73.919        6.886        0.009      341.986       17.079      862.752
08/29/2014  06:35:00      -90.702      -36.761       -8.651       12.056        9.200       10.125      145.339       84.643      102.519        0.499        0.017       97.868        6.702        0.005      341.769       16.711      862.762
08/29/2014  06:36:00      -81.085      -35.629      -12.345       34.032       23.350       15.182     1158.173      545.217      230.487        0.496        0.097       88.568        7.066        0.006      341.878       16.897      862.757
08/29/2014  06:37:00      -94.495      -31.258      -17.165       21.443       16.698       11.756      459.810      278.832      138.202        0.554        0.044       99.531        9.741        0.010      341.792       16.751      862.753
08/29/2014  06:38:00      -73.927      -32.077      -22.878       16.660       11.620        8.300      277.547      135.022       68.894        0.375        0.024       80.586        4.067        0.003      341.766       16.706      862.756
08/29/2014  06:39:00      -69.120      -53.135      -19.401       15.903       14.652       10.486      252.903      214.670      109.954        0.428        0.029       87.183        7.120        0.007      341.767       16.709      862.768
08/29/2014  06:40:00      -86.502      -52.186      -20.218       22.356       15.114       10.311      499.791      228.440      106.319        0.572        0.042      101.024        8.922        0.008      341.683       16.566      862.786
08/29/2014  06:41:00     -112.219      -53.691      -21.293       18.070       14.931       12.458      326.508      222.938      155.208        0.832        0.035      124.402        9.025        0.005      341.652       16.515      862.813
08/29/2014  06:42:00     -106.598      -43.532      -16.946       13.081       12.924       11.192      171.125      167.043      125.257        0.700        0.023      115.144        8.997        0.006      341.699       16.592      862.842
08/29/2014  06:43:00     -110.101      -41.928      -10.435       12.830       15.124       12.573      164.597      228.727      158.092        0.727        0.028      117.814        9.764        0.007      341.735       16.654      862.868
08/29/2014  06:44:00     -101.162      -64.175       -4.814       28.996       20.433       14.654      840.757      417.524      214.738        0.792        0.074      119.800       13.431        0.013      341.812       16.785      862.889
08/29/2014  06:45:00      -83.086      -64.999        2.110       37.636       23.691       20.542     1416.443      561.249      421.975        0.677        0.120      105.490       18.252        0.030      341.860       16.865      862.906
08/29/2014  06:46:00     -111.610      -56.864       -2.746       36.986       22.144       15.147     1367.948      490.369      229.424        0.889        0.104      125.261       17.718        0.020      342.038       17.167      862.918
08/29/2014  06:47:00      -97.174      -42.996      -13.158       17.771       16.625       14.188      315.826      276.383      201.285        0.613        0.040      106.261        5.769        0.003      342.014       17.127      862.929
08/29/2014  06:48:00     -122.694      -22.321      -18.499       17.916       18.890       15.708      320.966      356.842      246.746        0.841        0.046      124.708        6.343        0.003      342.175       17.402      862.950
08/29/2014  06:49:00     -145.816      -22.252      -19.215       24.943       21.380       16.948      622.132      457.114      287.221        1.175        0.068      147.504       12.346        0.007      341.921       16.967      862.972
08/29/2014  06:50:00     -129.841      -46.928      -11.639       24.608       19.079       11.217      605.552      364.002      125.810        1.015        0.055      138.062       11.472        0.007      341.985       17.077      862.991
08/29/2014  06:51:00      -61.222      -45.457        0.478       20.258       15.383       10.636      410.393      236.639      113.122        0.329        0.038       76.252        6.463        0.007      341.967       17.047      863.002
08/29/2014  06:52:00      -96.016      -53.844       -5.846       14.364       14.667       10.827      206.326      215.117      117.233        0.635        0.027      110.083        5.567        0.003      341.961       17.038      863.015
08/29/2014  06:53:00      -98.891      -45.958       -7.876       10.479       13.387        7.947      109.802      179.204       63.162        0.615        0.018      109.049        6.096        0.003      341.880       16.900      863.014
08/29/2014  06:54:00     -100.883      -40.960      -13.493       11.835       12.966        9.275      140.067      168.112       86.032        0.622        0.020      108.882        2.703        0.001      341.943       17.008      863.016
08/29/2014  06:55:00      -93.495      -57.858       -9.269       18.632       12.493       13.218      347.135      156.080      174.705        0.643        0.034      109.950        6.469        0.003      342.000       17.103      863.007
08/29/2014  06:56:00      -80.200      -71.712       -1.876       29.820       25.871       16.438      889.259      669.290      270.217        0.670        0.091      107.586       14.556        0.018      342.043       17.175      863.005
08/29/2014  06:57:00      -39.906      -52.272        5.025       46.213       23.514       19.449     2135.642      552.929      378.245        0.371        0.153       65.764       22.812        0.120      342.125       17.314      862.997
08/29/2014  06:58:00      -80.184      -66.588        1.203       43.272       39.453       26.894     1872.467     1556.518      723.313        0.751        0.208      104.228       23.210        0.050      342.087       17.252      862.991
08/29/2014  06:59:00      -27.655      -59.687        1.903       24.787       41.154       18.595      614.389     1693.684      345.775        0.349        0.133       65.782       16.297        0.061      342.146       17.353      862.972
08/29/2014  07:00:00      -61.008      -74.731       -4.984       26.975       36.881       16.963      727.660     1360.198      287.727        0.585        0.119       96.471       14.678        0.023      342.131       17.325      862.951
08/29/2014  07:01:00      -62.163      -87.181       -3.786       41.011       44.199       24.638     1681.914     1953.541      607.013        0.786        0.212      107.074       17.948        0.028      342.125       17.317      862.939
08/29/2014  07:02:00      -94.502      -77.681        6.627       55.262       35.982       31.889     3053.864     1294.724     1016.930        1.019        0.268      122.331       29.570        0.058      342.170       17.391      862.929
08/29/2014  07:03:00      -97.364      -56.587        4.048       41.600       39.686       27.500     1730.535     1575.002      756.266        0.838        0.203      112.614       25.066        0.050      342.244       17.519      862.933
08/29/2014  07:04:00      -84.637      -70.504        3.659       46.472       39.210       25.864     2159.640     1537.461      668.949        0.826        0.218      110.156       21.181        0.037      342.292       17.600      862.946
08/29/2014  07:05:00      -79.359     -104.099       -7.746       22.939       36.729       17.917      526.195     1349.003      321.004        0.969        0.110      130.898       10.234        0.006      342.337       17.675      862.960
08/29/2014  07:06:00      -67.294      -59.501        8.196       54.030       31.379       21.212     2919.221      984.652      449.949        0.624        0.218       89.827       26.597        0.088      342.446       17.861      862.956
08/29/2014  07:07:00      -49.350      -24.922        1.495       32.228       23.904       14.823     1038.646      571.392      219.707        0.244        0.091       55.286        9.146        0.027      342.436       17.845      862.949
08/29/2014  07:08:00      -53.682      -56.004       -0.425       21.676       34.613       17.024      469.833     1198.038      289.816        0.399        0.098       77.578       13.382        0.030      342.440       17.852      862.947
08/29/2014  07:09:00      -90.669      -61.782       -4.426       30.318       18.276       15.785      919.173      334.002      249.153        0.678        0.075      109.717       16.613        0.023      342.425       17.826      862.953
08/29/2014  07:10:00      -66.999      -63.378       -5.321       36.156       26.816       16.801     1307.225      719.091      282.270        0.542        0.115       92.226       18.197        0.039      342.474       17.909      862.961
08/29/2014  07:11:00      -39.364      -58.870       -0.103       33.586       24.348       19.509     1128.030      592.828      380.592        0.356        0.105       70.819       19.924        0.079      342.472       17.906      862.961
08/29/2014  07:12:00      -28.728      -74.175        6.834       28.434       27.695       20.712      808.485      766.987      428.998        0.419        0.100       79.544       19.937        0.063      342.491       17.938      862.947
08/29/2014  07:13:00      -64.230      -54.662       -3.915       29.547       22.446       18.738      873.020      503.801      351.103        0.443        0.086       84.341       10.859        0.017      342.515       17.977      862.924
08/29/2014  07:14:00      -38.451      -36.257        2.120       21.324       13.732       14.842      454.723      188.571      220.272        0.183        0.043       52.849        9.860        0.035      342.545       18.029      862.902
08/29/2014  07:15:00       -5.390      -44.411        4.181       16.610       20.116       11.846      275.902      404.635      140.326        0.142        0.041       44.737        5.257        0.014      342.577       18.083      862.883
08/29/2014  07:16:00        6.690      -37.881        5.740       18.302       18.216       10.912      334.946      331.808      119.063        0.115        0.039       38.467        5.310        0.019      342.692       18.281      862.869
08/29/2014  07:17:00      -53.699      -26.816        9.917       35.430       20.693       16.888     1255.268      428.184      285.200        0.283        0.098       60.022       13.319        0.049      342.584       18.095      862.863
08/29/2014  07:18:00      -47.852      -46.192       -7.015       24.437       15.673       10.171      597.149      245.641      103.454        0.271        0.047       66.510        5.994        0.008      342.546       18.029      862.863
08/29/2014  07:19:00      -41.306      -45.868      -10.200       25.062       12.215       12.238      628.106      149.211      149.780        0.242        0.046       61.726        6.327        0.011      342.620       18.158      862.865
08/29/2014  07:20:00      -35.762      -54.002       -8.359       26.382       24.303       15.207      695.991      590.629      231.241        0.289        0.076       64.770       13.080        0.041      342.631       18.175      862.873
08/29/2014  07:21:00      -52.960      -57.318        0.674       45.033       25.348       22.555     2028.001      642.544      508.750        0.463        0.159       78.039       24.547        0.099      342.560       18.055      862.893
08/29/2014  07:22:00      -78.143      -60.833        2.228       53.962       40.473       23.119     2911.920     1638.044      534.507        0.745        0.254       99.030       26.968        0.074      342.583       18.095      862.908
08/29/2014  07:23:00      -76.302      -69.945        7.081       52.134       39.421       19.967     2717.960     1554.032      398.663        0.772        0.234      103.510       18.376        0.032      342.635       18.183      862.928
08/29/2014  07:24:00      -90.977      -70.185       -2.132       36.419       33.234       21.130     1326.374     1104.472      446.493        0.804        0.144      114.903       13.168        0.013      342.622       18.160      862.937
08/29/2014  07:25:00     -129.248      -45.105      -10.532       20.898       30.357       17.150      436.728      921.552      294.111        1.025        0.083      136.892       10.090        0.005      342.664       18.233      862.943
08/29/2014  07:26:00     -121.249      -31.140      -16.584       31.149       28.304       19.511      970.277      801.141      380.697        0.905        0.108      125.184       13.999        0.013      342.670       18.241      862.955
08/29/2014  07:27:00     -127.027      -17.008      -13.669       37.557       23.632       25.022     1410.516      558.467      626.081        0.960        0.130      128.160       16.669        0.017      342.753       18.383      862.976
08/29/2014  07:28:00     -105.002      -26.849      -11.031       32.651       27.049       18.163     1066.097      731.672      329.881        0.700        0.106      108.380       15.493        0.020      342.683       18.264      862.984
08/29/2014  07:29:00     -103.067      -16.056       -7.083       49.208       33.684       25.531     2421.431     1134.578      651.843        0.757        0.210      104.310       28.566        0.075      342.649       18.207      862.984
08/29/2014  07:30:00     -116.667      -43.893      -10.793       24.935       43.750       20.189      621.736     1914.100      407.596        0.930        0.147      124.651       10.244        0.007      342.651       18.209      862.992
08/29/2014  07:31:00     -105.287      -61.244        0.497       34.072       26.697       19.164     1160.919      712.718      367.249        0.854        0.112      121.804       18.220        0.022      342.659       18.221      863.008
08/29/2014  07:32:00     -100.097      -28.810        1.892       46.715       28.488       18.367     2182.322      811.594      337.329        0.709        0.167      104.161       18.583        0.032      342.686       18.268      863.021
08/29/2014  07:33:00      -54.683      -64.156       11.014       52.716       36.742       25.743     2778.990     1349.982      662.714        0.601        0.240       84.298       28.901        0.118      342.801       18.463      863.031
08/29/2014  07:34:00      -73.693      -73.844        5.594       43.064       31.531       24.464     1854.481      994.205      598.499        0.718        0.172      104.324       26.091        0.063      342.826       18.508      863.050
08/29/2014  07:35:00      -78.662      -76.248        1.582       55.791       34.155       26.510     3112.687     1166.534      702.795        0.849        0.249      109.551       22.938        0.044      342.914       18.657      863.082
08/29/2014  07:36:00      -88.600      -87.349        0.746       54.500       34.613       30.619     2970.250     1198.092      937.552        1.029        0.255      124.418       27.149        0.048      342.868       18.580      863.108
08/29/2014  07:37:00      -71.484      -59.861       -0.448       64.802       44.648       29.064     4199.355     1993.425      844.689        0.786        0.352       93.237       34.962        0.141      342.839       18.529      863.142
08/29/2014  07:38:00      -97.657      -76.674       -7.038       43.377       31.747       22.346     1881.580     1007.851      499.345        0.943        0.169      124.160       25.728        0.043      342.825       18.503      863.162
08/29/2014  07:39:00      -85.722      -42.283        1.758       38.747       41.516       21.987     1501.362     1723.572      483.439        0.642        0.185       95.583       20.375        0.045      342.782       18.432      863.172
08/29/2014  07:40:00      -90.585      -54.500       -1.317       42.712       27.806       17.256     1824.317      773.196      297.760        0.704        0.145      105.716       17.018        0.026      342.846       18.542      863.159
08/29/2014  07:41:00      -95.108      -24.463       -1.417       39.787       32.936       22.558     1583.015     1084.767      508.847        0.641        0.159       98.203       22.454        0.052      342.804       18.470      863.151
08/29/2014  07:42:00      -87.970      -15.024       -4.801       41.075       23.827       19.424     1687.194      567.749      377.309        0.531        0.132       89.244       21.614        0.059      342.871       18.582      863.136
08/29/2014  07:43:00      -88.182      -20.635        3.182       41.687       29.223       23.348     1737.785      854.011      545.120        0.567        0.157       90.565       20.995        0.054      342.827       18.509      863.116
08/29/2014  07:44:00      -80.510      -32.235        0.588       26.245       26.223       19.682      688.808      687.652      387.366        0.464        0.088       86.723       13.166        0.023      342.751       18.378      863.105
08/29/2014  07:45:00      -73.438      -33.330        5.508       33.937       24.003       17.410     1151.752      576.124      303.096        0.428        0.102       80.647       16.333        0.041      342.826       18.507      863.081
08/29/2014  07:46:00      -55.038      -41.236       -0.231       25.901       15.392       12.095      670.871      236.909      146.288        0.289        0.053       68.772        8.654        0.016      342.849       18.545      863.052
08/29/2014  07:47:00      -26.715      -31.556        3.881       13.649       18.263       11.683      186.294      333.545      136.500        0.119        0.033       41.346        5.121        0.015      342.902       18.637      863.037
08/29/2014  07:48:00      -21.844      -68.256        2.054       10.752       16.525       12.058      115.596      273.063      145.390        0.284        0.027       71.666        8.059        0.013      342.889       18.613      863.032
08/29/2014  07:49:00      -34.322      -73.411       -2.235       15.662       23.530       15.040      245.298      553.664      226.199        0.380        0.051       81.038       13.359        0.027      342.933       18.690      863.040
08/29/2014  07:50:00      -12.764      -58.317        0.601       12.168       18.091       18.004      148.051      327.269      324.127        0.218        0.040       59.698       10.231        0.029      343.044       18.880      863.036
08/29/2014  07:51:00      -36.621      -63.161       -4.420       30.858       22.095       15.159      952.223      488.190      229.792        0.351        0.084       73.010       12.885        0.031      343.005       18.811      863.043
08/29/2014  07:52:00      -36.566      -68.553        4.169       26.965       20.333       14.754      727.095      413.440      217.681        0.371        0.068       77.695       15.224        0.038      343.083       18.946      863.031
08/29/2014  07:53:00      -48.638      -93.143       -2.870       18.492       16.264       15.371      341.969      264.529      236.268        0.595        0.042      105.077        4.559        0.002      343.042       18.874      863.027
08/29/2014  07:54:00      -67.907      -66.223      -10.515       16.325       19.847       11.980      266.503      393.919      143.509        0.496        0.040       94.851        4.374        0.002      343.130       19.024      863.005
08/29/2014  07:55:00      -48.062      -35.525      -15.536       17.500       12.216        9.405      306.259      149.240       88.448        0.218        0.027       59.766        5.618        0.009      343.244       19.219      862.998
08/29/2014  07:56:00      -39.068      -35.717       -5.462       22.869       22.285        8.362      523.008      496.626       69.931        0.196        0.054       52.934        5.115        0.009      343.229       19.195      862.993
08/29/2014  07:57:00      -38.450      -25.029        4.412       27.242       21.828       17.226      742.141      476.459      296.738        0.182        0.076       45.879       15.319        0.111      343.292       19.301      862.980
08/29/2014  07:58:00      -23.526      -14.725       20.493       27.066       18.239        8.694      732.579      332.667       75.586        0.117        0.057       27.754       10.238        0.136      343.476       19.614      862.998
08/29/2014  07:59:00       12.689       24.239       15.608       12.433       15.876       12.774      154.582      252.038      163.183        0.078        0.028       27.360        5.316        0.038      343.531       19.708      863.020
08/29/2014  08:00:00       36.731       30.981        2.543       16.878       12.205       14.267      284.851      148.952      203.536        0.148        0.032       48.052        6.886        0.021      343.488       19.634      863.060
08/29/2014  08:01:00       14.862       18.782       -0.888       14.755       12.525       13.679      217.699      156.882      187.115        0.057        0.028       23.951        8.381        0.122      343.641       19.897      863.094
08/29/2014  08:02:00       34.534       21.972       -9.872       15.935       17.156       11.788      253.939      294.315      138.948        0.123        0.034       40.931        4.859        0.014      343.583       19.796      863.119
08/29/2014  08:03:00        0.793      -29.156       14.569       15.819       24.834       20.562      250.242      616.715      422.776        0.118        0.064       29.167        6.452        0.049      343.786       20.143      863.125
08/29/2014  08:04:00        5.469       13.342       37.805       18.955       42.922       29.002      359.282     1842.340      841.144        0.234        0.152       14.420       31.572        4.794      343.816       20.193      863.143
08/29/2014  08:05:00       -0.174       -6.223       42.968       21.188       39.784       24.272      448.924     1582.740      589.144        0.225        0.131        6.226       20.225       10.554      343.970       20.455      863.131
08/29/2014  08:06:00       25.750      -55.711        3.288       32.425       41.605       36.607     1051.392     1730.937     1340.060        0.395        0.206       61.374       25.284        0.170      343.916       20.365      863.132
08/29/2014  08:07:00       35.453      -45.873       -4.053       30.437       41.541       32.526      926.388     1725.681     1057.942        0.354        0.186       57.977       26.945        0.216      343.913       20.360      863.118
08/29/2014  08:08:00       41.528      -38.091       -4.975       50.925       33.343       37.166     2593.309     1111.762     1381.319        0.414        0.254       56.352       33.942        0.363      343.944       20.414      863.097
08/29/2014  08:09:00       42.121      -44.230        7.194       40.584       41.769       36.509     1647.098     1744.629     1332.938        0.425        0.236       61.078       30.270        0.246      343.942       20.410      863.079
08/29/2014  08:10:00       -2.405       -2.902       27.779       27.280       43.191       25.360      744.209     1865.492      643.151        0.202        0.163        3.769       25.592       46.111      344.082       20.648      863.065
08/29/2014  08:11:00       10.237       -6.491       39.887       36.146       34.225       25.220     1306.538     1171.323      636.060        0.243        0.156       12.121       17.176        2.008      344.229       20.900      863.049
08/29/2014  08:12:00       13.640      -44.359       21.522       23.854       42.484       26.440      569.025     1804.866      699.055        0.284        0.154       46.408       21.599        0.217      344.081       20.646      863.029
08/29/2014  08:13:00       17.697       20.433       46.440       32.172       43.227       30.910     1035.046     1868.582      955.445        0.337        0.193       27.032       26.218        0.941      344.331       21.072      863.018
08/29/2014  08:14:00        1.653       32.564       54.264       18.468       29.826       15.515      341.067      889.596      240.722        0.274        0.074       32.606       17.135        0.276      344.295       21.011      863.015
08/29/2014  08:15:00       24.543       42.860       42.340       29.759       24.608       22.347      885.597      605.532      499.366        0.311        0.100       49.390       18.985        0.148      344.016       20.536      863.019
08/29/2014  08:16:00        3.301       14.505       44.773       20.738       20.634       13.017      430.063      425.758      169.436        0.163        0.051       14.876        8.950        0.362      344.461       21.296      863.026
08/29/2014  08:17:00       19.162      -12.962       22.859       27.758       37.460       29.029      770.512     1403.220      842.708        0.204        0.151       23.134       25.268        1.193      344.484       21.335      863.042
08/29/2014  08:18:00        5.343       22.695       50.948       23.717       32.193       23.770      562.477     1036.406      565.027        0.265        0.108       23.316       23.829        1.045      344.309       21.036      863.043
08/29/2014  08:19:00        5.009       16.193       53.267       21.071       30.665       18.743      443.972      940.316      351.296        0.243        0.087       16.950       11.292        0.444      344.538       21.428      863.049
08/29/2014  08:20:00        8.514       25.536       41.995       22.491       30.295       24.785      505.832      917.764      614.283        0.226        0.102       26.918       14.728        0.299      344.475       21.319      863.058
08/29/2014  08:21:00       29.290       19.797       36.062       43.385       31.279       24.835     1882.301      978.352      616.764        0.301        0.174       35.352       13.404        0.144      344.429       21.242      863.060
08/29/2014  08:22:00       57.998       52.935       53.898       52.409       36.450       23.663     2746.705     1328.599      559.921        0.685        0.232       78.523       23.606        0.090      344.086       20.657      863.064
08/29/2014  08:23:00       18.084       19.832       28.958       29.395       46.575       30.728      864.080     2169.230      944.211        0.277        0.199       26.839       36.341        1.833      344.137       20.742      863.087
08/29/2014  08:24:00       -1.077      -43.058       17.885       27.248       23.380       20.684      742.442      546.633      427.828        0.195        0.086       43.072        9.845        0.052      344.262       20.957      863.112
08/29/2014  08:25:00       17.794       16.555       37.608       18.449       22.298       15.995      340.383      497.183      255.841        0.155        0.055       24.304       11.385        0.219      344.425       21.233      863.119
08/29/2014  08:26:00       31.410       33.578       27.398       26.617       18.846       16.956      708.489      355.166      287.522        0.211        0.068       45.979       15.832        0.119      344.254       20.942      863.121
08/29/2014  08:27:00       58.981       45.838        4.583       29.764       21.788       22.864      885.890      474.735      522.775        0.374        0.094       74.699       17.603        0.056      344.175       20.808      863.115
08/29/2014  08:28:00       12.743       17.812       42.714       27.793       42.016       26.886      772.462     1765.352      722.872        0.278        0.163       21.901       27.332        1.557      344.672       21.656      863.105
08/29/2014  08:29:00        9.089       38.220       49.939       25.281       35.826       23.200      639.146     1283.514      538.220        0.325        0.123       39.286       23.414        0.355      344.704       21.710      863.094
08/29/2014  08:30:00       12.806       14.360       36.350       33.693       37.311       27.922     1135.231     1392.144      779.658        0.250        0.165       19.240       28.976        2.268      344.739       21.771      863.075
08/29/2014  08:31:00       18.151      -56.344       22.353       26.107       71.112       34.612      681.591     5056.954     1198.020        0.547        0.347       59.196       43.195        0.532      344.539       21.430      863.041
08/29/2014  08:32:00        1.021       63.250       73.640       20.992       32.168       19.889      440.684     1034.812      395.573        0.565        0.094       63.258       19.276        0.093      344.665       21.645      862.984
08/29/2014  08:33:00       16.393        1.944       37.163       26.254       73.921       30.829      689.299     5464.386      950.424        0.438        0.355       16.508       41.541        6.333      344.716       21.734      862.926
08/29/2014  08:34:00       12.709      -42.335       36.097       30.412       60.001       39.155      924.886     3600.139     1533.106        0.466        0.303       44.201       40.966        0.859      344.884       22.019      862.877
08/29/2014  08:35:00       17.747       30.086       52.610       26.203       28.122       20.571      686.572      790.868      423.163        0.294        0.095       34.930        8.561        0.060      344.925       22.089      862.837
08/29/2014  08:36:00        4.897      -27.224       16.069       27.767       46.813       33.380      771.028     2191.461     1114.229        0.255        0.204       27.661       19.323        0.488      344.863       21.984      862.824
08/29/2014  08:37:00       41.629      -70.538       -2.661       42.568       69.097       32.306     1812.027     4774.401     1043.645        0.717        0.382       81.905       34.760        0.180      344.555       21.458      862.832
08/29/2014  08:38:00        5.031      -18.657       46.153       18.194       53.119       22.151      331.005     2821.661      490.659        0.307        0.182       19.323       29.655        2.355      344.680       21.671      862.855
08/29/2014  08:39:00        5.085      -11.692       10.097       33.297       26.694       24.423     1108.723      712.581      596.460        0.134        0.121       12.750       18.637        2.137      344.788       21.855      862.882
08/29/2014  08:40:00      -23.932      -26.137       -0.845       25.095       16.164       14.489      629.735      261.285      209.931        0.118        0.055       35.439       11.182        0.100      344.540       21.431      862.921
08/29/2014  08:41:00      -17.089      -11.379       23.059       21.919       26.493       14.586      480.430      701.877      212.740        0.117        0.070       20.531        8.786        0.183      344.735       21.766      862.953
08/29/2014  08:42:00       -6.029        1.614       22.977       12.287       19.358       18.399      150.965      374.747      338.515        0.072        0.043        6.241       14.993        5.772      345.275       22.689      862.971
08/29/2014  08:43:00       -9.863       14.681       35.532       10.849       16.315       18.630      117.704      266.195      347.064        0.115        0.037       17.686       10.849        0.376      345.109       22.404      862.972
08/29/2014  08:44:00        1.207       15.371       32.847       24.321       28.074       16.743      591.487      788.175      280.331        0.149        0.083       15.418       19.249        1.559      345.039       22.286      862.978
08/29/2014  08:45:00        8.114      -32.394       16.808       34.868       42.518       22.486     1215.761     1807.741      505.633        0.246        0.176       33.395       21.647        0.420      344.905       22.056      862.976
08/29/2014  08:46:00       13.829      -29.807       26.924       19.915       36.610       23.544      396.599     1340.324      554.312        0.205        0.115       32.859       18.334        0.311      345.041       22.288      862.972
08/29/2014  08:47:00       31.024      -14.158       49.846       35.801       62.873       26.782     1281.720     3952.982      717.278        0.480        0.298       34.102       25.228        0.547      344.917       22.078      862.968
08/29/2014  08:48:00       15.381      -15.457       42.561       31.666       50.826       28.278     1002.715     2583.302      799.620        0.334        0.219       21.806       34.182        2.457      344.968       22.164      862.981
08/29/2014  08:49:00       24.546      -37.413        0.338       16.346       29.947       18.666      267.180      896.824      348.403        0.176        0.076       44.746       13.182        0.087      344.490       21.347      863.007
08/29/2014  08:50:00       -6.985       12.585       11.663       31.415       20.352       26.574      986.932      414.195      706.170        0.122        0.105       14.394       14.396        1.000      344.773       21.830      863.033
08/29/2014  08:51:00       -8.229       38.208       17.362       34.527       30.233       19.685     1192.083      914.057      387.504        0.216        0.125       39.084       19.681        0.254      344.870       21.997      863.051
08/29/2014  08:52:00      -59.004       -9.545        2.672       35.116       38.756       16.235     1233.129     1502.029      263.574        0.329        0.150       59.771       12.483        0.044      344.662       21.639      863.059
08/29/2014  08:53:00      -25.985        5.650        5.384       19.697       13.719       16.287      387.956      188.217      265.256        0.079        0.042       26.592       15.472        0.339      344.944       22.124      863.069
08/29/2014  08:54:00       -0.912        6.488       15.879       21.186        9.408       15.097      448.830       88.506      227.910        0.053        0.038        6.551        9.756        2.218      345.041       22.290      863.067
08/29/2014  08:55:00      -24.251       -9.916        7.283       20.183       21.875       19.263      407.362      478.499      371.080        0.100        0.063       26.200       10.083        0.148      344.864       21.985      863.038
08/29/2014  08:56:00      -18.391      -43.813       -2.534       29.082       24.313       19.633      845.780      591.126      385.455        0.204        0.091       47.516       14.648        0.095      344.681       21.674      863.010
08/29/2014  08:57:00      -12.934      -53.752        7.167       36.318       41.021       20.351     1318.999     1682.700      414.143        0.326        0.171       55.286       10.925        0.039      344.721       21.740      862.974
08/29/2014  08:58:00      -40.523      -16.919       22.459       37.437       29.657       22.153     1401.507      879.545      490.750        0.260        0.139       43.913       22.077        0.253      344.898       22.045      862.944
08/29/2014  08:59:00        8.451       -5.923       51.516       26.960       35.800       29.298      726.844     1281.605      858.349        0.281        0.143       10.319       24.655        5.708      345.322       22.772      862.910
08/29/2014  09:00:00       -6.761       27.211       74.280       21.170       34.035       25.493      448.187     1158.372      649.874        0.428        0.113       28.039       23.647        0.711      345.171       22.510      862.893
08/29/2014  09:01:00       -7.729      -23.819       36.937       23.523       35.280       25.865      553.339     1244.711      668.985        0.223        0.123       25.042       25.445        1.032      345.170       22.509      862.877
08/29/2014  09:02:00      -29.710      -45.187       -6.698       46.775       37.197       19.200     2187.931     1383.648      368.643        0.345        0.197       54.079       14.338        0.070      344.700       21.705      862.884
08/29/2014  09:03:00      -49.558      -27.303        0.190       37.776       33.463       16.847     1427.041     1119.784      283.811        0.302        0.142       56.581        9.051        0.026      344.727       21.752      862.892
08/29/2014  09:04:00       -2.769      -42.845        4.856       24.265       31.529       22.665      588.787      994.054      513.680        0.198        0.105       42.934       16.981        0.156      345.082       22.358      862.911
08/29/2014  09:05:00      -63.436      -24.507       -0.017       42.472       29.439       23.207     1803.894      866.645      538.562        0.392        0.160       68.005       19.057        0.079      344.814       21.899      862.917
08/29/2014  09:06:00      -33.753      -28.667       -7.534       25.661       29.967       13.491      658.510      897.992      182.018        0.188        0.087       44.284       10.376        0.055      344.679       21.670      862.923
08/29/2014  09:07:00      -31.667      -16.446        1.352       25.227       17.766       13.099      636.414      315.636      171.577        0.120        0.056       35.683       13.348        0.140      344.964       22.157      862.925
08/29/2014  09:08:00      -36.749       -4.394       -7.305       38.809       19.678       19.609     1506.120      387.228      384.519        0.185        0.114       37.010       21.384        0.334      344.848       21.958      862.919
08/29/2014  09:09:00      -84.659      -50.177       -4.827       50.831       25.461       22.248     2583.762      648.287      494.991        0.672        0.186       98.412       19.269        0.038      344.655       21.627      862.921
08/29/2014  09:10:00      -98.462      -55.432        4.184       35.776       34.661       21.174     1279.934     1201.385      448.348        0.786        0.146      112.993       19.927        0.031      344.676       21.664      862.921
08/29/2014  09:11:00      -95.271      -61.927        4.043       44.281       32.265       18.854     1960.780     1041.001      355.480        0.814        0.168      113.629       19.639        0.030      344.707       21.716      862.919
08/29/2014  09:12:00      -40.469      -21.868        6.524       34.853       32.861       21.057     1214.729     1079.837      443.397        0.245        0.137       45.999       23.629        0.264      344.998       22.214      862.911
08/29/2014  09:13:00      -25.778      -10.685        9.607       20.566       28.706       19.784      422.953      824.057      391.407        0.125        0.082       27.905       15.321        0.301      345.084       22.362      862.891
08/29/2014  09:14:00      -39.720       -8.171       -1.864       14.866       14.941       10.438      220.992      223.238      108.953        0.110        0.028       40.552        4.825        0.014      344.716       21.730      862.892
08/29/2014  09:15:00      -35.262      -18.492       10.581       29.991       22.364       18.201      899.463      500.156      331.288        0.171        0.087       39.817       14.790        0.138      345.053       22.309      862.895
08/29/2014  09:16:00      -12.140      -24.667        2.749       21.378       18.695       13.823      457.022      349.520      191.076        0.088        0.050       27.492       13.147        0.229      344.987       22.197      862.915
08/29/2014  09:17:00      -30.055      -12.195       15.773       19.725       28.279       23.652      389.067      799.717      559.420        0.152        0.087       32.434       15.610        0.232      345.028       22.267      862.944
08/29/2014  09:18:00       -3.919      -22.562      -13.862       19.496       30.043       13.233      380.107      902.561      175.106        0.109        0.073       22.900        4.580        0.040      344.958       22.148      862.975
08/29/2014  09:19:00       -3.304      -25.686        7.435       22.669       31.231       21.275      513.901      975.356      452.640        0.133        0.097       25.897       20.257        0.612      345.079       22.353      862.995
08/29/2014  09:20:00      -40.898      -23.590        6.743       26.990       22.625       17.660      728.456      511.881      311.890        0.191        0.078       47.214       14.900        0.100      344.914       22.070      863.000
08/29/2014  09:21:00      -14.724       -7.298        9.042       18.350       17.594       17.770      336.741      309.559      315.767        0.066        0.048       16.433       16.362        0.991      345.192       22.548      862.992
08/29/2014  09:22:00      -23.547       11.155        2.929       17.048       10.774        9.306      290.623      116.069       86.594        0.059        0.025       26.056        9.831        0.142      345.031       22.272      862.969
08/29/2014  09:23:00      -14.171       13.150       45.637       14.590       23.299       17.760      212.874      542.854      315.406        0.176        0.054       19.332       13.921        0.519      345.359       22.833      862.939
08/29/2014  09:24:00       -1.981      -11.045       33.291       34.346       40.814       25.325     1179.639     1665.810      641.353        0.236        0.174       11.221       18.034        2.583      345.225       22.604      862.918
08/29/2014  09:25:00       51.384      -86.455       -8.353       35.515       41.816       25.823     1261.300     1748.543      666.853        0.693        0.184      100.572       19.701        0.038      345.086       22.365      862.911
08/29/2014  09:26:00        2.392      -20.975       18.917       20.628       32.803       27.396      425.507     1076.025      750.542        0.153        0.113       21.111       24.387        1.335      345.359       22.834      862.930
08/29/2014  09:27:00      -43.628      -19.736       -1.082       40.493       24.244       20.237     1639.721      587.750      409.524        0.247        0.132       47.884       11.119        0.054      345.097       22.385      862.946
08/29/2014  09:28:00      -52.889      -42.541        4.600       27.075       32.600       17.729      733.065     1062.734      314.325        0.337        0.106       67.875       13.592        0.040      344.971       22.169      862.973
08/29/2014  09:29:00      -43.348      -16.222        0.763       18.411       17.601       16.749      338.978      309.787      280.537        0.154        0.046       46.284       13.981        0.091      345.033       22.276      862.988
08/29/2014  09:30:00      -37.375       -7.576       -1.955       25.058       21.044        9.068      627.904      442.839       82.223        0.131        0.058       38.135        6.814        0.032      344.896       22.040      862.982
08/29/2014  09:31:00      -22.195       15.083       20.885       17.307       17.116       24.852      299.521      292.968      617.603        0.118        0.061       26.835       17.199        0.411      345.198       22.557      862.985
08/29/2014  09:32:00       -1.999       21.939       25.444       22.550       16.745       18.506      508.498      280.393      342.467        0.113        0.057       22.029       16.254        0.544      345.459       23.005      862.999
08/29/2014  09:33:00      -44.540      -17.510       15.283       45.708       34.114       20.862     2089.208     1163.758      435.239        0.311        0.184       47.859       26.067        0.297      345.298       22.728      862.997
08/29/2014  09:34:00      -38.701      -36.213        8.238       38.375       29.646       20.638     1472.675      878.894      425.920        0.283        0.139       53.002       18.160        0.117      345.306       22.743      862.989
08/29/2014  09:35:00       -7.692        1.357       22.272       15.137       24.166       21.958      229.122      583.975      482.173        0.093        0.065        7.811       19.863        6.467      345.609       23.263      862.971
08/29/2014  09:36:00        4.596       45.623       92.528       42.865       35.023       27.133     1837.439     1226.581      736.178        0.723        0.190       45.854       25.624        0.312      345.583       23.218      862.938
08/29/2014  09:37:00       82.915       66.537       43.932       41.476       29.237       46.553     1720.263      854.823     2167.200        0.899        0.237      106.311       33.528        0.099      345.143       22.464      862.935
08/29/2014  09:38:00        2.307       30.152       14.733       21.770       23.046       20.416      473.946      531.119      416.795        0.128        0.071       30.240       15.961        0.279      345.260       22.663      862.964
08/29/2014  09:39:00      -32.402       14.599       13.148       39.368       19.518       15.742     1549.828      380.938      247.817        0.181        0.109       35.539       20.620        0.337      345.621       23.284      862.989
08/29/2014  09:40:00       13.371       -9.278       10.534       26.110       28.096       20.991      681.734      789.386      440.630        0.114        0.096       16.275       19.636        1.456      345.718       23.450      862.992
08/29/2014  09:41:00       -9.877      -38.222       -2.459       27.590       37.423       25.653      761.225     1400.457      658.056        0.219        0.141       39.477       17.850        0.204      345.638       23.311      862.983
08/29/2014  09:42:00      -19.360      -27.700       13.229       40.103       43.879       25.273     1608.235     1925.350      638.700        0.274        0.209       33.795       27.141        0.645      345.624       23.287      862.952
08/29/2014  09:43:00      -27.594        3.768        8.569       16.031       24.482       20.961      256.988      599.384      439.377        0.107        0.065       27.850       11.331        0.166      345.588       23.225      862.912
08/29/2014  09:44:00        9.332      -24.859       44.747       26.230       43.680       26.232      688.011     1907.927      688.096        0.300        0.164       26.553       28.454        1.148      345.721       23.454      862.861
08/29/2014  09:45:00       29.086      -31.667       20.104       51.961       52.070       37.285     2699.895     2711.253     1390.198        0.453        0.340       42.998       29.214        0.462      345.511       23.092      862.808
08/29/2014  09:46:00       94.089      -88.420        4.731       67.718       90.279       70.279     4585.676     8150.246     4939.112        1.718        0.884      129.116       72.963        0.319      345.260       22.662      862.764
08/29/2014  09:47:00      128.807     -151.193      -16.413       68.397       70.119       45.770     4678.090     4916.714     2094.855        2.570        0.584      198.622       47.518        0.057      345.173       22.510      862.742
08/29/2014  09:48:00       97.098     -118.866      -23.055       40.706       61.963       30.627     1656.950     3839.423      938.008        1.526        0.322      153.483       27.241        0.032      345.219       22.593      862.753
08/29/2014  09:49:00       66.915      -48.391        7.214       45.461       48.904       36.906     2066.684     2391.604     1362.063        0.634        0.291       82.579       37.252        0.203      345.357       22.830      862.772
08/29/2014  09:50:00       61.219      -24.006       11.919       42.790       41.533       32.860     1830.949     1724.997     1079.777        0.455        0.232       65.758       27.885        0.180      345.375       22.863      862.799
08/29/2014  09:51:00       63.813      -31.402       16.063       70.100       55.760       37.943     4914.060     3109.137     1439.667        0.739        0.473       71.121       48.813        0.471      345.309       22.746      862.842
08/29/2014  09:52:00        5.241       16.864       39.201       28.267       25.424       18.503      799.046      646.386      342.358        0.182        0.089       17.660       11.027        0.390      345.658       23.347      862.879
08/29/2014  09:53:00        4.276       23.253       54.318       19.165       37.634       22.890      367.311     1416.283      523.942        0.291        0.115       23.643       22.374        0.896      345.668       23.362      862.897
08/29/2014  09:54:00       18.845       36.620       50.061       31.352       37.980       24.517      982.968     1442.473      601.064        0.361        0.151       41.184       14.837        0.130      345.598       23.244      862.910
08/29/2014  09:55:00       12.077      -22.085        6.470       27.667       48.106       26.525      765.453     2314.173      703.581        0.223        0.189       25.171       22.039        0.767      345.450       22.989      862.917
08/29/2014  09:56:00       25.356      -21.159       29.027       33.545       46.600       36.074     1125.241     2171.552     1301.338        0.326        0.230       33.024       35.112        1.130      345.696       23.410      862.915
08/29/2014  09:57:00       30.311      -26.295       35.591       45.355       92.269       47.246     2057.065     8513.642     2232.222        0.784        0.640       40.127       57.026        2.020      345.625       23.289      862.895
08/29/2014  09:58:00       27.100      -51.305        2.008       45.438       55.993       49.938     2064.651     3135.162     2493.832        0.553        0.385       58.022       39.324        0.459      345.510       23.092      862.880
08/29/2014  09:59:00       50.640        6.196       33.932       39.122       30.639       30.428     1530.529      938.722      925.867        0.357        0.170       51.018       18.388        0.130      345.609       23.262      862.860
08/29/2014  10:00:00       21.073      -32.234       20.667       48.556       41.486       35.822     2357.640     1721.085     1283.242        0.364        0.268       38.511       29.542        0.588      345.557       23.173      862.836
08/29/2014  10:01:00       51.159      -81.483       -9.925       43.006       54.780       28.365     1849.498     3000.873      804.557        0.750        0.283       96.212       20.058        0.043      345.442       22.974      862.802
08/29/2014  10:02:00       75.329      -99.876        3.826       53.813       59.413       35.172     2895.816     3529.933     1237.056        1.166        0.383      125.099       42.901        0.118      345.362       22.838      862.790
08/29/2014  10:03:00       18.768      -93.764        7.674       43.200       54.035       36.826     1866.244     2919.736     1356.190        0.767        0.307       95.624       34.274        0.128      345.517       23.103      862.787
08/29/2014  10:04:00       76.614     -103.771      -19.029       29.137       46.372       24.823      848.964     2150.360      616.159        1.031        0.181      128.989       16.724        0.017      345.328       22.780      862.800
08/29/2014  10:05:00       17.609       25.235       35.335       44.335       26.210       27.004     1965.636      686.990      729.214        0.279        0.169       30.772       21.341        0.481      345.538       23.139      862.801
08/29/2014  10:06:00      -11.178       -7.658        6.808       15.945       23.423       16.187      254.255      548.636      262.020        0.065        0.053       13.549       13.970        1.063      345.645       23.323      862.795
08/29/2014  10:07:00       -8.098       -7.154        6.606       16.066       12.396       13.226      258.130      153.662      174.931        0.037        0.029       10.806        3.382        0.098      345.738       23.482      862.794
08/29/2014  10:08:00        7.276      -61.812       -5.044       31.307       28.412       24.111      980.109      807.260      581.337        0.313        0.118       62.239       16.180        0.068      345.570       23.196      862.794
08/29/2014  10:09:00      -15.554      -52.510       -0.472       41.895       35.852       23.085     1755.177     1285.365      532.896        0.329        0.179       54.765        3.649        0.004      345.571       23.197      862.795
08/29/2014  10:10:00      -26.079      -10.746        6.572       35.271       30.078       25.294     1244.057      904.692      639.803        0.181        0.139       28.206       20.559        0.531      345.717       23.448      862.800
08/29/2014  10:11:00       -2.705       -2.328       16.581       11.472       13.804       14.816      131.602      190.547      219.528        0.041        0.027        3.569       10.658        8.919      346.002       23.937      862.801
08/29/2014  10:12:00        1.088       -4.727       19.256       10.939       20.663       17.789      119.660      426.941      316.462        0.063        0.043        4.851       15.691       10.464      346.180       24.241      862.786
08/29/2014  10:13:00       10.049      -28.536        8.222       30.550       29.162       17.731      933.302      850.445      314.398        0.154        0.105       30.254       11.768        0.151      345.778       23.553      862.776
08/29/2014  10:14:00       19.127      -54.537        7.533       31.642       29.878       24.106     1001.221      892.676      581.081        0.294        0.124       57.794       12.745        0.049      345.601       23.247      862.753
08/29/2014  10:15:00       17.124      -19.792       30.572       24.102       37.301       26.964      580.918     1391.396      727.059        0.216        0.135       26.172       13.047        0.249      345.831       23.645      862.731
08/29/2014  10:16:00       25.106       59.410       74.520       42.294       45.988       29.049     1788.807     2114.875      843.852        0.723        0.237       64.497       26.690        0.171      345.724       23.460      862.705
08/29/2014  10:17:00       97.862       86.714       56.765       57.214       39.453       41.363     3273.415     1556.535     1710.867        1.343        0.327      130.752       25.607        0.038      345.527       23.120      862.693
08/29/2014  10:18:00       21.302        5.526       28.729       53.403       55.069       20.332     2851.904     3032.565      413.374        0.380        0.315       22.007       26.481        1.448      345.657       23.344      862.687
08/29/2014  10:19:00       23.244      -18.324       31.930       30.014       48.749       33.347      900.828     2376.452     1112.033        0.314        0.219       29.598       29.316        0.981      345.939       23.827      862.694
08/29/2014  10:20:00       32.414       69.274       71.374       41.143       47.034       31.871     1692.731     2212.210     1015.764        0.793        0.246       76.483       31.234        0.167      345.652       23.336      862.699
08/29/2014  10:21:00       45.584      -33.431       10.382       29.079       53.096       31.717      845.616     2819.202     1005.976        0.399        0.234       56.529       37.785        0.447      345.552       23.163      862.698
08/29/2014  10:22:00       41.674      -85.604       -3.145       33.648       30.895       30.994     1132.183      954.501      960.631        0.606        0.152       95.209       23.570        0.061      345.667       23.362      862.705
08/29/2014  10:23:00       39.702      -84.342        9.031       40.373       47.674       24.451     1629.956     2272.764      597.871        0.664        0.225       93.219       29.543        0.100      345.938       23.826      862.710
08/29/2014  10:24:00       20.625       16.294       44.204       35.813       40.653       21.059     1282.580     1652.687      443.472        0.301        0.169       26.285       20.991        0.638      346.101       24.107      862.725
08/29/2014  10:25:00       27.840      -53.017       -5.290       46.168       43.307       25.815     2131.519     1875.462      666.409        0.414        0.234       59.882       14.466        0.058      345.820       23.624      862.734
08/29/2014  10:26:00       17.570       27.624       25.346       33.515       39.966       23.218     1123.228     1597.259      539.083        0.249        0.163       32.738       10.323        0.099      346.201       24.278      862.735
08/29/2014  10:27:00       45.190      -36.264        8.875       34.526       54.458       31.392     1192.025     2965.669      985.478        0.429        0.257       57.941       33.378        0.332      345.870       23.710      862.741
08/29/2014  10:28:00       27.560      -30.274        5.961       17.903       32.607       18.835      320.502     1063.220      354.769        0.172        0.087       40.939       19.191        0.220      345.655       23.340      862.745
08/29/2014  10:29:00       11.700       23.380       33.509       24.554       15.776       16.048      602.886      248.893      257.544        0.146        0.055       26.144       11.492        0.193      346.052       24.022      862.733
08/29/2014  10:30:00       19.012      -10.438       14.211       37.916       39.249       27.301     1437.607     1540.461      745.337        0.220        0.186       21.689       27.018        1.552      346.071       24.056      862.729
08/29/2014  10:31:00       22.287      -18.999       31.901       33.185       52.993       31.543     1101.238     2808.293      994.987        0.339        0.245       29.286       29.596        1.021      346.156       24.201      862.724
08/29/2014  10:32:00       16.999       48.442       21.011       37.646       27.541       29.002     1417.249      758.480      841.103        0.305        0.151       51.338       23.555        0.211      345.850       23.676      862.726
08/29/2014  10:33:00       35.285       29.223       14.130       21.767       15.986       18.558      473.818      255.541      344.390        0.169        0.054       45.815        7.783        0.029      345.937       23.826      862.727
08/29/2014  10:34:00       35.155       50.261       55.207       32.108       29.365       23.834     1030.955      862.288      568.059        0.464        0.123       61.336       18.991        0.096      346.132       24.160      862.715
08/29/2014  10:35:00       17.124       -2.594       24.686       19.558       34.478       29.704      382.527     1188.766      882.353        0.168        0.123       17.319       26.031        2.259      346.410       24.638      862.697
08/29/2014  10:36:00       11.819       -6.795       18.579       39.552       48.691       31.712     1564.370     2370.837     1005.648        0.273        0.247       13.633       23.814        3.052      346.313       24.472      862.687
08/29/2014  10:37:00       17.941       17.807       47.469       29.667       40.916       25.762      880.146     1674.110      663.701        0.305        0.161       25.278       10.802        0.183      346.582       24.933      862.689
08/29/2014  10:38:00       10.967       18.750       50.268       28.752       26.948       18.727      826.689      726.176      350.713        0.245        0.095       21.722        7.366        0.115      346.599       24.963      862.703
08/29/2014  10:39:00      -38.484      -21.606       10.430       23.274       31.563       25.341      541.673      996.214      642.157        0.212        0.109       44.134       14.769        0.112      346.444       24.696      862.709
08/29/2014  10:40:00      -21.404      -27.114       -0.604       28.167       26.198       20.582      793.400      686.320      423.620        0.155        0.095       34.544       15.382        0.198      346.194       24.265      862.716
08/29/2014  10:41:00      -64.260       -1.698        5.146       28.211       24.956       15.281      795.881      622.824      233.506        0.291        0.083       64.282       12.365        0.037      346.143       24.178      862.717
08/29/2014  10:42:00      -23.649       14.101       13.553       42.198       20.266       23.043     1780.633      410.702      530.968        0.183        0.136       27.534       25.062        0.828      346.752       25.226      862.714
08/29/2014  10:43:00       16.044        7.136        4.295       26.480       20.998       22.309      701.210      440.931      497.686        0.098        0.082       17.560       11.015        0.394      346.362       24.556      862.684
08/29/2014  10:44:00        7.519       22.127       11.298       23.121       19.624       23.743      534.592      385.109      563.724        0.108        0.074       23.370       13.147        0.316      346.911       25.501      862.658
08/29/2014  10:45:00       21.367       24.177       15.847       30.894       42.097       27.845      954.411     1772.157      775.325        0.240        0.175       32.265       13.372        0.172      346.923       25.520      862.634
08/29/2014  10:46:00       22.117        4.431       31.968       56.809       59.169       28.143     3227.300     3500.938      792.019        0.452        0.376       22.556       29.161        1.671      346.672       25.090      862.609
08/29/2014  10:47:00       87.587       13.622        7.857       35.222       63.031       33.179     1240.576     3972.913     1100.814        0.712        0.316       88.640       22.934        0.067      346.115       24.131      862.601
08/29/2014  10:48:00       14.481      -59.232      -18.119       34.660       33.204       25.226     1201.318     1102.477      636.328        0.349        0.147       60.976       18.972        0.097      346.139       24.171      862.593
08/29/2014  10:49:00      -23.704       -2.192       33.115       31.058       31.901       24.880      964.602     1017.701      618.995        0.213        0.130       23.805       15.796        0.440      346.860       25.411      862.574
08/29/2014  10:50:00       15.247       32.277       50.206       38.585       25.794       21.536     1488.766      665.353      463.812        0.321        0.131       35.697       12.262        0.118      346.867       25.425      862.575
08/29/2014  10:51:00      -37.894      -37.530       11.905       48.273       49.503       27.282     2330.281     2450.564      744.287        0.425        0.276       53.333       30.045        0.317      346.667       25.080      862.567
08/29/2014  10:52:00      -12.282      -47.264       28.842       33.201       34.745       28.650     1102.290     1207.227      820.817        0.317        0.157       48.834       19.781        0.164      346.710       25.154      862.562
08/29/2014  10:53:00      -24.373        2.385       19.829       25.199       39.878       17.956      634.992     1590.272      322.423        0.177        0.127       24.489       18.399        0.564      346.499       24.792      862.544
08/29/2014  10:54:00       57.902       38.329       25.451       61.546       32.366       30.279     3787.970     1047.555      916.809        0.561        0.288       69.439        7.850        0.013      346.661       25.068      862.523
08/29/2014  10:55:00        1.179       -7.034       32.020       45.085       52.437       25.832     2032.665     2749.664      667.311        0.326        0.272        7.132       21.724        9.278      346.876       25.438      862.484
08/29/2014  10:56:00       -1.840       -1.264       47.479       21.248       49.044       24.412      451.494     2405.337      595.958        0.286        0.173        2.232        8.830       15.647      347.233       26.055      862.455
08/29/2014  10:57:00       20.724      -28.609       25.372       36.978       78.208       47.793     1367.358     6116.545     2284.190        0.583        0.488       35.326       53.792        2.319      346.973       25.606      862.420
08/29/2014  10:58:00        6.190       11.051       37.701       19.347       24.720       17.906      374.311      611.077      320.633        0.144        0.065       12.667       11.914        0.885      347.345       26.247      862.402
08/29/2014  10:59:00      -54.347      -94.173       -3.491       22.467       38.959       20.678      504.759     1517.842      427.577        0.714        0.123      108.729       12.017        0.012      346.409       24.635      862.395
08/29/2014  11:00:00      -94.854      -54.710      -22.751       35.306       44.837       18.695     1246.514     2010.370      349.519        0.806        0.180      109.501       23.619        0.047      346.163       24.212      862.394
08/29/2014  11:01:00     -102.912      -13.955       -0.178       60.517       54.385       31.058     3662.278     2957.708      964.627        0.918        0.379      103.853       36.302        0.122      346.654       25.058      862.387
08/29/2014  11:02:00     -135.865      -49.425      -11.297       47.630       43.351       24.856     2268.609     1879.267      617.830        1.290        0.238      144.576       25.112        0.030      346.322       24.485      862.378
08/29/2014  11:03:00     -104.451      -82.728       -7.801       33.308       29.091       19.044     1109.441      846.268      362.667        1.007        0.116      133.244       10.379        0.006      346.413       24.643      862.363
08/29/2014  11:04:00      -65.716      -59.498       -4.742       41.198       46.776       31.085     1697.266     2187.979      966.273        0.637        0.243       88.649       23.237        0.069      346.633       25.021      862.353
08/29/2014  11:05:00      -81.210      -11.822      -27.685       27.372       29.807       23.773      749.206      888.444      565.179        0.485        0.110       82.066       15.860        0.037      346.448       24.702      862.345
08/29/2014  11:06:00      -17.794       48.045       12.318       26.769       28.855       34.167      716.576      832.622     1167.416        0.275        0.136       51.234       24.035        0.220      347.224       26.039      862.337
08/29/2014  11:07:00      -46.053       -5.694       -7.301       27.616       26.805       17.643      762.662      718.521      311.267        0.200        0.090       46.403       14.071        0.092      346.697       25.131      862.334
08/29/2014  11:08:00      -44.681      -25.593       -8.038       28.676       20.721       15.054      822.316      429.378      226.609        0.210        0.074       51.491        6.855        0.018      346.810       25.326      862.333
08/29/2014  11:09:00      -28.950       -9.869       -5.202       20.741       14.807       12.410      430.199      219.245      154.003        0.088        0.040       30.586       10.021        0.107      346.727       25.184      862.319
08/29/2014  11:10:00      -12.275      -10.260       -6.399       15.965       11.894       12.178      254.875      141.476      148.301        0.042        0.027       15.998        8.814        0.304      346.920       25.513      862.308
08/29/2014  11:11:00      -10.517      -37.963       12.642       18.834       23.734       15.565      354.718      563.326      242.256        0.144        0.058       39.393       16.983        0.186      347.130       25.880      862.286
08/29/2014  11:12:00       -3.752      -29.261        9.523       13.239       22.842       10.913      175.263      521.747      119.103        0.089        0.041       29.501        7.312        0.061      346.901       25.483      862.262
08/29/2014  11:13:00       26.617       17.412        7.994       18.321       35.370       26.800      335.665     1251.018      718.227        0.169        0.115       31.806       14.842        0.218      347.271       26.119      862.248
08/29/2014  11:14:00       13.464       59.867       -4.349       32.639       30.807       23.185     1065.284      949.065      537.535        0.317        0.128       61.362       16.996        0.077      347.050       25.738      862.241
08/29/2014  11:15:00      -25.895       50.917       -6.074       23.783       26.227       17.824      565.648      687.861      317.687        0.244        0.079       57.123       14.466        0.064      347.227       26.043      862.232
08/29/2014  11:16:00      -19.337        8.776       22.031       22.287       14.380       20.623      496.729      206.772      425.292        0.103        0.056       21.235       18.007        0.719      347.698       26.856      862.216
08/29/2014  11:17:00       40.919       22.055       29.742       28.978       25.205       26.740      839.730      635.296      715.018        0.262        0.110       46.484       18.904        0.165      347.584       26.659      862.204
08/29/2014  11:18:00       33.878       19.430       23.661       26.452       23.796       23.846      699.710      566.260      568.631        0.196        0.092       39.054        8.467        0.047      347.661       26.791      862.194
08/29/2014  11:19:00       11.765        5.598       31.760       25.388       24.857       18.681      644.547      617.874      348.977        0.139        0.081       13.029       17.325        1.768      348.008       27.392      862.178
08/29/2014  11:20:00       77.220       61.848        5.317       48.675       36.713       34.172     2369.293     1347.836     1167.715        0.735        0.244       98.935       26.471        0.072      347.614       26.710      862.164
08/29/2014  11:21:00       36.707      102.752        5.366       34.801       37.267       25.266     1211.109     1388.796      638.379        0.759        0.162      109.112       21.513        0.039      347.610       26.704      862.170
08/29/2014  11:22:00       28.293       44.928       15.697       44.193       39.940       29.239     1952.982     1595.199      854.924        0.373        0.220       53.094       20.850        0.154      347.947       27.286      862.172
08/29/2014  11:23:00       45.768       27.091       20.626       51.076       43.503       31.007     2608.786     1892.489      961.421        0.436        0.273       53.185       16.791        0.100      347.921       27.242      862.169
08/29/2014  11:24:00       48.729       36.472       20.966       50.807       56.502       32.819     2581.400     3192.434     1077.101        0.550        0.343       60.866       29.150        0.229      348.045       27.456      862.155
08/29/2014  11:25:00       62.791       71.331        1.801       34.717       46.640       32.343     1205.294     2175.247     1046.075        0.673        0.221       95.031       23.229        0.060      347.508       26.529      862.138
08/29/2014  11:26:00        2.704       39.131       12.262       38.329       36.675       27.032     1469.103     1345.085      730.704        0.262        0.177       39.225       23.409        0.356      347.852       27.121      862.120
08/29/2014  11:27:00       28.004        9.237       27.897       40.488       39.283       23.023     1639.278     1543.146      530.048        0.268        0.186       29.488       17.109        0.337      347.957       27.303      862.105
08/29/2014  11:28:00       21.231       46.069       -4.042       49.685       43.931       27.512     2468.584     1929.962      756.930        0.387        0.258       50.726       23.709        0.218      347.695       26.851      862.103
08/29/2014  11:29:00       50.456       37.532       21.393       48.403       36.011       36.691     2342.835     1296.788     1346.212        0.470        0.249       62.884       23.766        0.143      347.921       27.240      862.098
08/29/2014  11:30:00        2.369      -25.803       -8.218       46.999       71.413       31.098     2208.861     5099.871      967.056        0.451        0.414       25.911       32.014        1.527      347.701       26.861      862.112
08/29/2014  11:31:00       34.754      -27.660       12.416       58.789       41.472       29.019     3456.166     1719.928      842.096        0.407        0.301       44.418       27.053        0.371      348.232       27.780      862.123
08/29/2014  11:32:00        5.077        1.395       33.324       48.120       62.643       32.995     2315.559     3924.206     1088.664        0.423        0.366        5.265       32.042       37.038      348.695       28.579      862.145
08/29/2014  11:33:00      -87.372      -17.443       25.669       58.044       63.084       42.757     3369.135     3979.597     1828.175        0.889        0.459       89.096       40.649        0.208      347.995       27.367      862.162
08/29/2014  11:34:00      -25.489      -25.684       10.074       43.828       43.197       34.778     1920.883     1865.998     1209.544        0.320        0.250       36.185       23.766        0.431      348.317       27.925      862.184
08/29/2014  11:35:00      -90.714      -87.946       12.802       63.577       57.770       44.724     4041.983     3337.351     2000.259        1.275        0.469      126.347       31.829        0.063      347.623       26.726      862.184
08/29/2014  11:36:00     -206.022     -119.505      -14.857       63.451       47.026       25.557     4026.068     2211.438      653.138        3.192        0.345      238.173       27.943        0.014      347.297       26.160      862.173
08/29/2014  11:37:00     -206.074       -8.840      -15.418       77.386       60.914       36.957     5988.611     3710.550     1365.820        2.692        0.553      206.264       40.621        0.039      347.402       26.343      862.148
08/29/2014  11:38:00     -127.943       86.427      -14.843       51.853       82.910       38.888     2688.684     6874.090     1512.260        1.757        0.554      154.400       33.317        0.047      347.654       26.780      862.106
08/29/2014  11:39:00     -172.926        3.307      -12.734       66.693       67.009       30.149     4447.981     4490.145      908.972        1.996        0.492      172.957       32.885        0.036      347.626       26.730      862.070
08/29/2014  11:40:00      -61.174      -84.038       16.128      112.685       51.563       47.231    12697.941     2658.719     2230.753        1.432        0.879      103.946       59.197        0.324      347.928       27.252      862.064
08/29/2014  11:41:00      -65.859     -118.477      -14.269       58.979       66.413       38.182     3478.490     4410.693     1457.841        1.396        0.467      135.551       36.445        0.072      347.664       26.797      862.062
08/29/2014  11:42:00      -51.406      -10.797        7.875       32.306       29.941       19.952     1043.700      896.488      398.090        0.258        0.117       52.528       14.551        0.077      347.823       27.072      862.044
08/29/2014  11:43:00      -13.092      -59.540        6.886       37.938       69.523       36.180     1439.290     4833.421     1309.011        0.567        0.379       60.962       39.640        0.423      348.133       27.606      862.029
08/29/2014  11:44:00      -77.213       21.502       15.812       72.519       45.500       34.301     5258.965     2070.247     1176.556        0.759        0.425       80.151       38.298        0.228      348.063       27.486      862.019
08/29/2014  11:45:00      -84.836       11.906       -0.452       76.731       28.606       30.697     5887.607      818.327      942.323        0.749        0.382       85.667       42.371        0.245      347.684       26.832      862.002
08/29/2014  11:46:00       48.082       57.922       -0.540       34.247       31.682       30.463     1172.880     1003.740      928.023        0.439        0.155       75.279       23.463        0.097      347.949       27.289      861.958
08/29/2014  11:47:00       38.554       10.602       34.561       48.572       47.698       47.732     2359.269     2275.134     2278.388        0.485        0.346       39.985       27.649        0.478      348.535       28.301      861.947
08/29/2014  11:48:00       54.915      -94.507       10.847       55.451       75.422       46.392     3074.851     5688.445     2152.195        1.149        0.546      109.304       49.761        0.207      347.924       27.245      861.935
08/29/2014  11:49:00       33.532      -68.027        0.083       49.267       66.797       42.417     2427.199     4461.822     1799.235        0.722        0.434       75.843       45.330        0.357      348.024       27.420      861.917
08/29/2014  11:50:00       33.475       27.988       62.966       41.844       44.516       36.193     1750.947     1981.658     1309.966        0.545        0.252       43.634       26.403        0.366      348.745       28.665      861.896
08/29/2014  11:51:00       15.385       -6.611       28.815       47.842       45.501       35.239     2288.840     2070.314     1241.784        0.335        0.280       16.745       24.666        2.170      348.424       28.110      861.873
08/29/2014  11:52:00        3.821      -77.855       -8.237       41.032       75.900       36.754     1683.607     5760.808     1350.858        0.747        0.440       77.949       40.798        0.274      348.302       27.898      861.877
08/29/2014  11:53:00      -18.058      -71.730       -3.842       63.381       53.428       33.990     4017.193     2854.512     1155.343        0.675        0.401       73.968       26.918        0.132      348.123       27.588      861.867
08/29/2014  11:54:00      -66.034      -77.605       -2.589       51.039       53.980       34.345     2604.977     2913.817     1179.556        0.854        0.335      101.898       20.215        0.039      347.893       27.192      861.861
08/29/2014  11:55:00      -33.014      -32.705       -0.793       42.928       36.402       24.861     1842.848     1325.140      618.054        0.297        0.189       46.471       15.467        0.111      348.162       27.658      861.844
08/29/2014  11:56:00      -78.022       26.417        0.369       62.909       63.960       27.397     3957.507     4090.840      750.574        0.779        0.440       82.372       25.631        0.097      347.922       27.241      861.841
08/29/2014  11:57:00      -35.494       12.438        1.356       23.231       26.702       24.292      539.657      713.002      590.115        0.163        0.092       37.610       10.309        0.075      348.333       27.952      861.846
08/29/2014  11:58:00      -93.552      -31.450       14.548       82.692       63.921       35.572     6837.904     4085.940     1265.368        1.107        0.609       98.697       37.800        0.147      348.447       28.151      861.825
08/29/2014  11:59:00     -118.118      -57.223        2.059       86.465       47.645       31.896     7476.167     2270.015     1017.362        1.399        0.538      131.249       39.513        0.091      348.234       27.780      861.819
08/29/2014  12:00:00      -92.866      -14.145        0.699       54.840       37.354       31.124     3007.396     1395.344      968.692        0.710        0.269       93.937       34.125        0.132      347.947       27.288      861.800
08/29/2014  12:01:00      -29.677     -132.187       -7.065       32.091       81.199       27.051     1029.862     6593.341      731.735        1.338        0.418      135.477       14.413        0.011      347.876       27.162      861.786
08/29/2014  12:02:00      -68.784     -128.259      -19.976       72.653       82.990       44.185     5278.457     6887.376     1952.328        1.785        0.706      145.539       33.728        0.054      347.997       27.371      861.770
08/29/2014  12:03:00      -57.342      -74.650       -8.040       57.223       92.251       42.946     3274.522     8510.238     1844.395        1.127        0.681       94.131       39.381        0.175      347.950       27.290      861.775
08/29/2014  12:04:00      -37.566      -78.518       -9.082       53.231       74.845       53.226     2833.572     5601.818     2832.980        0.946        0.563       87.042       48.089        0.305      347.818       27.064      861.785
08/29/2014  12:05:00     -104.924      -60.793       11.413       73.773       42.289       29.996     5442.458     1788.338      899.733        1.148        0.407      121.264       31.589        0.068      347.896       27.196      861.755
08/29/2014  12:06:00      -29.883      -20.886       -1.492       47.941       30.032       28.433     2298.373      901.947      808.414        0.267        0.200       36.458       17.943        0.242      348.047       27.457      861.742
08/29/2014  12:07:00      -96.570      -21.223        8.515       44.977       35.798       21.043     2022.959     1281.523      442.814        0.680        0.187       98.875       24.052        0.059      347.922       27.242      861.745
08/29/2014  12:08:00      -48.265      -32.320       13.244       52.051       35.012       21.531     2709.270     1225.867      463.604        0.397        0.220       58.087       22.131        0.145      348.324       27.937      861.724
08/29/2014  12:09:00       20.300      -23.760       12.990       44.742       38.256       23.303     2001.879     1463.504      543.018        0.258        0.200       31.251       26.712        0.731      348.383       28.039      861.719
08/29/2014  12:10:00        7.115       12.738       52.572       28.252       49.520       34.510      798.188     2452.217     1190.937        0.371        0.222       14.590       36.390        6.221      348.500       28.241      861.700
08/29/2014  12:11:00       28.030       11.351       35.440       56.813       45.172       41.076     3227.734     2040.551     1687.223        0.456        0.348       30.241       38.264        1.601      348.448       28.152      861.684
08/29/2014  12:12:00       15.019      -83.258       -5.785       34.175       69.317       39.145     1167.932     4804.821     1532.321        0.735        0.375       84.602       45.726        0.292      348.193       27.712      861.688
08/29/2014  12:13:00      -38.736      -33.023      -11.985       44.022       38.149       32.397     1937.898     1455.383     1049.588        0.359        0.222       50.902       22.490        0.195      348.288       27.876      861.695
08/29/2014  12:14:00      -87.771      -52.658        4.276       41.277       35.660       24.833     1703.772     1271.629      616.700        0.704        0.180      102.356       17.512        0.029      348.095       27.541      861.695
08/29/2014  12:15:00      -24.966      -13.126        1.258       30.042       25.701       22.591      902.500      660.566      510.334        0.143        0.104       28.206       17.360        0.379      348.422       28.109      861.691
08/29/2014  12:16:00      -75.551      -30.950        9.923       55.727       44.627       31.129     3105.495     1991.574      968.996        0.641        0.303       81.645       34.833        0.182      348.244       27.798      861.692
08/29/2014  12:17:00     -104.624      -52.081        0.776       54.048       44.069       32.906     2921.153     1942.053     1082.808        0.980        0.297      116.870       30.098        0.066      348.105       27.558      861.685
08/29/2014  12:18:00     -103.549      -67.701      -10.474       33.142       34.327       22.280     1098.425     1178.318      496.401        0.909        0.139      123.717       10.459        0.007      347.941       27.276      861.677
08/29/2014  12:19:00       -3.730      -22.679       -2.923       25.633       31.263       21.675      657.041      977.368      469.787        0.132        0.105       22.984       17.462        0.577      348.093       27.539      861.671
08/29/2014  12:20:00      -27.572       -7.198       13.223       25.717       45.825       23.398      661.377     2099.956      547.474        0.215        0.165       28.496       24.940        0.766      348.471       28.190      861.661
08/29/2014  12:21:00      -46.351      -16.669        6.322       29.965       39.829       20.359      897.884     1586.368      414.498        0.268        0.145       49.257       21.875        0.197      348.267       27.839      861.663
08/29/2014  12:22:00      -18.384      -26.315       15.308       22.663       46.992       32.869      513.615     2208.259     1080.389        0.253        0.190       32.101       33.887        1.114      348.572       28.366      861.661
08/29/2014  12:23:00      -27.717      -49.079        2.856       55.537       33.080       29.677     3084.355     1094.275      880.698        0.412        0.253       56.365       22.482        0.159      348.400       28.068      861.657
08/29/2014  12:24:00      -60.089      -56.993       19.606       74.704       41.644       45.623     5580.679     1734.223     2081.425        0.832        0.470       82.818       34.414        0.173      348.537       28.305      861.657
08/29/2014  12:25:00      -44.197     -121.201       -6.127       54.401       67.611       34.674     2959.428     4571.225     1202.283        1.271        0.437      129.008       27.720        0.046      348.285       27.869      861.679
08/29/2014  12:26:00      -83.292     -129.514       -6.554       75.630       79.419       48.213     5719.852     6307.343     2324.503        1.905        0.718      153.986       30.545        0.039      348.246       27.801      861.692
08/29/2014  12:27:00       32.309     -150.660      -16.072      117.331       56.502       37.306    13766.459     3192.500     1391.721        2.117        0.918      154.086       26.103        0.029      348.151       27.636      861.705
08/29/2014  12:28:00      -35.137     -165.234      -28.535       61.893       54.047       32.869     3830.725     2921.048     1080.403        1.859        0.392      168.928       15.487        0.008      347.977       27.334      861.709
08/29/2014  12:29:00       31.820      -54.297       15.215       50.341       91.956       55.766     2534.195     8455.863     3109.894        0.914        0.705       62.934       57.376        0.831      348.382       28.037      861.697
08/29/2014  12:30:00       31.902      -80.349      -18.316       85.413       59.594       42.744     7295.353     3551.466     1827.034        1.024        0.634       86.451       42.942        0.247      348.163       27.658      861.691
08/29/2014  12:31:00      -41.390     -103.378        1.850       57.750       66.414       33.415     3335.063     4410.881     1116.556        1.063        0.443      111.356       35.593        0.102      348.280       27.861      861.705
08/29/2014  12:32:00      -43.732      -75.452        3.497       33.933       45.640       22.543     1151.445     2082.966      508.209        0.568        0.187       87.210       19.015        0.048      348.229       27.772      861.699
08/29/2014  12:33:00       20.873      -36.035        3.143       46.340       36.829       25.453     2147.391     1356.388      647.848        0.295        0.208       41.644       23.034        0.306      348.365       28.010      861.666
08/29/2014  12:34:00       22.520       21.651       49.287       56.235       44.725       42.354     3162.369     2000.344     1793.827        0.518        0.348       31.240       30.549        0.956      348.531       28.296      861.625
08/29/2014  12:35:00       46.168        1.259       58.340       74.538       68.748       47.766     5555.908     4726.303     2281.607        0.905        0.628       46.186       46.588        1.017      348.433       28.124      861.584
08/29/2014  12:36:00      -28.116      -12.758       33.254       38.370       42.463       32.915     1472.258     1803.088     1083.420        0.321        0.218       30.875       32.085        1.080      348.630       28.465      861.567
08/29/2014  12:37:00      -41.336       -4.325        9.609       27.592       23.689       18.570      761.317      561.169      344.846        0.174        0.083       41.562       14.540        0.122      348.724       28.629      861.542
08/29/2014  12:38:00      -63.009      -21.676        6.954       31.765       33.775       19.285     1008.989     1140.726      371.902        0.350        0.126       66.633       18.386        0.076      348.686       28.563      861.519
08/29/2014  12:39:00      -67.871      -22.154       10.652       37.295       47.374       23.627     1390.884     2244.312      558.233        0.470        0.210       71.395       18.583        0.068      348.661       28.520      861.499
08/29/2014  12:40:00      -92.056      -30.847       -9.933       10.720       26.582        9.833      114.916      706.601       96.693        0.522        0.046       97.087        4.251        0.002      348.268       27.839      861.490
08/29/2014  12:41:00     -153.181      -42.691      -11.092       77.986       44.072       28.771     6081.848     1942.385      827.798        1.713        0.443      159.018       29.847        0.035      348.377       28.028      861.479
08/29/2014  12:42:00     -358.030      -99.446      -10.303      104.290      111.741       49.343    10876.325    12486.034     2434.697        8.198        1.290      371.584       40.132        0.012      348.393       28.052      861.489
08/29/2014  12:43:00     -217.383      -21.598        2.506      139.993       90.254       74.555    19597.910     8145.757     5558.456        4.051        1.665      218.453       80.572        0.136      348.588       28.390      861.458
08/29/2014  12:44:00     -194.394     -144.623       -1.023      150.311      113.250       86.848    22593.448    12825.523     7542.650        5.083        2.148      242.291       90.153        0.138      348.571       28.361      861.459
08/29/2014  12:45:00     -205.822     -112.658        2.570      132.900       91.057       53.836    17662.321     8291.333     2898.366        4.195        1.443      234.637       66.037        0.079      348.671       28.534      861.467
08/29/2014  12:46:00     -110.355      -20.059       21.039      125.170      103.175       62.627    15667.572    10645.066     3922.179        2.162        1.512      112.163       61.840        0.304      348.832       28.815      861.495
08/29/2014  12:47:00     -121.450      -86.268       15.004      117.203       84.609       50.519    13736.583     7158.609     2552.184        2.293        1.172      148.971       63.663        0.183      348.830       28.810      861.495
08/29/2014  12:48:00     -119.304     -118.461       12.514      124.471       79.667       66.890    15493.125     6346.884     4474.284        2.736        1.316      168.127       79.043        0.221      348.825       28.802      861.497
08/29/2014  12:49:00     -102.070      -16.171        5.794      115.025       69.329       44.998    13230.835     4806.538     2024.864        1.538        1.003      103.343       57.626        0.311      348.885       28.906      861.486
08/29/2014  12:50:00      -94.211      -47.686        1.788       72.170      116.662       32.640     5208.555    13610.079     1065.401        1.551        0.994      105.592       29.284        0.077      348.637       28.478      861.474
08/29/2014  12:51:00     -125.207      -49.791       -4.212       89.357       71.229       49.194     7984.639     5073.507     2420.072        1.682        0.774      134.744       53.095        0.155      348.661       28.519      861.429
08/29/2014  12:52:00     -143.284      -33.885       -6.083       68.222       49.600       28.925     4654.223     2460.192      836.655        1.483        0.398      147.237       22.911        0.024      348.789       28.741      861.409
08/29/2014  12:53:00     -237.873      -27.459      -12.409      138.292       71.323       46.246    19124.793     5086.986     2138.734        4.192        1.318      239.453       56.360        0.055      348.862       28.866      861.388
08/29/2014  12:54:00     -231.478     -113.484       15.709      151.571      127.800       67.723    22973.727    16332.920     4586.456        5.529        2.195      257.800       63.687        0.061      348.749       28.670      861.371
08/29/2014  12:55:00     -219.755     -106.442       -1.089      132.729       75.686       51.290    17617.016     5728.397     2630.667        4.279        1.299      244.176       56.401        0.053      348.554       28.333      861.371
08/29/2014  12:56:00     -126.553      -19.179        3.244       92.922       68.529       46.182     8634.452     4696.276     2132.801        1.593        0.773      127.998       56.607        0.196      348.539       28.308      861.345
08/29/2014  12:57:00     -145.214      -43.633        2.045      118.017      103.786       42.895    13927.940    10771.578     1840.005        2.476        1.327      151.628       49.132        0.105      348.546       28.319      861.331
08/29/2014  12:58:00     -261.658     -183.036       -1.019      139.926       94.186       63.619    19579.318     8871.022     4047.410        6.723        1.625      319.323       76.415        0.057      348.444       28.140      861.353
08/29/2014  12:59:00     -297.146     -162.057       -3.589      119.778      110.268       63.267    14346.887    12158.943     4002.696        7.253        1.525      338.464       59.381        0.031      348.581       28.378      861.355
08/29/2014  13:00:00     -342.135     -192.740      -20.118      133.581       94.535       50.734    17843.767     8936.802     2573.902        9.198        1.468      392.689       47.160        0.014      348.498       28.234      861.368
08/29/2014  13:01:00     -293.688      -76.312       -4.535      141.616       81.690       60.633    20055.126     6673.268     3676.349        6.124        1.520      303.441       74.820        0.061      348.795       28.750      861.380
08/29/2014  13:02:00     -222.099     -116.729        2.179      129.323       84.762       67.331    16724.391     7184.562     4533.486        4.569        1.422      250.906       75.696        0.091      348.931       28.983      861.387
08/29/2014  13:03:00     -129.800     -122.069        7.079      115.070       97.306       54.523    13241.053     9468.459     2972.811        2.874        1.284      178.183       58.392        0.107      348.838       28.824      861.400
08/29/2014  13:04:00     -171.582     -168.306      -13.708      111.472       64.881       36.419    12425.979     4209.517     1326.361        3.795        0.898      240.348       43.306        0.032      348.481       28.205      861.367
08/29/2014  13:05:00     -233.267      -49.879      -11.471       78.344       65.507       34.356     6137.757     4291.153     1180.352        3.432        0.580      238.540       32.035        0.018      348.524       28.281      861.339
08/29/2014  13:06:00     -178.105      -77.834      -19.152       87.505       56.254       35.596     7657.184     3164.519     1267.079        2.512        0.604      194.369       38.258        0.039      348.584       28.385      861.300
08/29/2014  13:07:00     -110.776      -55.456        7.113       98.182       74.430       53.177     9639.730     5539.893     2827.786        1.670        0.900      123.882       56.150        0.205      348.938       28.998      861.271
08/29/2014  13:08:00      -33.404       42.179        6.831       55.519       49.313       34.054     3082.351     2431.750     1159.673        0.481        0.334       53.804       27.948        0.270      348.857       28.860      861.260
08/29/2014  13:09:00     -139.429      -23.222       -6.718      108.077       60.455       40.298    11680.746     3654.783     1623.963        1.849        0.848      141.349       35.030        0.061      348.841       28.830      861.254
08/29/2014  13:10:00     -254.118      -61.919       -8.880      100.295       55.849       41.918    10059.159     3119.095     1757.129        4.171        0.747      261.553       44.536        0.029      348.728       28.632      861.264
08/29/2014  13:11:00     -138.469      -28.587       -1.966       90.648       55.098       31.397     8217.063     3035.802      985.751        1.611        0.612      141.389       38.658        0.075      348.782       28.729      861.266
08/29/2014  13:12:00      -15.768      -42.657       36.762      114.619       78.617       66.215    13137.553     6180.586     4384.361        1.356        1.185       45.477       75.720        2.772      348.913       28.955      861.248
08/29/2014  13:13:00     -230.191      -61.352       -9.944      164.608      132.097       54.257    27095.945    17449.520     2943.868        5.216        2.374      238.227       58.649        0.061      348.912       28.952      861.259
08/29/2014  13:14:00     -184.349     -131.592       12.432      147.232      106.809       60.149    21677.340    11408.130     3617.895        4.407        1.835      226.497       73.186        0.104      348.833       28.815      861.269
08/29/2014  13:15:00     -153.575       -0.598       -2.852      117.345       78.909       38.767    13769.759     6226.555     1502.895        2.254        1.075      153.576       49.432        0.104      348.717       28.617      861.271
08/29/2014  13:16:00      -73.640       12.938        3.578       65.706       31.242       26.359     4317.281      976.054      694.776        0.579        0.299       74.768       26.595        0.127      348.833       28.818      861.279
08/29/2014  13:17:00      -95.651      140.254      -25.269       59.531       82.438       45.545     3543.908     6795.954     2074.384        2.093        0.621      169.766       37.344        0.048      348.741       28.656      861.276
08/29/2014  13:18:00     -126.597      -40.422        0.740      130.648       91.273       56.991    17068.844     8330.764     3247.938        2.315        1.432      132.894       61.484        0.214      348.977       29.068      861.256
08/29/2014  13:19:00     -189.091      -66.631        8.238      167.829      121.092       59.279    28166.674    14663.335     3513.947        4.329        2.317      200.487       81.676        0.166      348.944       29.008      861.246
08/29/2014  13:20:00     -228.307      -80.943        1.818      134.016      110.231       51.294    17960.337    12150.936     2631.032        4.570        1.637      242.230       54.972        0.052      348.872       28.882      861.233
08/29/2014  13:21:00      -83.071      -39.891       19.321      102.231       73.599       51.640    10451.269     5416.861     2666.706        1.370        0.927       92.153       54.664        0.352      349.015       29.132      861.210
08/29/2014  13:22:00      -55.693       26.719       13.457       75.706       59.306       53.743     5731.441     3517.155     2888.275        0.806        0.607       61.770       51.313        0.690      349.179       29.418      861.203
08/29/2014  13:23:00     -162.237       14.628       -5.303      107.582      141.628       60.861    11573.890    20058.440     3704.101        3.094        1.767      162.895       59.165        0.132      349.063       29.214      861.202
08/29/2014  13:24:00     -308.926      -33.591       -7.519      142.682      102.296       64.685    20358.013    10464.456     4184.153        6.581        1.750      310.747       64.824        0.044      348.939       28.998      861.187
08/29/2014  13:25:00     -282.150      -79.810       -9.936      124.978       95.310       67.361    15619.585     9083.929     4537.441        5.765        1.462      293.221       65.358        0.050      349.006       29.113      861.178
08/29/2014  13:26:00     -296.752     -121.660       -4.668      140.530      101.852       55.850    19748.777    10373.902     3119.205        6.806        1.662      320.723       62.386        0.038      348.824       28.799      861.172
08/29/2014  13:27:00     -184.076     -106.139       -4.445       98.411       83.708       49.948     9684.678     7007.089     2494.770        3.217        0.959      212.484       44.331        0.044      348.825       28.801      861.161
08/29/2014  13:28:00      -89.446      -41.758        9.506       73.289       43.817       34.821     5371.309     1919.935     1212.489        0.917        0.425       98.713       35.477        0.129      348.848       28.843      861.131
08/29/2014  13:29:00     -197.697        8.596      -17.895       56.061       42.269       30.614     3142.789     1786.651      937.205        2.267        0.293      197.884       24.066        0.015      348.681       28.552      861.094
08/29/2014  13:30:00     -124.410      -18.109      -13.225       55.468       28.446       21.184     3076.705      809.176      448.772        1.016        0.217      125.721       16.710        0.018      348.536       28.305      861.060
08/29/2014  13:31:00      -36.725      -47.184        2.975       23.438       47.013       21.062      549.341     2210.198      443.607        0.339        0.160       59.792       17.645        0.087      348.712       28.608      861.041
08/29/2014  13:32:00     -167.717     -117.894      -14.299       86.344       49.269       32.188     7455.252     2427.406     1036.041        2.657        0.546      205.007       34.966        0.029      348.569       28.357      861.032
08/29/2014  13:33:00     -151.561       -4.344       -9.064       34.185       35.550       18.940     1168.630     1263.833      358.733        1.293        0.140      151.623       11.812        0.006      348.662       28.521      861.049
08/29/2014  13:34:00     -196.516       13.125      -14.445       68.441       70.183       39.202     4684.120     4925.636     1536.785        2.507        0.557      196.954       39.034        0.039      348.723       28.624      861.076
08/29/2014  13:35:00     -161.681      -46.030      -21.239      100.551       61.538       36.999    10110.486     3786.961     1368.942        2.199        0.763      168.106       40.833        0.059      348.711       28.605      861.073
08/29/2014  13:36:00     -258.577      -74.641      -24.797       71.234       74.550       39.958     5074.234     5557.730     1596.678        4.264        0.611      269.134       26.957        0.010      348.628       28.459      861.055
08/29/2014  13:37:00     -138.704       45.444      -11.508       50.507       61.390       31.160     2550.919     3768.767      970.955        1.436        0.365      145.959       28.701        0.039      348.666       28.528      861.033
08/29/2014  13:38:00     -199.003      -34.970       -5.404       73.155       63.059       35.765     5351.665     3976.446     1279.102        2.573        0.530      202.052       37.161        0.034      348.720       28.618      860.971
08/29/2014  13:39:00     -293.066       35.364      -27.362       81.586       73.841       42.331     6656.319     5452.475     1791.926        5.089        0.695      295.192       40.359        0.019      348.718       28.615      860.916
08/29/2014  13:40:00     -174.125       96.028      -27.334       87.052       69.839       41.401     7577.999     4877.457     1714.007        2.723        0.708      198.849       40.303        0.041      348.701       28.587      860.863
08/29/2014  13:41:00      -59.435       17.350       20.702       93.587       24.316       33.851     8758.538      591.291     1145.892        0.738        0.525       61.916       51.061        0.680      348.870       28.881      860.797
08/29/2014  13:42:00       -8.272      -12.884       17.375       23.883       32.362       20.801      570.404     1047.300      432.669        0.129        0.103       15.311       18.289        1.427      349.179       29.417      860.712
08/29/2014  13:43:00       -1.270      -46.119       -4.247       17.652       20.913       12.292      311.587      437.337      151.083        0.152        0.045       46.136        7.901        0.029      348.623       28.454      860.612
08/29/2014  13:44:00       21.716       21.467       26.246       21.313       25.678       18.920      454.265      659.357      357.963        0.155        0.074       30.535       10.042        0.108      349.125       29.323      860.513
08/29/2014  13:45:00        5.298       35.188       -1.273       25.677       20.124       19.670      659.318      404.968      386.908        0.136        0.073       35.585       14.461        0.165      348.938       29.000      860.409
08/29/2014  13:46:00      -25.701       20.803        3.860       38.612       31.940       26.023     1490.900     1020.192      677.172        0.215        0.159       33.066       17.802        0.290      348.988       29.087      860.308
08/29/2014  13:47:00       25.316       38.039       29.238       36.702       24.652       20.975     1347.009      607.737      439.970        0.267        0.120       45.693       11.936        0.068      349.073       29.233      860.221
08/29/2014  13:48:00       -0.058       20.561        9.616       39.708       21.735       16.316     1576.724      472.394      266.228        0.141        0.116       20.561        6.806        0.110      348.952       29.024      860.166
08/29/2014  13:49:00      -21.789       28.308       14.889       25.522       17.705       19.444      651.356      313.471      378.084        0.142        0.067       35.723       13.659        0.146      349.148       29.363      860.137
08/29/2014  13:50:00        3.403      -15.305       13.521       33.942       28.328       20.787     1152.071      802.499      432.103        0.141        0.119       15.678       13.905        0.787      349.360       29.731      860.151
08/29/2014  13:51:00       43.068      -94.007       -3.338       39.345       43.932       26.390     1548.052     1930.000      696.419        0.744        0.209      103.403       29.213        0.080      348.869       28.880      860.188
08/29/2014  13:52:00       42.286     -123.231       -5.678       90.655       64.201       34.628     8218.402     4121.761     1199.073        1.527        0.677      130.284       38.727        0.088      348.948       29.017      860.235
08/29/2014  13:53:00      -70.967     -132.348       -1.139       41.178       44.772       32.689     1695.646     2004.547     1068.602        1.366        0.238      150.174       18.460        0.015      348.985       29.081      860.284
08/29/2014  13:54:00      -18.854      -35.509       16.361       56.539       59.041       38.719     3196.668     3485.844     1499.191        0.503        0.409       40.204       38.598        0.922      349.610       30.163      860.327
08/29/2014  13:55:00       14.622      -52.976       13.348       56.099       68.197       41.826     3147.121     4650.850     1749.386        0.637        0.477       54.957       40.850        0.552      349.310       29.644      860.360
08/29/2014  13:56:00       28.324      -59.151       12.886       62.857       73.988       56.235     3951.060     5474.279     3162.328        0.852        0.629       65.582       42.988        0.430      349.335       29.687      860.381
08/29/2014  13:57:00      -58.705      -64.207        9.277       85.090       82.290       47.557     7240.318     6771.612     2261.671        1.196        0.814       86.999       44.707        0.264      349.629       30.196      860.372
08/29/2014  13:58:00     -247.332      -98.192      -14.225      116.836       98.425       46.922    13650.715     9687.432     2201.674        4.827        1.277      266.110       49.889        0.035      348.988       29.084      860.397
08/29/2014  13:59:00      -92.135      -47.749       -9.048       58.495       73.215       24.518     3421.623     5360.422      601.141        1.012        0.469      103.773       12.377        0.014      348.773       28.713      860.379
08/29/2014  14:00:00     -107.741     -128.515        1.422      131.831       71.380       51.221    17379.398     5095.071     2623.600        2.661        1.255      167.703       42.226        0.063      349.069       29.225      860.378
08/29/2014  14:01:00     -171.216     -175.699        4.328      113.353       86.252       52.303    12848.905     7439.380     2735.593        4.161        1.151      245.326       55.221        0.051      348.904       28.937      860.406
08/29/2014  14:02:00     -271.176     -151.575       -3.380      116.299       90.397       46.934    13525.523     8171.691     2202.813        6.021        1.195      310.663       60.143        0.037      348.905       28.939      860.407
08/29/2014  14:03:00     -182.718     -110.734       -0.832      106.417       82.459       56.000    11324.545     6799.414     3136.014        3.345        1.063      213.653       58.259        0.074      349.109       29.293      860.409
08/29/2014  14:04:00     -165.445      -74.398        2.077       83.658       97.394       36.418     6998.633     9485.496     1326.274        2.536        0.891      181.403       42.666        0.055      349.134       29.338      860.406
08/29/2014  14:05:00      -32.841      -10.077       23.979       51.739       54.545       27.590     2676.902     2975.174      761.197        0.408        0.321       34.352       23.774        0.479      349.928       30.715      860.396
08/29/2014  14:06:00      -69.436     -130.094       12.013       73.954      100.561       31.999     5469.232    10112.461     1023.959        1.924        0.830      147.465       37.961        0.066      349.349       29.710      860.380
08/29/2014  14:07:00     -135.974     -128.621       -4.506       81.901       74.784       39.626     6707.710     5592.642     1570.231        2.446        0.694      187.169       34.818        0.035      349.236       29.515      860.350
08/29/2014  14:08:00      -89.698      -63.158        4.103      102.092       84.239       51.268    10422.846     7096.257     2628.422        1.610        1.007      109.702       56.700        0.267      349.485       29.947      860.337
08/29/2014  14:09:00       15.387     -122.096      -23.506      136.602      107.722       56.930    18660.095    11604.117     3241.082        2.459        1.675      123.062       49.373        0.161      349.223       29.491      860.313
08/29/2014  14:10:00        0.671      -13.493       -0.003       51.014       60.174       44.424     2602.426     3620.855     1973.477        0.419        0.410       13.510       35.071        6.739      349.531       30.028      860.308
08/29/2014  14:11:00      -28.626     -126.699      -14.929       90.898       67.789       47.451     8262.363     4595.412     2251.612        1.610        0.755      129.893       47.253        0.132      349.516       30.001      860.295
08/29/2014  14:12:00      -26.485     -155.067      -19.695       64.416       68.099       46.620     4149.392     4637.510     2173.428        1.805        0.548      157.312       41.903        0.071      349.463       29.909      860.294
08/29/2014  14:13:00      -28.622      -58.368      -12.661       60.915       72.150       54.126     3710.698     5205.626     2929.634        0.811        0.592       65.008       43.146        0.441      349.539       30.041      860.271
08/29/2014  14:14:00      -12.450      -13.808       14.095       58.197       59.562       39.180     3386.837     3547.660     1535.093        0.451        0.423       18.592       16.243        0.763      349.961       30.772      860.241
08/29/2014  14:15:00       27.203     -157.958      -33.056       77.086       72.535       55.328     5942.311     5261.264     3061.142        2.052        0.713      160.284       39.561        0.061      349.436       29.859      860.236
08/29/2014  14:16:00      -43.706     -165.025       -1.573       52.272       66.083       46.286     2732.381     4366.903     2142.378        1.919        0.462      170.715       30.446        0.032      349.332       29.680      860.232
08/29/2014  14:17:00       43.967       -9.826       42.736       67.503       81.561       52.871     4556.659     6652.269     2795.328        0.893        0.700       45.052       51.613        1.312      349.762       30.430      860.225
08/29/2014  14:18:00      -23.135      -48.541        1.539       30.848       43.072       30.640      951.629     1855.225      938.813        0.332        0.187       53.773       25.826        0.231      349.807       30.507      860.222
08/29/2014  14:19:00      -53.182      -18.209       25.833       70.569       51.874       34.177     4980.053     2690.939     1168.079        0.633        0.442       56.213       35.826        0.406      350.124       31.057      860.242
08/29/2014  14:20:00      -73.506      -67.920        7.808       78.955       61.925       41.815     6233.919     3834.648     1748.480        1.094        0.591      100.081       33.934        0.115      349.865       30.606      860.248
08/29/2014  14:21:00      -67.512     -203.668        1.633      193.066      123.541       64.927    37274.322    15262.492     4215.557        5.139        2.838      214.566       55.958        0.068      349.584       30.117      860.257
08/29/2014  14:22:00     -230.785     -238.548       13.250      171.356      173.217       86.586    29362.864    30004.037     7497.079        8.859        3.343      331.914       85.591        0.066      349.770       30.440      860.255
08/29/2014  14:23:00     -290.570     -210.700      -10.905      103.617       99.855       56.368    10736.530     9970.987     3177.385        7.641        1.194      358.922       59.007        0.027      349.668       30.260      860.280
08/29/2014  14:24:00     -217.497      -34.360       -6.343      106.583       63.274       48.074    11359.966     4003.631     2311.104        3.310        0.884      220.194       51.597        0.055      349.572       30.096      860.225
08/29/2014  14:25:00      -76.959     -132.810       -8.917       68.819      112.883       47.564     4736.098    12742.589     2262.344        2.169        0.987      153.497       33.213        0.047      349.641       30.217      860.208
08/29/2014  14:26:00      -89.356     -130.123        6.053       72.170      118.244       49.454     5208.459    13981.577     2445.686        2.329        1.082      157.850       46.706        0.088      349.660       30.248      860.161
08/29/2014  14:27:00      -58.665     -113.682       -8.746       79.128       85.983       48.344     6261.206     7393.097     2337.173        1.621        0.800      127.927       35.029        0.075      349.569       30.091      860.120
08/29/2014  14:28:00      -54.498      -40.073        2.132       54.502       74.611       48.421     2970.462     5566.796     2344.593        0.773        0.544       67.645       33.005        0.238      349.768       30.437      860.077
08/29/2014  14:29:00       -1.252      -63.847        9.444       85.294       84.680       67.223     7275.014     7170.768     4518.978        1.156        0.948       63.860       50.046        0.614      349.874       30.620      860.053
08/29/2014  14:30:00      -30.582      -67.207        4.473       73.417       91.952       45.342     5390.073     8455.185     2055.920        1.068        0.795       73.838       36.957        0.251      349.630       30.199      860.040
08/29/2014  14:31:00      -48.127      -59.408        6.648       88.829       94.117       47.297     7890.603     8858.097     2236.967        1.243        0.949       76.456       46.922        0.377      349.796       30.486      860.030
08/29/2014  14:32:00      -48.711      -85.464       -9.139       85.826       68.133       54.113     7366.047     4642.110     2928.263        1.235        0.747       98.371       42.444        0.186      349.901       30.670      859.991
08/29/2014  14:33:00      -46.273      -71.318       14.773       93.551       60.942       51.009     8751.725     3713.988     2601.880        1.125        0.753       85.014       39.514        0.216      350.062       30.948      859.992
08/29/2014  14:34:00      -23.076     -112.155        1.998       51.212       72.663       33.828     2622.715     5279.936     1144.337        1.108        0.452      114.504       25.728        0.050      349.497       29.969      859.988
08/29/2014  14:35:00      -75.487     -106.270        6.715       45.263      108.678       36.056     2048.710    11810.881     1300.064        1.610        0.758      130.352       44.773        0.118      349.534       30.030      859.966
08/29/2014  14:36:00      -35.539      -23.052       14.042       88.282       61.844       34.402     7793.792     3824.667     1183.482        0.739        0.640       42.361       36.586        0.746      349.835       30.555      859.948
08/29/2014  14:37:00       66.410     -167.944        7.316       63.205       71.471       48.509     3994.844     5108.067     2353.112        2.206        0.573      180.597       32.414        0.032      349.345       29.703      859.948
08/29/2014  14:38:00        8.335     -118.067      -16.544       95.534       67.411       53.016     9126.697     4544.305     2810.675        1.538        0.824      118.361       21.342        0.033      349.747       30.401      859.923
08/29/2014  14:39:00     -180.489     -177.759       -3.836      110.393       95.920       55.511    12186.666     9200.702     3081.454        4.432        1.223      253.327       52.188        0.042      349.657       30.244      859.944
08/29/2014  14:40:00     -185.787     -170.092       -6.727      129.957       84.607       68.123    16888.805     7158.381     4640.686        4.608        1.434      251.889       58.297        0.054      349.389       29.776      859.937
08/29/2014  14:41:00      -90.611      -46.470       -1.706       64.485       39.825       32.089     4158.339     1586.017     1029.722        0.857        0.339      101.833       24.710        0.059      349.419       29.832      859.908
08/29/2014  14:42:00      -54.710       13.929       15.283       24.847       18.688       19.575      617.369      349.249      383.191        0.239        0.067       56.456       13.947        0.061      349.393       29.788      859.867
08/29/2014  14:43:00      -75.345      -17.447      -10.780       40.345       31.079       21.988     1627.694      965.908      483.486        0.459        0.154       77.339       16.895        0.048      349.371       29.749      859.852
08/29/2014  14:44:00     -111.462      -54.175       -6.581       53.285       48.809       28.555     2839.239     2382.317      815.394        1.072        0.302      123.930       22.211        0.032      349.599       30.146      859.879
08/29/2014  14:45:00      -48.362     -150.534       -7.182       23.036       47.803       19.444      530.647     2285.154      378.060        1.412        0.160      158.111       11.618        0.005      349.149       29.364      859.913
08/29/2014  14:46:00     -158.843     -116.054      -23.019       67.711       43.404       30.931     4584.794     1883.917      956.757        2.333        0.371      196.722       34.737        0.031      349.386       29.773      859.925
08/29/2014  14:47:00      -68.079      -43.811       -6.308       80.149       63.860       29.966     6423.887     4078.142      897.978        0.899        0.570       80.958       34.055        0.177      349.943       30.743      859.940
08/29/2014  14:48:00     -103.680      -52.758        2.131       42.698       67.123       29.723     1823.114     4505.500      883.460        1.037        0.361      116.331       18.461        0.025      349.912       30.689      859.943
08/29/2014  14:49:00     -129.532      -82.502       -2.232       87.984       67.706       42.044     7741.261     4584.073     1767.673        1.884        0.705      153.575       25.284        0.027      350.087       30.991      859.942
08/29/2014  14:50:00     -126.165     -287.437        7.523      141.913      141.149       76.067    20139.267    19923.098     5786.261        7.221        2.292      313.907       54.454        0.030      349.651       30.232      859.933
08/29/2014  14:51:00     -300.458     -204.829        1.000      155.859      127.358       74.479    24292.077    16219.945     5547.121        8.914        2.303      363.634       62.229        0.029      349.763       30.427      859.903
08/29/2014  14:52:00     -355.417     -209.556       -5.227      131.843      120.790       67.971    17382.508    14590.343     4620.067       10.342        1.830      412.595       66.445        0.026      349.618       30.174      859.911
08/29/2014  14:53:00     -152.390      -76.029       -7.868       94.436       57.108       33.044     8918.200     3261.339     1091.910        2.117        0.664      170.303       34.249        0.040      349.868       30.609      859.938
08/29/2014  14:54:00     -174.499     -101.710       14.374      126.828       91.979       54.810    16085.355     8460.126     3004.162        3.427        1.377      201.977       62.243        0.095      349.884       30.638      859.926
08/29/2014  14:55:00     -191.415     -120.513        5.931      104.962       82.109       48.784    11017.016     6741.963     2379.896        3.566        1.007      226.192       44.234        0.038      349.591       30.127      859.927
08/29/2014  14:56:00     -201.155     -219.492       11.929      152.092      143.049       71.040    23131.988    20463.068     5046.672        6.870        2.432      297.725       64.895        0.048      349.783       30.460      859.875
08/29/2014  14:57:00     -241.655     -118.789       10.691      165.518      128.850       68.750    27396.095    16602.308     4726.624        6.066        2.436      269.273       75.717        0.079      350.010       30.855      859.883
08/29/2014  14:58:00     -146.590     -104.651       15.169      119.624      106.998       57.403    14309.856    11448.561     3295.100        3.086        1.453      180.112       61.886        0.118      349.814       30.517      859.895
08/29/2014  14:59:00      -71.919     -146.682        2.142      106.047       81.824       46.938    11246.019     6695.240     2203.131        2.341        1.007      163.365       50.296        0.095      349.572       30.096      859.871
08/29/2014  15:00:00       22.412      -14.523       36.743       46.177       26.216       27.368     2132.347      687.273      748.998        0.282        0.178       26.706       22.699        0.722      350.092       30.999      859.845
08/29/2014  15:01:00     -115.196        2.604       -6.182       92.388       53.758       32.604     8535.602     2889.974     1063.033        1.290        0.624      115.225       33.996        0.087      349.887       30.644      859.810
08/29/2014  15:02:00     -188.493       -1.851      -18.439       72.795       64.391       38.861     5299.099     4146.150     1510.189        2.341        0.548      188.502       40.132        0.045      349.790       30.474      859.813
08/29/2014  15:03:00     -306.208      -75.249      -30.061       82.854       81.130       45.078     6864.795     6582.044     2031.984        5.790        0.774      315.318       46.450        0.022      349.372       29.748      859.774
08/29/2014  15:04:00     -109.786       84.570       -9.515       76.772       79.895       42.659     5893.954     6383.257     1819.810        1.669        0.705      138.582       28.267        0.042      349.684       30.291      859.732
08/29/2014  15:05:00     -167.798      -69.667       -7.301       65.322       64.193       33.473     4267.018     4120.804     1120.450        2.128        0.475      181.686       26.557        0.021      349.619       30.176      859.703
08/29/2014  15:06:00     -216.174      -57.542      -22.254      100.007       82.336       46.795    10001.353     6779.166     2189.776        3.475        0.949      223.701       39.592        0.031      349.574       30.097      859.687
08/29/2014  15:07:00     -255.724        6.592      -26.256       61.008       60.847       37.873     3721.960     3702.348     1434.396        3.749        0.443      255.809       40.073        0.025      349.504       29.974      859.654
08/29/2014  15:08:00     -155.878      -56.307      -13.247       92.014       37.858       33.884     8466.490     1433.206     1148.104        1.934        0.552      165.736       46.282        0.078      349.621       30.181      859.637
08/29/2014  15:09:00      -98.926      -10.275        2.423       62.164       56.895       37.384     3864.307     3237.062     1397.569        0.920        0.425       99.458       31.637        0.101      349.720       30.355      859.633
08/29/2014  15:10:00        0.907      -48.012       12.214       38.876       45.802       28.864     1511.359     2097.810      833.148        0.345        0.222       48.020       24.081        0.251      349.785       30.469      859.621
08/29/2014  15:11:00     -156.900      -66.833        9.746       88.973       55.254       35.949     7916.112     3053.058     1292.350        2.072        0.613      170.542       35.868        0.044      349.656       30.241      859.613
08/29/2014  15:12:00     -222.042     -135.723       -4.788       93.614       78.356       43.851     8763.643     6139.665     1922.935        4.228        0.841      260.237       46.008        0.031      349.635       30.206      859.626
08/29/2014  15:13:00     -218.650     -142.380       -5.383      126.651      137.157       71.600    16040.413    18812.072     5126.628        5.404        1.999      260.922       75.004        0.083      349.676       30.277      859.622
08/29/2014  15:14:00     -201.913     -179.699        9.562      140.204      139.026       69.731    19657.171    19328.330     4862.370        5.849        2.192      270.298       67.655        0.063      349.703       30.322      859.590
08/29/2014  15:15:00     -221.038     -250.739      -13.644      118.182      124.053       56.081    13967.073    15389.131     3145.115        7.220        1.625      334.257       52.749        0.025      349.733       30.374      859.628
08/29/2014  15:16:00     -398.204     -262.852      -19.883      206.813      145.714       78.065    42771.441    21232.581     6094.199       14.906        3.505      477.135       54.902        0.013      349.568       30.088      859.583
08/29/2014  15:17:00     -328.359     -113.421       -5.531      172.975      113.707       74.859    29920.438    12929.173     5603.937        8.457        2.423      347.396       72.788        0.044      349.608       30.156      859.605
08/29/2014  15:18:00     -227.811      -94.287       -1.127      114.232      113.838       65.139    13049.000    12959.148     4243.086        4.551        1.513      246.552       61.439        0.062      349.685       30.292      859.639
08/29/2014  15:19:00     -152.749      -62.970       12.621       99.292       88.307       55.568     9858.812     7798.198     3087.855        2.410        1.037      165.219       53.628        0.105      349.710       30.336      859.635
08/29/2014  15:20:00     -134.832     -158.486       -3.058      105.543       76.754       42.350    11139.333     5891.241     1793.542        3.106        0.941      208.080       48.223        0.054      349.687       30.296      859.656
08/29/2014  15:21:00     -209.688     -138.718       -7.281      157.764      115.302       67.580    24889.631    13294.442     4567.058        5.300        2.138      251.419       77.464        0.095      349.634       30.204      859.625
08/29/2014  15:22:00     -369.927     -246.380      -17.508      160.451      134.495       78.702    25744.390    18088.932     6194.070       12.393        2.501      444.465       80.717        0.033      349.610       30.161      859.599
08/29/2014  15:23:00     -266.641     -220.089        5.882      167.472      140.537       85.120    28047.030    19750.594     7245.358        8.730        2.752      345.741       80.693        0.054      349.680       30.283      859.613
08/29/2014  15:24:00     -346.422     -202.408       -6.796      149.240      119.301       68.592    22272.664    14232.761     4704.804       10.111        2.061      401.220       59.847        0.022      349.637       30.207      859.620
08/29/2014  15:25:00     -274.815     -261.911      -11.982      158.329      151.328       59.688    25067.992    22900.255     3562.653        9.789        2.577      379.633       47.447        0.016      349.506       29.977      859.631
08/29/2014  15:26:00     -151.743     -194.168       -5.250      119.516      120.596       56.650    14283.975    14543.494     3209.233        4.639        1.602      246.429       45.965        0.035      349.558       30.070      859.613
08/29/2014  15:27:00     -128.538      -92.646       -8.367       96.407       71.703       44.670     9294.216     5141.272     1995.435        2.080        0.822      158.447       37.741        0.057      349.761       30.424      859.567
08/29/2014  15:28:00     -276.983      -51.483        8.127      174.608      108.233       66.113    30488.021    11714.293     4370.987        6.300        2.329      281.727       63.722        0.051      349.854       30.583      859.527
08/29/2014  15:29:00     -325.227     -176.212       -7.029      141.424      177.647       77.727    20000.816    31558.459     6041.513        9.723        2.880      369.896       83.435        0.051      349.627       30.190      859.492
08/29/2014  15:30:00     -172.805      -82.682        9.666       96.051       70.796       45.155     9225.855     5012.110     2038.988        2.653        0.814      191.567       47.831        0.062      349.815       30.517      859.475
08/29/2014  15:31:00     -269.167     -164.152       -1.232      149.827       94.393       63.936    22448.238     8910.063     4087.805        6.742        1.772      315.273       55.621        0.031      349.630       30.195      859.459
08/29/2014  15:32:00     -194.818     -174.683       10.853      120.672      116.804       59.372    14561.645    13643.104     3525.041        5.015        1.586      261.664       47.097        0.032      349.660       30.246      859.454
08/29/2014  15:33:00     -111.672     -328.371       -0.050      168.560      163.370       57.483    28412.615    26689.708     3304.351        8.934        2.920      346.841       57.179        0.027      349.508       29.983      859.454
08/29/2014  15:34:00     -140.991      -83.670        5.708       95.672      107.426       49.021     9153.109    11540.366     2403.071        2.500        1.155      163.949       38.881        0.056      349.601       30.146      859.459
08/29/2014  15:35:00     -124.546      -24.667       15.027      103.120       96.047       59.267    10633.828     9225.050     3512.597        1.985        1.169      126.965       59.706        0.221      349.675       30.275      859.471
08/29/2014  15:36:00     -219.116      -69.835        0.785      123.379      141.291       64.306    15222.488    19963.021     4135.207        4.610        1.966      229.975       66.115        0.083      349.595       30.134      859.484
08/29/2014  15:37:00     -130.467     -177.268        8.609      143.766      112.868       62.865    20668.562    12739.229     3952.055        4.293        1.868      220.104       51.776        0.055      349.559       30.071      859.533
08/29/2014  15:38:00     -236.724     -165.844       -5.480      180.004      134.209       78.901    32401.539    18011.925     6225.315        7.009        2.832      289.037       94.877        0.108      349.523       30.010      859.549
08/29/2014  15:39:00     -236.914     -191.136        3.833      152.544       83.169       65.307    23269.682     6917.117     4265.040        6.356        1.723      304.403       68.516        0.051      349.473       29.923      859.566
08/29/2014  15:40:00     -243.805      -95.985        4.764      167.505      155.430       75.374    28057.961    24158.357     5681.174        6.328        2.895      262.019       94.793        0.131      349.506       29.981      859.582
08/29/2014  15:41:00     -170.266      -74.972        9.081      141.121      147.610       74.123    19915.201    21788.685     5494.254        4.094        2.360      186.041       82.917        0.199      349.476       29.929      859.579
08/29/2014  15:42:00     -208.389      -31.808       -3.042      113.617       86.833       61.505    12908.782     7540.025     3782.894        3.433        1.212      210.802       57.876        0.075      349.448       29.880      859.575
08/29/2014  15:43:00     -213.187      -74.314       -1.281      198.276      118.865       80.632    39313.364    14128.793     6501.459        5.545        2.997      225.768       98.202        0.189      349.408       29.810      859.562
08/29/2014  15:44:00     -101.173     -104.153       29.150      151.483      117.642       78.952    22946.996    13839.667     6233.487        3.247        2.151      145.203       97.663        0.452      349.408       29.811      859.568
08/29/2014  15:45:00     -212.076     -108.552        8.387      117.599      126.046       65.403    13829.562    15887.692     4277.607        4.541        1.700      238.243       65.266        0.075      349.383       29.767      859.576
08/29/2014  15:46:00     -331.709     -147.618       -8.283      146.313      116.441       67.423    21407.616    13558.428     4545.885        8.569        1.976      363.073       59.230        0.027      349.300       29.623      859.597
08/29/2014  15:47:00     -290.598     -142.766       -7.835      139.767       88.785       66.065    19534.787     7882.824     4364.623        6.833        1.589      323.774       79.461        0.060      349.305       29.634      859.613
08/29/2014  15:48:00     -238.261      -82.228        5.978      120.682       98.507       51.880    14564.037     9703.604     2691.582        4.526        1.348      252.050       56.130        0.050      349.393       29.786      859.653
08/29/2014  15:49:00     -234.740      -54.360       -9.457       96.761       78.457       52.792     9362.736     6155.549     2787.042        3.822        0.915      240.952       50.153        0.043      349.445       29.874      859.695
08/29/2014  15:50:00     -270.962      -31.070       -6.098      176.944      163.020       66.793    31309.015    26575.451     4461.370        6.837        3.117      272.737       80.281        0.087      349.408       29.811      859.724
08/29/2014  15:51:00     -279.530     -145.115        2.023      186.753      143.863       63.580    34876.670    20696.587     4042.415        7.940        2.981      314.953       83.579        0.070      349.396       29.789      859.738
08/29/2014  15:52:00     -280.670     -156.406       -1.734      219.791      186.546       74.861    48308.012    34799.390     5604.129        9.596        4.436      321.307       99.292        0.095      349.411       29.815      859.760
08/29/2014  15:53:00     -253.986      -46.341       -1.742      190.477      147.777       77.128    36281.327    21838.152     5948.656        6.535        3.203      258.179       99.910        0.150      349.382       29.765      859.777
08/29/2014  15:54:00     -229.599     -193.404      -17.444      157.100      118.730       81.309    24680.417    14096.773     6611.196        6.790        2.269      300.201       70.941        0.056      349.331       29.677      859.767
08/29/2014  15:55:00     -315.037     -173.529       -1.940      142.912      106.735       67.983    20423.770    11392.343     4621.659        8.289        1.822      359.667       72.816        0.041      349.281       29.591      859.766
08/29/2014  15:56:00     -347.054     -185.008      -31.603      118.414       87.024       53.657    14021.945     7573.126     2879.124        9.007        1.224      393.287       47.667        0.015      349.295       29.615      859.754
08/29/2014  15:57:00     -167.243      -81.578       -1.398       96.741       90.856       48.439     9358.873     8254.870     2346.350        2.729        0.998      186.078       47.570        0.065      349.371       29.748      859.754
08/29/2014  15:58:00     -223.036      -52.008       -7.464       86.721       85.598       43.153     7520.516     7327.078     1862.173        3.460        0.835      229.019       42.302        0.034      349.429       29.845      859.746
08/29/2014  15:59:00     -434.096     -159.824       -5.805      216.300      169.659       95.311    46785.701    28784.162     9084.103       14.932        4.233      462.583      126.535        0.075      349.377       29.757      859.729
08/29/2014  16:00:00     -417.287     -174.861      -13.281      202.015      134.432       81.533    40809.895    18072.035     6647.630       13.519        3.276      452.444       95.912        0.045      349.337       29.688      859.769
08/29/2014  16:01:00     -226.148     -127.280        4.219      110.899      173.552       74.534    12298.646    30120.319     5555.361        5.766        2.399      259.506       66.067        0.065      349.410       29.814      859.785
08/29/2014  16:02:00     -261.002     -154.467       10.289      166.183      121.130       63.416    27616.848    14672.368     4021.586        6.919        2.316      303.285       77.109        0.065      349.444       29.871      859.791
08/29/2014  16:03:00     -262.018     -202.506       -2.858      191.717      145.043       78.564    36755.298    21037.496     6172.243        8.680        3.198      331.153       99.347        0.090      349.381       29.765      859.798
08/29/2014  16:04:00     -316.116     -182.247       -7.916      159.388      136.147       77.245    25404.529    18536.051     5966.774        9.155        2.495      364.888       91.072        0.062      349.448       29.879      859.792
08/29/2014  16:05:00     -238.973     -153.254      -12.854      192.343      165.423       83.220    36995.846    27364.766     6925.642        7.601        3.564      283.893       96.687        0.116      349.477       29.931      859.765
08/29/2014  16:06:00     -418.802      -84.189      -27.203      174.427      143.536       79.534    30424.609    20602.696     6325.677       12.028        2.868      427.180       79.068        0.034      349.367       29.739      859.761
08/29/2014  16:07:00     -400.275      -74.552       -4.139      171.405      126.105       75.765    29379.652    15902.391     5740.332       10.840        2.551      407.158       71.298        0.031      349.399       29.794      859.718
08/29/2014  16:08:00     -560.594     -104.252      -37.196      194.905      128.453       76.779    37987.891    16500.108     5894.982       19.344        3.019      570.206       84.628        0.022      349.344       29.697      859.692
08/29/2014  16:09:00     -437.834     -109.866       -6.148      156.602      139.086       70.727    24524.218    19344.804     5002.336       12.633        2.444      451.408       72.354        0.026      349.433       29.853      859.659
08/29/2014  16:10:00     -172.935      -48.381       17.458      137.428      154.951       76.595    18886.516    24009.815     5866.736        4.065        2.438      179.575       80.547        0.201      349.582       30.113      859.649
08/29/2014  16:11:00     -151.310     -127.774       -5.025      141.149      106.084       71.680    19923.139    11253.900     5138.080        3.777        1.816      198.043       78.159        0.156      349.496       29.964      859.611
08/29/2014  16:12:00     -158.283     -143.969       21.035      149.884      101.440       70.403    22465.067    10290.047     4956.635        4.196        1.886      213.964       75.380        0.124      349.523       30.009      859.595
08/29/2014  16:13:00     -297.850     -144.115      -11.176      115.756       97.578       54.997    13399.368     9521.461     3024.649        6.777        1.297      330.883       44.084        0.018      349.474       29.924      859.609
08/29/2014  16:14:00     -182.700     -144.131       13.247      193.586      123.846       82.920    37475.459    15337.752     6875.681        5.700        2.984      232.708      102.219        0.193      349.481       29.939      859.581
08/29/2014  16:15:00     -345.580     -358.577      -14.280      213.749      171.974      109.202    45688.468    29574.930    11925.036       16.768        4.359      497.999      118.791        0.057      349.330       29.675      859.560
08/29/2014  16:16:00     -290.829     -144.680        7.064      171.486      165.150       67.079    29407.499    27274.574     4499.657        8.336        3.059      324.829       73.947        0.052      349.405       29.804      859.575
08/29/2014  16:17:00     -320.171     -228.059        0.533      179.381      178.689       90.562    32177.467    31929.758     8201.475       11.340        3.615      393.091       94.817        0.058      349.408       29.811      859.597
08/29/2014  16:18:00     -502.652      -56.453       -9.063      245.603      160.429      104.858    60320.991    25737.490    10995.240       17.647        4.853      505.812      116.118        0.053      349.311       29.643      859.609
08/29/2014  16:19:00     -486.848     -161.497      -24.402      237.504      179.439      103.719    56408.380    32198.433    10757.634       18.151        4.968      512.935      120.834        0.055      349.261       29.555      859.612
08/29/2014  16:20:00     -444.632      -61.551      -16.011      185.513      115.892       73.299    34415.023    13430.938     5372.794       12.747        2.661      448.872       84.646        0.036      349.276       29.581      859.625
08/29/2014  16:21:00     -216.383      -51.314       27.307      175.152      100.731       73.814    30678.116    10146.696     5448.542        4.823        2.314      222.384       95.997        0.186      349.463       29.906      859.618
08/29/2014  16:22:00     -146.102     -101.995       18.714      139.463      115.004       69.459    19450.061    13225.854     4824.572        3.479        1.875      178.182       74.645        0.176      349.505       29.980      859.630
08/29/2014  16:23:00     -210.771     -114.033       -1.061      135.042       92.033       51.834    18236.334     8470.024     2686.714        4.341        1.470      239.641       70.428        0.086      349.508       29.982      859.621
08/29/2014  16:24:00     -184.012      -80.439       15.946      121.512       90.341       65.222    14765.246     8161.540     4253.959        3.388        1.359      200.826       69.505        0.120      349.572       30.096      859.638
08/29/2014  16:25:00     -257.589     -184.270       -4.581      142.063      117.748       77.687    20181.834    13864.666     6035.242        7.020        2.004      316.714       81.610        0.066      349.600       30.144      859.658
08/29/2014  16:26:00     -374.965     -203.022      -30.159      130.809      106.038       56.892    17111.032    11243.954     3236.684       10.715        1.580      426.399       63.513        0.022      349.627       30.190      859.652
08/29/2014  16:27:00     -429.376     -116.546      -19.220      125.353      154.399       58.339    15713.327    23839.005     3403.398       12.063        2.148      444.912       57.493        0.017      349.454       29.891      859.698
08/29/2014  16:28:00     -358.754      -48.410      -14.043      135.791      180.750       73.015    18439.221    32670.396     5331.177        9.383        2.822      362.006       84.901        0.055      349.604       30.151      859.713
08/29/2014  16:29:00     -427.276     -187.745      -26.343      210.539      153.652       82.190    44326.655    23608.846     6755.115       14.658        3.735      466.704       90.227        0.037      349.362       29.731      859.708
08/29/2014  16:30:00     -295.070      -14.749        3.852      194.690      114.115       78.205    37904.162    13022.280     6116.004        7.216        2.852      295.439       87.190        0.087      349.483       29.941      859.692
08/29/2014  16:31:00     -271.703     -118.585        8.560      129.116      181.665       62.079    16671.061    33002.003     3853.802        7.073        2.676      296.454       62.660        0.045      349.489       29.951      859.672
08/29/2014  16:32:00     -327.229     -166.212       10.339      138.220      141.382       75.837    19104.847    19988.944     5751.263        8.982        2.242      367.022       75.610        0.042      349.448       29.879      859.674
08/29/2014  16:33:00     -332.970     -184.153       13.843      236.702      150.629       96.266    56027.828    22689.013     9267.205       11.646        4.399      380.501      120.481        0.100      349.282       29.592      859.686
08/29/2014  16:34:00     -347.536     -160.138       -3.282      165.950      117.348       70.435    27539.358    13770.639     4961.046        9.634        2.314      382.656       60.151        0.025      349.281       29.592      859.713
08/29/2014  16:35:00     -236.209     -191.355        8.313      150.501      123.467       67.091    22650.424    15244.159     4501.182        6.743        2.120      303.992       72.024        0.056      349.342       29.696      859.733
08/29/2014  16:36:00     -469.296     -177.598       -6.468      199.836      152.550       83.285    39934.323    23271.465     6936.326       16.097        3.507      501.777       92.167        0.034      349.215       29.477      859.742
08/29/2014  16:37:00     -199.242      -33.938       24.732      128.061       95.236       73.987    16399.699     9069.822     5474.006        3.620        1.547      202.112       72.197        0.128      349.334       29.684      859.765
08/29/2014  16:38:00     -256.620     -150.626       -1.832      217.454      172.843       75.928    47286.368    29874.750     5765.064        8.572        4.146      297.560       92.548        0.097      349.221       29.488      859.768
08/29/2014  16:39:00     -385.236     -277.955       -8.414      161.999      103.872       85.821    26243.818    10789.397     7365.208       13.506        2.220      475.043       82.305        0.030      349.137       29.341      859.762
08/29/2014  16:40:00     -287.119     -162.041       -0.730      171.629      115.520       71.706    29456.356    13344.879     5141.703        7.831        2.397      329.689       85.818        0.068      349.216       29.478      859.808
08/29/2014  16:41:00     -284.171     -193.597       -0.031      129.435      121.637       66.224    16753.392    14795.608     4385.575        7.708        1.797      343.850       56.434        0.027      349.230       29.501      859.836
08/29/2014  16:42:00     -347.878     -306.354       13.377      180.467      151.515       93.008    32568.270    22956.756     8650.581       13.960        3.209      463.543       92.575        0.040      349.090       29.259      859.820
08/29/2014  16:43:00     -399.455     -245.697      -14.734      146.976      116.343       76.180    21602.041    13535.736     5803.466       13.054        2.047      468.969       79.890        0.029      349.052       29.193      859.852
08/29/2014  16:44:00     -367.565     -177.314       -8.886      193.175      146.389       71.987    37316.422    21429.768     5182.117       11.526        3.196      408.098       86.156        0.045      349.108       29.288      859.869
08/29/2014  16:45:00     -350.378     -263.412        6.333      210.793      177.847      106.766    44433.618    31629.589    11399.027       13.981        4.373      438.349      116.545        0.071      349.114       29.300      859.892
08/29/2014  16:46:00     -285.878     -158.139        9.187      194.871      137.706       69.784    37974.600    18962.885     4869.764        8.430        3.090      326.702       86.947        0.071      349.182       29.419      859.913
08/29/2014  16:47:00     -332.568     -199.188       -9.951      204.123      164.553       71.840    41666.140    27077.842     5160.983       11.213        3.695      387.656       91.159        0.055      349.203       29.456      859.946
08/29/2014  16:48:00     -389.670     -190.295        4.202      237.308      177.326      101.032    56314.866    31444.646    10207.525       14.300        4.898      433.653      111.515        0.066      349.123       29.317      859.979
08/29/2014  16:49:00     -374.096     -164.051       -1.894      208.585      157.815       91.164    43507.821    24905.695     8310.784       12.178        3.836      408.485      109.462        0.072      349.123       29.315      860.008
08/29/2014  16:50:00     -543.041     -295.552       -1.321      231.581      195.918      110.901    53629.794    38383.805    12299.130       24.326        5.216      618.260      134.681        0.047      348.984       29.075      859.998
08/29/2014  16:51:00     -476.911     -320.158      -19.562      241.212      165.752      103.433    58183.379    27473.735    10698.411       21.332        4.818      574.408      112.917        0.039      348.937       28.995      859.965
08/29/2014  16:52:00     -419.900     -249.765       -6.715      190.719      157.209       88.152    36373.878    24714.653     7770.833       15.379        3.443      488.568       98.203        0.040      348.943       29.004      859.998
08/29/2014  16:53:00     -271.881     -260.456      -15.096      167.859      179.556       79.196    28176.526    32240.530     6271.930       10.432        3.334      376.506       81.083        0.046      348.909       28.945      859.991
08/29/2014  16:54:00     -302.911     -212.520        8.840      219.545      139.509       86.265    48200.047    19462.623     7441.578       10.604        3.755      370.027       95.625        0.067      348.911       28.949      859.984
08/29/2014  16:55:00     -447.171     -209.303      -11.268      179.972      152.463       84.657    32390.075    23245.079     7166.783       15.334        3.140      493.731       84.825        0.030      348.891       28.914      859.977
08/29/2014  16:56:00     -369.658     -258.792       -2.169      208.475      145.378       92.367    43461.670    21134.749     8531.709       13.836        3.656      451.243      108.295        0.058      348.905       28.940      859.978
08/29/2014  16:57:00     -265.032     -101.536        5.555      162.820      130.637       83.906    26510.275    17066.140     7040.180        6.559        2.531      283.816       83.404        0.086      348.914       28.956      860.000
08/29/2014  16:58:00     -286.834     -200.606        0.883      141.743      141.007       76.097    20090.948    19882.943     5790.704        8.413        2.288      350.023       79.341        0.051      348.912       28.951      860.008
08/29/2014  16:59:00     -445.063     -214.465      -12.571      182.891      128.470       77.231    33449.259    16504.561     5964.686       15.006        2.796      494.040       76.093        0.024      348.889       28.912      860.025
08/29/2014  17:00:00     -265.958     -196.091       -5.285      145.919      125.960       69.267    21292.347    15865.934     4797.985        7.558        2.098      330.432       70.617        0.046      348.895       28.922      860.024
08/29/2014  17:01:00     -341.100      -58.058       -6.830      137.616      153.562       73.350    18938.033    23581.252     5380.282        8.382        2.395      346.006       67.819        0.038      348.903       28.935      860.018
08/29/2014  17:02:00     -369.607     -219.131      -13.137      229.263      186.901      102.170    52561.572    34932.081    10438.800       14.135        4.897      429.683      133.584        0.097      348.862       28.866      859.987
08/29/2014  17:03:00     -431.307      -55.079      -25.438      164.648      143.456       86.318    27109.040    20579.674     7450.793       12.241        2.757      434.809       75.750        0.030      348.843       28.829      860.010
08/29/2014  17:04:00     -423.999      -63.898       -2.324      198.462      162.553       92.062    39387.212    26423.555     8475.469       12.906        3.714      428.787       96.797        0.051      348.820       28.790      860.011
08/29/2014  17:05:00     -226.623      -97.955        3.751      229.192      112.533       80.430    52529.198    12663.615     6468.917        6.630        3.583      246.887      101.993        0.171      348.838       28.824      860.005
08/29/2014  17:06:00     -266.474     -103.059       -7.177      181.769      141.571       68.345    33039.898    20042.464     4671.059        6.971        2.888      285.709       86.996        0.093      348.854       28.850      860.038
08/29/2014  17:07:00     -313.655     -170.464      -15.967      134.695      157.959       67.320    18142.831    24951.034     4531.936        8.765        2.381      356.984       53.989        0.023      348.834       28.815      860.050
08/29/2014  17:08:00     -215.435      -94.439        4.764      171.146      158.241       96.234    29290.944    25040.295     9260.919        5.946        3.180      235.226      108.661        0.213      348.838       28.823      860.042
08/29/2014  17:09:00     -357.085     -229.546       -7.696      207.105      164.832       91.930    42892.660    27169.520     8451.205       12.937        3.926      424.501      106.024        0.062      348.804       28.764      860.061
08/29/2014  17:10:00     -476.669     -211.359      -37.430      177.712      164.747       82.956    31581.508    27141.470     6881.770       16.943        3.280      521.427       77.081        0.022      348.790       28.738      860.080
08/29/2014  17:11:00     -353.017     -136.255      -23.586      191.765      133.314       87.485    36773.791    17772.649     7653.705       10.296        3.110      378.400      104.289        0.076      348.794       28.746      860.112
08/29/2014  17:12:00     -244.896     -108.313       -9.439      153.314      109.457       71.516    23505.157    11980.836     5114.597        5.619        2.030      267.779       77.414        0.084      348.828       28.807      860.146
08/29/2014  17:13:00     -454.528     -166.546       -4.326      201.004      165.799       93.742    40402.581    27489.226     8787.541       15.550        3.834      484.079      104.405        0.047      348.759       28.685      860.144
08/29/2014  17:14:00     -466.323     -104.401      -26.864      181.967      119.540       75.929    33111.933    14289.816     5765.211       14.111        2.658      477.867       94.177        0.039      348.790       28.740      860.180
08/29/2014  17:15:00     -450.697     -169.962      -29.745      229.820      149.429       84.360    52817.400    22329.032     7116.546       15.756        4.113      481.679      102.587        0.045      348.771       28.707      860.177
08/29/2014  17:16:00     -284.310     -146.619       -1.638      215.168      175.453      107.339    46297.149    30783.921    11521.626        9.545        4.430      319.889      108.074        0.114      348.745       28.662      860.156
08/29/2014  17:17:00     -408.984     -256.969       -7.386      246.467      211.651      117.872    60745.844    44796.185    13893.903       17.637        5.972      483.013      134.788        0.078      348.726       28.628      860.153
08/29/2014  17:18:00     -514.880      -91.767      -28.676      195.098      156.244      106.505    38063.249    24412.097    11343.400       17.407        3.691      522.994      116.276        0.049      348.702       28.587      860.188
08/29/2014  17:19:00     -311.585      -94.414      -21.862      176.375      126.693       75.645    31108.134    16051.238     5722.132        7.967        2.644      325.575       73.268        0.051      348.712       28.605      860.174
08/29/2014  17:20:00     -325.132      -65.622        1.341      199.004      153.194       83.405    39602.736    23468.331     6956.458        9.001        3.501      331.688       80.003        0.058      348.724       28.627      860.137
08/29/2014  17:21:00     -443.721     -219.424      -15.602      248.545      218.434      108.906    61774.745    47713.531    11860.474       18.329        6.067      495.010      129.844        0.069      348.665       28.523      860.126
08/29/2014  17:22:00     -485.267     -164.769      -16.835      287.931      189.155      107.302    82904.114    35779.635    11513.822       19.653        6.510      512.478      141.204        0.076      348.608       28.425      860.133
08/29/2014  17:23:00     -506.353     -235.387      -27.518      173.394      183.297       97.683    30065.486    33597.750     9541.880       19.287        3.660      558.391       90.763        0.026      348.591       28.394      860.122
08/29/2014  17:24:00     -414.303     -191.151      -31.996      162.716      182.241       79.321    26476.655    33211.952     6291.837       13.758        3.299      456.274       74.178        0.026      348.592       28.397      860.123
08/29/2014  17:25:00     -425.508     -209.482       -6.766      239.935      193.050       85.276    57568.995    37268.392     7272.005       16.353        5.105      474.278       90.913        0.037      348.562       28.344      860.108
08/29/2014  17:26:00     -492.325     -272.844      -12.603      254.706      177.496       95.239    64875.268    31504.805     9070.508       21.120        5.273      562.875       95.807        0.029      348.526       28.283      860.081
08/29/2014  17:27:00     -418.827     -258.220      -16.204      177.115      173.691       68.134    31369.567    30168.567     4642.198       15.425        3.309      492.030       65.558        0.018      348.530       28.288      860.069
08/29/2014  17:28:00     -387.780     -179.954      -13.813      167.146      118.250       71.716    27937.693    13983.125     5143.152       11.500        2.353      427.501       74.287        0.030      348.530       28.289      860.069
08/29/2014  17:29:00     -391.311     -151.065      -13.538      145.024      131.726       76.875    21031.961    17351.609     5909.769       11.020        2.215      419.458       76.873        0.034      348.500       28.237      860.079
08/29/2014  17:30:00     -318.488     -203.892       -4.259      231.436      164.499      100.207    53562.553    27059.797    10041.498       11.683        4.533      378.162      118.744        0.099      348.525       28.280      860.083
08/29/2014  17:31:00     -275.236     -164.068       -6.110      209.854      142.627       78.556    44038.859    20342.555     6170.982        8.662        3.528      320.427       85.839        0.072      348.527       28.284      860.093
08/29/2014  17:32:00     -419.304     -249.336      -15.826      160.173      147.928       84.906    25655.267    21882.761     7209.019       14.648        2.737      487.836       80.138        0.027      348.501       28.238      860.117
08/29/2014  17:33:00     -351.856     -168.481       10.084      232.535      152.327      111.261    54072.304    23203.452    12379.010       12.095        4.483      390.114      131.138        0.113      348.460       28.170      860.098
08/29/2014  17:34:00     -374.799     -283.167      -16.314      203.752      152.279       95.134    41515.070    23188.947     9050.549       14.732        3.688      469.742       98.712        0.044      348.459       28.168      860.096
08/29/2014  17:35:00     -359.664     -237.729      -22.284      181.913      107.217       72.788    33092.441    11495.453     5298.035       11.812        2.494      431.130       71.692        0.028      348.459       28.169      860.126
08/29/2014  17:36:00     -257.738     -141.943        1.532      126.082      146.511       67.522    15896.772    21465.419     4559.249        6.424        2.096      294.239       66.787        0.052      348.460       28.170      860.136
08/29/2014  17:37:00     -203.482      -86.334       12.791      151.009      112.724       77.116    22803.869    12706.594     5946.897        4.523        2.073      221.039       80.019        0.131      348.460       28.171      860.124
08/29/2014  17:38:00     -311.911     -213.678       -6.605      197.479      144.779      107.140    38997.789    20960.965    11478.904       10.720        3.572      378.083      121.753        0.104      348.430       28.119      860.114
08/29/2014  17:39:00     -363.296     -110.680      -13.853      200.234      130.035       90.190    40093.752    16908.974     8134.228       10.477        3.257      379.782      112.990        0.089      348.412       28.088      860.121
08/29/2014  17:40:00     -288.475     -144.222        0.533      158.346      110.283       68.920    25073.497    12162.354     4750.003        7.299        2.099      322.518       82.726        0.066      348.439       28.134      860.126
08/29/2014  17:41:00     -318.305     -211.493       -5.435      181.314      137.744       76.770    32874.608    18973.313     5893.616       10.190        2.887      382.161       95.929        0.063      348.419       28.098      860.109
08/29/2014  17:42:00     -302.884     -132.688       17.758      156.953      177.782       77.031    24634.262    31606.270     5933.826        8.590        3.109      330.673       78.640        0.057      348.426       28.112      860.138
08/29/2014  17:43:00     -368.537     -272.481      -20.746      190.328      173.348      103.404    36224.607    30049.553    10692.400       14.372        3.848      458.329      101.545        0.049      348.427       28.112      860.136
08/29/2014  17:44:00     -358.521     -172.480        2.159      161.533      133.566       73.213    26093.035    17839.745     5360.093       10.378        2.465      397.853       76.525        0.037      348.431       28.119      860.153
08/29/2014  17:45:00     -354.915     -232.102       -8.078      206.969      192.010       99.426    42835.971    36867.886     9885.533       13.473        4.479      424.071      111.609        0.069      348.413       28.088      860.170
08/29/2014  17:46:00     -418.530     -226.589      -12.720      152.530      149.277       82.550    23265.362    22283.746     6814.577       13.951        2.618      475.931       70.261        0.022      348.399       28.065      860.166
08/29/2014  17:47:00     -358.911     -210.609      -10.473      180.763      177.130       96.369    32675.206    31375.210     9287.033       12.330        3.667      416.141      107.315        0.067      348.395       28.057      860.170
08/29/2014  17:48:00     -273.825     -143.209        7.733      198.691      129.634       80.653    39478.023    16805.077     6504.929        7.916        3.139      309.013      105.653        0.117      348.374       28.021      860.195
08/29/2014  17:49:00     -328.211     -232.346      -22.275      148.613      126.601       77.993    22085.789    16027.927     6082.980       10.319        2.210      402.129       72.431        0.032      348.363       28.001      860.187
08/29/2014  17:50:00     -327.516      -92.374        2.571      148.575      102.463       76.201    22074.486    10498.742     5806.643        7.709        1.919      340.293       78.393        0.053      348.359       27.994      860.178
08/29/2014  17:51:00     -298.801     -172.171       -4.382      182.759      135.949       81.170    33400.775    18482.078     6588.511        8.870        2.924      344.854       76.542        0.049      348.349       27.976      860.183
08/29/2014  17:52:00     -285.034     -170.924        1.120      188.764      135.398       79.334    35631.696    18332.697     6293.851        8.535        3.013      332.355       88.536        0.071      348.340       27.960      860.175
08/29/2014  17:53:00     -465.730     -222.062      -25.828      180.158      122.154       86.533    32456.787    14921.693     7487.895       16.086        2.743      515.962       88.450        0.029      348.292       27.876      860.158
08/29/2014  17:54:00     -319.103     -190.720       -7.761      198.022      133.427       80.347    39212.689    17802.713     6455.594       10.085        3.174      371.754       91.540        0.061      348.295       27.882      860.138
08/29/2014  17:55:00     -480.151     -166.983      -24.494      192.640      170.553       93.229    37110.233    29088.431     8691.555       16.694        3.745      508.358       88.168        0.030      348.259       27.819      860.110
08/29/2014  17:56:00     -280.865     -152.514        6.085      210.223      122.387       65.444    44193.771    14978.481     4282.920        8.281        3.173      319.603       72.565        0.052      348.255       27.815      860.095
08/29/2014  17:57:00     -221.618      -80.764      -11.624      132.794      111.687       58.371    17634.374    12473.926     3407.169        4.464        1.676      235.876       57.534        0.059      348.259       27.821      860.057
08/29/2014  17:58:00     -218.870      -94.433       -2.763       80.511       92.640       44.464     6481.993     8582.131     1977.050        3.693        0.852      238.373       47.734        0.040      348.278       27.852      860.044
08/29/2014  17:59:00     -124.507      -26.902        4.911       93.504       64.596       37.889     8742.917     4172.673     1435.611        1.530        0.718      127.380       42.217        0.110      348.254       27.813      860.035
08/29/2014  18:00:00     -113.114      -12.540       10.092       77.993       47.946       36.515     6082.855     2298.816     1333.382        1.138        0.486      113.807       34.339        0.091      348.265       27.833      860.036
08/29/2014  18:01:00     -260.523      -14.148       -1.477      115.460       71.765       47.418    13331.103     5150.219     2248.445        4.440        1.036      260.907       54.865        0.044      348.250       27.805      860.073
08/29/2014  18:02:00     -163.831      -47.316       -4.617       74.429       44.548       29.201     5539.702     1984.514      852.726        1.874        0.419      170.527       33.388        0.038      348.256       27.816      860.110
08/29/2014  18:03:00     -167.146      -65.505        1.606      122.749       58.504       49.337    15067.308     3422.730     2434.121        2.657        1.046      179.523       55.815        0.097      348.257       27.818      860.128
08/29/2014  18:04:00     -192.209      -37.963        2.492       86.051      110.612       50.073     7404.760    12234.968     2507.257        3.026        1.107      195.922       49.338        0.063      348.246       27.798      860.116
08/29/2014  18:05:00     -232.857      -84.400      -10.264       91.912       78.692       50.096     8447.903     6192.406     2509.630        3.930        0.857      247.681       48.136        0.038      348.221       27.757      860.101
08/29/2014  18:06:00     -170.502      -63.767       -1.961       82.650       71.020       41.162     6831.101     5043.795     1694.278        2.335        0.678      182.037       39.927        0.048      348.215       27.747      860.059
08/29/2014  18:07:00     -123.018      -25.568        9.465       74.976       73.378       44.399     5621.363     5384.259     1971.254        1.442        0.649      125.647       41.176        0.107      348.194       27.711      860.049
08/29/2014  18:08:00     -128.488      -42.964        4.750      107.562       85.791       48.004    11569.635     7360.094     2304.339        1.980        1.062      135.481       54.880        0.164      348.188       27.697      860.062
08/29/2014  18:09:00     -210.084      -86.806       -3.276      109.493       94.628       53.304    11988.728     8954.543     2841.340        3.773        1.189      227.312       59.750        0.069      348.182       27.690      860.068
08/29/2014  18:10:00     -292.694      -43.107        0.998      129.292       92.017       62.367    16716.365     8467.077     3889.591        5.830        1.454      295.851       62.482        0.045      348.159       27.649      860.072
08/29/2014  18:11:00     -269.743      -71.552       -6.128      120.213       98.471       59.801    14451.263     9696.449     3576.184        5.282        1.386      279.072       62.955        0.051      348.144       27.623      860.077
08/29/2014  18:12:00     -215.858      -34.414       -8.305      141.249       90.998       47.661    19951.198     8280.601     2271.612        3.917        1.525      218.584       61.240        0.078      348.140       27.618      860.077
08/29/2014  18:13:00     -194.973      -71.482       -7.495      115.599      108.623       57.857    13363.195    11799.041     3347.434        3.584        1.425      207.664       65.889        0.101      348.142       27.618      860.088
08/29/2014  18:14:00     -271.922     -120.748       -6.912      104.253       85.443       63.133    10868.766     7300.531     3985.806        5.536        1.108      297.526       62.322        0.044      348.142       27.620      860.094
08/29/2014  18:15:00     -190.488      -94.852      -12.324      118.846       87.654       48.173    14124.429     7683.187     2320.664        3.478        1.206      212.797       34.076        0.026      348.148       27.630      860.086
08/29/2014  18:16:00     -207.241      -67.935      -19.752       84.177       75.806       43.803     7085.687     5746.512     1918.730        3.135        0.738      218.092       39.453        0.033      348.122       27.584      860.082
08/29/2014  18:17:00     -180.992      -90.868       -6.720       89.863       70.659       43.428     8075.356     4992.724     1885.958        2.800        0.748      202.522       46.582        0.053      348.107       27.559      860.081
08/29/2014  18:18:00     -112.067       -4.087       22.235      115.026       79.737       68.398    13231.057     6357.923     4678.323        1.866        1.213      112.142       74.440        0.441      348.102       27.550      860.073
08/29/2014  18:19:00     -259.601       11.004      -21.618       71.276       71.805       42.558     5080.246     5155.926     1811.171        4.001        0.602      259.834       32.232        0.015      348.068       27.489      860.070
08/29/2014  18:20:00     -244.292        0.623      -18.789       79.035       65.293       38.808     6246.512     4263.127     1506.030        3.602        0.601      244.292       33.578        0.019      348.053       27.464      860.054
08/29/2014  18:21:00     -288.149      -82.353      -30.593       95.928       78.508       49.033     9202.182     6163.572     2404.241        5.426        0.888      299.686       33.541        0.013      348.069       27.493      860.032
08/29/2014  18:22:00     -329.722      -68.070      -21.707      102.455       91.077       42.103    10497.025     8294.950     1772.653        6.719        1.028      336.675       38.257        0.013      348.057       27.472      860.031
08/29/2014  18:23:00     -273.308      -97.383       -3.660       90.682       86.343       45.174     8223.292     7455.108     2040.713        5.095        0.886      290.140       42.709        0.022      348.036       27.436      860.048
08/29/2014  18:24:00     -298.992      -67.458       -0.286      120.947       73.557       56.764    14628.098     5410.691     3222.122        5.860        1.163      306.507       61.325        0.040      348.032       27.429      860.088
08/29/2014  18:25:00     -165.802      -79.175        7.162       95.126       83.814       52.569     9048.869     7024.842     2763.541        2.632        0.942      183.736       54.351        0.088      348.053       27.465      860.132
08/29/2014  18:26:00      -82.720      -63.868       10.029      114.234      101.165       57.681    13049.395    10234.357     3327.081        1.881        1.331      104.508       59.253        0.321      348.044       27.450      860.174
08/29/2014  18:27:00     -257.704      -98.250        4.226      181.113      102.606       61.377    32801.890    10528.046     3767.075        6.158        2.355      275.798       81.525        0.087      348.045       27.452      860.219
08/29/2014  18:28:00     -246.514     -110.241      -17.413       96.254      112.766       52.775     9264.841    12716.237     2785.244        4.899        1.238      270.041       37.408        0.019      348.026       27.417      860.254
08/29/2014  18:29:00      -87.730       -7.861       11.491       87.575       53.264       55.074     7669.425     2837.053     3033.154        1.071        0.677       88.081       52.762        0.359      348.020       27.410      860.278
08/29/2014  18:30:00     -255.486      -44.527      -30.402      153.716      114.148       58.929    23628.526    13029.728     3472.667        5.415        2.007      259.338       63.628        0.060      348.002       27.378      860.286
08/29/2014  18:31:00     -269.920      -94.222       -6.401      136.493       86.865       55.408    18630.460     7545.567     3070.001        5.550        1.462      285.893       49.392        0.030      348.009       27.389      860.278
08/29/2014  18:32:00     -211.593      -49.630        3.697      158.760      100.521       73.465    25204.705    10104.479     5397.127        4.397        2.035      217.335       82.400        0.144      347.984       27.347      860.257
08/29/2014  18:33:00     -300.983        2.344      -20.143      100.314       97.635       56.590    10062.800     9532.627     3202.433        5.690        1.140      300.992       50.830        0.029      347.970       27.324      860.226
08/29/2014  18:34:00     -210.182      -77.998        1.276      101.622      111.185       55.352    10327.095    12362.178     3063.789        3.800        1.288      224.188       54.755        0.060      347.969       27.320      860.222
08/29/2014  18:35:00     -313.709     -136.681      -11.676      111.339      128.125       62.050    12396.369    16416.125     3850.244        7.494        1.633      342.192       46.181        0.018      347.947       27.282      860.207
08/29/2014  18:36:00     -219.550      -87.752      -12.473      128.248      127.158       62.707    16447.588    16169.219     3932.211        4.630        1.827      236.438       62.927        0.071      347.959       27.304      860.196
08/29/2014  18:37:00     -363.437      -68.877       -8.693      177.608      110.847       78.703    31544.461    12287.111     6194.240        9.346        2.501      369.906       86.893        0.055      347.929       27.250      860.198
08/29/2014  18:38:00     -149.561      -56.805        1.840      125.630       97.894       52.125    15782.851     9583.208     2717.022        2.684        1.404      159.985       57.089        0.127      347.922       27.239      860.192
08/29/2014  18:39:00     -255.934      -47.438      -11.780      103.108       94.497       52.401    10631.200     8929.609     2745.855        4.509        1.115      260.294       58.105        0.050      347.911       27.219      860.178
08/29/2014  18:40:00     -278.812      -88.774       -2.032      148.247       94.598       55.441    21977.283     8948.829     3073.720        5.980        1.700      292.604       57.351        0.038      347.904       27.207      860.160
08/29/2014  18:41:00     -316.610      -96.471      -21.857      144.284       98.821       58.651    20817.850     9765.541     3439.992        7.202        1.701      330.981       52.586        0.025      347.902       27.204      860.151
08/29/2014  18:42:00     -333.631      -24.211      -23.656      137.983       95.438       63.893    19039.433     9108.496     4082.305        7.234        1.612      334.508       73.639        0.048      347.906       27.209      860.158
08/29/2014  18:43:00     -311.335      -58.022      -10.959      151.316      101.890       62.633    22896.464    10381.531     3922.843        6.880        1.860      316.695       70.555        0.050      347.912       27.220      860.157
08/29/2014  18:44:00     -320.055      -99.523      -11.715      136.068      115.243       54.989    18514.598    13280.861     3023.810        7.364        1.741      335.171       50.175        0.022      347.919       27.232      860.184
08/29/2014  18:45:00     -294.471      -76.947      -14.502      107.134       72.154       48.328    11477.765     5206.161     2335.643        5.593        0.951      304.358       45.346        0.022      347.944       27.277      860.215
08/29/2014  18:46:00     -193.567     -125.142      -13.345       96.573       97.722       52.568     9326.322     9549.555     2763.438        3.747        1.082      230.496       49.552        0.046      347.958       27.303      860.220
08/29/2014  18:47:00     -102.126      -58.477       11.403       97.307       82.515       56.367     9468.672     6808.683     3177.272        1.671        0.973      117.683       56.495        0.230      348.007       27.389      860.218
08/29/2014  18:48:00     -252.468      -72.180      -13.411      153.890       92.752       58.935    23682.271     8602.938     3473.309        5.244        1.788      262.583       72.864        0.077      347.957       27.300      860.221
08/29/2014  18:49:00     -227.319      -56.781        2.626      156.758       90.937       51.094    24572.960     8269.625     2610.635        4.517        1.773      234.304       59.205        0.064      347.945       27.278      860.210
08/29/2014  18:50:00     -164.499      -90.669        4.790      158.531      115.519       64.774    25131.921    13344.747     4195.693        3.898        2.134      187.832       75.935        0.163      347.964       27.312      860.202
08/29/2014  18:51:00     -256.093     -197.764      -11.151      186.395      133.886       81.231    34743.241    17925.550     6598.491        8.203        2.963      323.565       96.140        0.088      347.911       27.219      860.168
08/29/2014  18:52:00     -392.677     -231.086      -14.616      162.579      135.814       75.874    26431.888    18445.539     5756.809       12.921        2.532      455.626       70.521        0.024      347.890       27.183      860.181
08/29/2014  18:53:00     -381.428     -176.892      -20.345      151.370      115.315       67.368    22912.799    13297.472     4538.430       10.896        2.037      420.450       67.009        0.025      347.868       27.145      860.180
08/29/2014  18:54:00     -266.695      -62.386       -2.091      163.649      114.678       65.138    26780.838    13150.941     4242.958        5.959        2.209      273.894       83.964        0.094      347.872       27.152      860.197
08/29/2014  18:55:00     -401.551     -107.738       -7.422      141.403      103.819       68.928    19994.830    10778.422     4751.013       10.421        1.776      415.753       67.857        0.027      347.835       27.088      860.223
08/29/2014  18:56:00     -260.040      -54.404       -5.218      143.747      150.248       65.061    20663.244    22574.327     4232.883        5.903        2.374      265.670       68.064        0.066      347.845       27.105      860.246
08/29/2014  18:57:00     -309.417     -238.626       -3.472      192.217      178.738       88.519    36947.566    31947.110     7835.640       11.470        3.837      390.744      109.526        0.079      347.817       27.056      860.250
08/29/2014  18:58:00     -306.598     -190.525       -7.957      204.168      160.395       94.860    41684.489    25726.425     8998.452       10.337        3.820      360.974      103.890        0.083      347.820       27.062      860.273
08/29/2014  18:59:00     -288.038     -147.656      -11.826      181.219      117.793       73.484    32840.333    13875.308     5399.894        7.850        2.606      323.679       84.381        0.068      347.825       27.070      860.307
08/29/2014  19:00:00     -380.292     -177.482      -15.416      114.296      102.197       54.530    13063.673    10444.196     2973.486       10.142        1.324      419.669       49.227        0.014      347.817       27.056      860.341
08/29/2014  19:01:00     -198.127      -88.016       -0.708      107.944       92.482       50.712    11651.957     8552.865     2571.703        3.488        1.139      216.798       51.152        0.056      347.824       27.068      860.369
08/29/2014  19:02:00     -315.827      -53.169      -19.631      115.912       89.961       60.308    13435.516     8093.017     3637.076        6.406        1.258      320.271       58.037        0.033      347.818       27.057      860.382
08/29/2014  19:03:00     -331.594      -82.205      -14.598      128.682       96.493       65.908    16559.094     9310.919     4343.836        7.356        1.511      341.631       52.777        0.024      347.794       27.018      860.377
08/29/2014  19:04:00     -292.667      -93.020       -2.362      135.810      119.876       60.811    18444.326    14370.316     3698.004        6.541        1.826      307.094       70.095        0.052      347.774       26.983      860.382
08/29/2014  19:05:00     -215.275       -4.749        2.760      138.448       93.590       60.687    19167.771     8759.042     3682.895        3.899        1.580      215.328       66.814        0.096      347.759       26.958      860.370
08/29/2014  19:06:00     -291.232     -136.909       -6.451      192.115      127.558       80.101    36908.226    16271.007     6416.158        8.159        2.980      321.807       83.767        0.068      347.753       26.948      860.365
08/29/2014  19:07:00     -236.391     -167.220        6.305      192.517      128.357       82.350    37062.967    16475.605     6781.479        7.209        3.016      289.557       93.152        0.103      347.744       26.933      860.350
08/29/2014  19:08:00     -132.615      -56.797       14.587      121.724      100.264       65.451    14816.635    10052.786     4283.853        2.508        1.458      144.265       77.589        0.289      347.720       26.892      860.344
08/29/2014  19:09:00     -249.590     -103.116      -12.639      156.609       95.517       67.451    24526.344     9123.557     4549.578        5.564        1.910      270.051       69.664        0.067      347.728       26.903      860.342
08/29/2014  19:10:00     -375.468     -105.233       -4.888      133.883      128.288       67.314    17924.709    16457.692     4531.171        9.549        1.946      389.936       64.845        0.028      347.710       26.874      860.329
08/29/2014  19:11:00     -447.960     -160.639      -16.483      184.992      143.453       79.289    34221.866    20578.733     6286.701       14.390        3.054      475.891       79.413        0.028      347.705       26.863      860.301
08/29/2014  19:12:00     -287.096     -104.859        7.389      168.030      145.668       77.298    28233.932    21219.176     5974.926        7.444        2.771      305.646       82.651        0.073      347.686       26.832      860.296
08/29/2014  19:13:00     -305.806      -78.454        1.926      149.997      122.275       72.483    22499.248    14951.073     5253.767        7.118        2.135      315.709       74.387        0.056      347.675       26.812      860.286
08/29/2014  19:14:00     -194.473     -116.636       -3.527      160.312      103.674       70.870    25699.826    10748.203     5022.522        4.644        2.074      226.768       73.342        0.105      347.677       26.816      860.269
08/29/2014  19:15:00     -416.673     -182.574      -18.000      213.694      141.385       79.443    45664.923    19989.756     6311.119       13.961        3.598      454.917       84.772        0.035      347.665       26.795      860.280
08/29/2014  19:16:00     -320.107     -180.826       -4.419      165.093      122.095       70.018    27255.854    14907.143     4902.546        9.112        2.353      367.650       71.690        0.038      347.667       26.797      860.295
08/29/2014  19:17:00     -258.654     -206.110       11.535      184.047      138.603       94.386    33873.411    19210.835     8908.690        8.574        3.100      330.731       91.904        0.077      347.644       26.760      860.308
08/29/2014  19:18:00     -272.447     -209.202       -5.634      177.114      131.377       88.499    31369.497    17259.886     7832.027        8.723        2.823      343.501       98.624        0.082      347.643       26.757      860.296
08/29/2014  19:19:00     -325.600      -78.206       -3.955      175.382      138.830       70.169    30758.815    19273.799     4923.652        8.354        2.748      334.860       68.674        0.042      347.626       26.728      860.282
08/29/2014  19:20:00     -316.054     -127.220       -8.501      167.555      127.666       84.978    28074.583    16298.677     7221.318        8.386        2.580      340.698       91.954        0.073      347.617       26.712      860.259
08/29/2014  19:21:00     -312.252     -109.226       -6.787      178.156      161.882       79.296    31739.723    26205.709     6287.896        8.684        3.212      330.805       87.998        0.071      347.622       26.722      860.234
08/29/2014  19:22:00     -313.457     -160.882      -13.236      179.977      145.055       78.868    32391.676    21040.957     6220.235        9.197        2.983      352.332       80.277        0.052      347.597       26.679      860.201
08/29/2014  19:23:00     -361.894     -168.977       -9.804      205.578      138.446       80.897    42262.466    19167.200     6544.250       11.378        3.399      399.400       89.491        0.050      347.600       26.685      860.204
08/29/2014  19:24:00     -260.970      -98.961        4.266      146.612      137.657       81.237    21495.013    18949.418     6599.370        6.247        2.352      279.103       75.461        0.073      347.585       26.659      860.191
08/29/2014  19:25:00     -341.123     -158.302        9.557      221.741      154.469       91.476    49168.948    23860.556     8367.809       11.144        4.070      376.064      116.490        0.096      347.567       26.628      860.173
08/29/2014  19:26:00     -351.428      -52.944       -8.335      187.614      159.513       74.187    35198.928    25444.316     5503.755        9.625        3.307      355.393       77.405        0.047      347.569       26.631      860.189
08/29/2014  19:27:00     -373.577     -195.981      -11.673      178.168      127.139       76.477    31743.940    16164.204     5848.777       11.592        2.688      421.863       85.527        0.041      347.534       26.570      860.167
08/29/2014  19:28:00     -370.479     -227.501        7.018      190.088      147.951       79.117    36133.568    21889.630     6259.532       12.666        3.214      434.755       81.023        0.035      347.557       26.610      860.164
08/29/2014  19:29:00     -231.993      -78.859       -8.349      163.015      135.862       78.609    26573.845    18458.525     6179.433        5.565        2.561      245.030       79.762        0.106      347.532       26.566      860.164
08/29/2014  19:30:00     -301.720      -94.093        4.358      174.601      128.034       64.733    30485.444    16392.816     4190.339        7.548        2.553      316.052       71.590        0.051      347.502       26.515      860.191
08/29/2014  19:31:00     -419.318      -53.854      -18.905      199.322      141.012       81.813    39729.424    19884.414     6693.358       12.268        3.315      422.762       91.904        0.047      347.501       26.512      860.203
08/29/2014  19:32:00     -161.566     -118.262        5.100      168.284      107.800       69.110    28319.578    11620.942     4776.191        4.241        2.236      200.224       87.655        0.192      347.493       26.498      860.202
08/29/2014  19:33:00     -171.038      -28.042        0.307      137.939       75.414       54.729    19027.204     5687.307     2995.299        2.887        1.385      173.321       67.711        0.153      347.474       26.466      860.195
08/29/2014  19:34:00     -311.600      -81.841       -2.068      173.538      107.945       73.530    30115.296    11652.074     5406.664        7.548        2.359      322.168       83.653        0.067      347.451       26.425      860.180
08/29/2014  19:35:00     -343.193      -96.226       -5.130      187.538      140.412       76.751    35170.444    19715.459     5890.684        9.391        3.039      356.428       81.349        0.052      347.437       26.402      860.183
08/29/2014  19:36:00     -248.746      -67.560      -14.346      132.466      130.122       68.083    17547.194    16931.817     4635.284        5.287        1.956      257.757       52.191        0.041      347.429       26.388      860.187
08/29/2014  19:37:00     -272.558      -79.144        4.132      216.980      110.603       79.206    47080.229    12233.129     6273.552        7.306        3.279      283.816       97.344        0.118      347.413       26.360      860.202
08/29/2014  19:38:00     -276.281     -121.019       11.145      165.119      124.825       72.500    27264.308    15581.302     5256.217        6.959        2.405      301.624       83.269        0.076      347.418       26.368      860.223
08/29/2014  19:39:00     -284.825      -38.460      -31.494      129.396      105.752       62.269    16743.364    11183.414     3877.444        5.769        1.590      287.410       47.714        0.028      347.428       26.386      860.222
08/29/2014  19:40:00     -330.626      -87.234      -14.691      203.214      135.584       79.516    41295.962    18382.988     6322.724        9.156        3.300      341.940       91.687        0.072      347.410       26.355      860.216
08/29/2014  19:41:00     -398.263     -119.124      -17.958      186.686      146.285       68.453    34851.777    21399.438     4685.819       11.702        3.047      415.697       66.781        0.026      347.414       26.363      860.181
08/29/2014  19:42:00     -162.234     -139.217       12.575      203.888      167.407       92.781    41570.187    28025.030     8608.244        6.202        3.910      213.778       98.567        0.213      347.423       26.380      860.131
08/29/2014  19:43:00     -240.224     -101.654        8.163      177.517      118.635       75.375    31512.163    14074.270     5681.354        5.968        2.563      260.847       90.930        0.122      347.393       26.327      860.135
08/29/2014  19:44:00     -283.702     -121.101      -15.349      171.145      109.949       78.667    29290.572    12088.763     6188.496        7.147        2.378      308.468       89.302        0.084      347.391       26.323      860.128
08/29/2014  19:45:00     -299.079     -105.501       -6.679      161.980      177.775       97.896    26237.539    31603.791     9583.563        8.401        3.371      317.142       94.687        0.089      347.388       26.317      860.137
08/29/2014  19:46:00     -320.941      -98.102        2.891      163.625      141.503       85.749    26773.241    20023.015     7352.862        8.338        2.707      335.600       84.585        0.064      347.382       26.307      860.128
08/29/2014  19:47:00     -150.767      -34.933       12.708      196.293      146.825       74.051    38531.063    21557.669     5483.538        4.483        3.279      154.761       73.773        0.227      347.369       26.288      860.137
08/29/2014  19:48:00     -321.989     -132.038      -17.466      154.961      135.396       70.974    24013.059    18332.161     5037.287        8.439        2.369      348.009       71.960        0.043      347.379       26.302      860.165
08/29/2014  19:49:00     -211.455      -60.458       11.723      177.611      114.490       65.684    31545.820    13107.958     4314.368        4.873        2.448      219.928       86.213        0.154      347.367       26.283      860.191
08/29/2014  19:50:00     -298.336     -114.961       -6.533      165.313      148.613       68.656    27328.537    22085.916     4713.704        7.818        2.706      319.719       64.391        0.041      347.359       26.267      860.203
08/29/2014  19:51:00     -259.708     -129.947      -17.628      107.427       92.445       58.107    11540.532     8546.009     3376.440        5.405        1.173      290.403       53.764        0.034      347.345       26.244      860.204
08/29/2014  19:52:00     -401.500     -220.414      -15.750      219.639      167.705       88.975    48241.354    28125.009     7916.606       14.714        4.214      458.023       98.323        0.046      347.334       26.224      860.199
08/29/2014  19:53:00     -267.619     -217.988       -7.838      140.388      143.798       70.735    19708.764    20677.800     5003.488        8.229        2.270      345.165       59.399        0.030      347.324       26.206      860.189
08/29/2014  19:54:00     -343.643     -166.346        1.989      163.698      144.111       84.108    26797.026    20768.016     7074.136       10.019        2.732      381.787       84.725        0.049      347.304       26.173      860.211
08/29/2014  19:55:00     -410.438     -244.619        3.619      164.322      138.847       86.948    27001.625    19278.406     7559.979       14.106        2.692      477.805       91.450        0.037      347.309       26.182      860.229
08/29/2014  19:56:00     -292.879     -140.297      -15.631      165.044      132.176       79.416    27239.523    17470.456     6306.827        7.835        2.551      324.748       73.227        0.051      347.310       26.184      860.252
08/29/2014  19:57:00     -378.725     -223.925       -6.771      215.232      166.852       85.121    46324.847    27839.501     7245.605       13.750        4.070      439.972      100.464        0.052      347.308       26.180      860.259
08/29/2014  19:58:00     -291.829     -127.147       15.575      225.901      132.771       82.827    51031.158    17628.092     6860.259        8.853        3.776      318.324      108.830        0.117      347.299       26.163      860.260
08/29/2014  19:59:00     -303.849     -231.414        8.904      228.555      188.606      104.008    52237.257    35572.175    10817.577       12.227        4.931      381.938      123.758        0.105      347.304       26.173      860.250
08/29/2014  20:00:00     -418.321     -189.301       -2.428      213.194      186.605       88.183    45451.492    34821.285     7776.303       14.942        4.402      459.159       99.964        0.047      347.282       26.134      860.255
08/29/2014  20:01:00     -266.156     -193.910      -11.311      160.165      139.083       72.474    25652.863    19344.097     5252.550        7.940        2.512      329.302       69.011        0.044      347.292       26.152      860.275
08/29/2014  20:02:00     -314.291     -109.534       -9.185      232.639      163.317      102.571    54121.096    26672.436    10520.720       10.107        4.566      332.831      119.453        0.129      347.281       26.134      860.250
08/29/2014  20:03:00     -343.719     -129.770       -6.083      176.350      137.364       85.361    31099.309    18868.835     7286.537        9.613        2.863      367.400       88.105        0.058      347.278       26.128      860.293
08/29/2014  20:04:00     -235.924     -123.975        3.067      163.068      161.584       68.605    26591.108    26109.543     4706.636        6.421        2.870      266.514       83.946        0.099      347.254       26.087      860.319
08/29/2014  20:05:00     -326.668     -196.861      -17.332      152.336      119.363       75.410    23206.167    14247.619     5686.673        9.444        2.157      381.400       76.851        0.041      347.256       26.090      860.331
08/29/2014  20:06:00     -398.190     -309.561       -8.202      209.432      194.371      105.410    43861.624    37780.136    11111.290       17.358        4.638      504.364      109.779        0.047      347.258       26.093      860.351
08/29/2014  20:07:00     -388.176     -201.732      -20.831      151.423      145.284       85.333    22928.971    21107.569     7281.715       12.155        2.566      437.466       82.256        0.035      347.253       26.085      860.367
08/29/2014  20:08:00     -293.680     -104.956        6.774      224.216      163.025      100.811    50272.926    26577.289    10162.847        9.214        4.351      311.871      110.993        0.127      347.257       26.092      860.400
08/29/2014  20:09:00     -393.373     -243.680       -6.158      243.574      213.791      119.293    59328.287    45706.490    14230.901       16.669        5.963      462.733      118.249        0.065      347.287       26.144      860.383
08/29/2014  20:10:00     -380.748     -224.030       -1.587      155.947      153.282       88.038    24319.442    23495.353     7750.610       12.535        2.778      441.767       82.030        0.034      347.246       26.073      860.417
08/29/2014  20:11:00     -344.178      -95.960       -0.790      196.794      172.428       91.246    38727.947    29731.447     8325.842       10.221        3.839      357.305       78.266        0.048      347.233       26.049      860.407
08/29/2014  20:12:00     -314.973     -161.596       -7.136      206.032      150.854       89.475    42449.077    22757.041     8005.728        9.928        3.661      354.008      105.305        0.088      347.228       26.042      860.421
08/29/2014  20:13:00     -299.233     -156.563       -9.538      159.210      103.814       77.577    25347.836    10777.248     6018.259        7.814        2.107      337.717       85.603        0.064      347.205       26.002      860.402
08/29/2014  20:14:00     -262.129     -208.013       -7.428      173.598      137.082       80.777    30136.288    18791.532     6524.889        8.373        2.773      334.635       81.300        0.059      347.190       25.974      860.399
08/29/2014  20:15:00     -293.717     -165.482        4.775      214.430      122.620       94.134    45980.213    15035.683     8861.183        9.176        3.494      337.126      100.565        0.089      347.169       25.941      860.404
08/29/2014  20:16:00     -334.826     -195.721        0.068      192.043      115.646       83.746    36880.481    13374.055     7013.399       10.383        2.863      387.834       98.565        0.065      347.163       25.931      860.410
08/29/2014  20:17:00     -286.244     -193.269      -21.491      184.617      136.062       90.697    34083.389    18512.781     8226.029        9.027        3.041      345.381       99.781        0.083      347.138       25.887      860.434
08/29/2014  20:18:00     -294.481     -148.094      -10.966      177.323      172.857       82.777    31443.377    29879.686     6851.976        8.846        3.409      329.623       85.802        0.068      347.167       25.937      860.444
08/29/2014  20:19:00     -394.793     -251.574      -22.717      203.279      138.249       91.462    41322.470    19112.683     8365.356       14.422        3.440      468.136       97.977        0.044      347.160       25.927      860.459
08/29/2014  20:20:00     -235.676     -124.165       -8.130      198.138      151.797       81.416    39258.504    23042.257     6628.587        6.996        3.446      266.383      100.360        0.142      347.131       25.876      860.476
08/29/2014  20:21:00     -160.079      -83.844       21.668      157.003      128.709       69.699    24650.000    16565.912     4857.909        3.959        2.304      180.708       84.099        0.217      347.100       25.823      860.482
08/29/2014  20:22:00     -222.933      -79.650        6.098      157.954       94.484       69.090    24949.456     8927.245     4773.368        4.736        1.933      236.734       74.900        0.100      347.084       25.794      860.492
08/29/2014  20:23:00     -222.228      -59.483      -13.176      100.981       74.067       54.396    10197.147     5485.948     2958.932        3.587        0.932      230.051       54.917        0.057      347.083       25.791      860.511
08/29/2014  20:24:00     -329.283      -57.521      -26.224      107.173      101.345       55.539    11486.075    10270.865     3084.622        6.863        1.242      334.269       49.672        0.022      347.072       25.771      860.535
08/29/2014  20:25:00     -329.525      -42.258       -9.299      156.833      104.708       69.699    24596.598    10963.696     4858.005        7.543        2.021      332.224       78.881        0.056      347.040       25.718      860.560
08/29/2014  20:26:00     -393.554     -139.190      -15.017      164.536      125.766       77.623    27072.067    15817.158     6025.302       11.169        2.446      417.443       71.330        0.029      347.067       25.763      860.594
08/29/2014  20:27:00     -299.537      -57.360       -8.569      152.997      114.782       68.996    23408.014    13175.009     4760.467        6.721        2.067      304.980       72.746        0.057      347.012       25.669      860.633
08/29/2014  20:28:00     -298.649      -72.102        0.929      183.822      156.694       71.969    33790.577    24553.028     5179.467        7.894        3.176      307.229       86.262        0.079      346.974       25.605      860.659
08/29/2014  20:29:00     -452.017      -69.674      -30.632      128.307      131.331       63.637    16462.742    17247.754     4049.617       12.393        1.888      457.355       61.236        0.018      347.010       25.666      860.668
08/29/2014  20:30:00     -551.257     -131.908      -25.813      197.578      153.899       86.912    39037.107    23684.781     7553.723       19.610        3.514      566.819       91.881        0.026      347.023       25.689      860.667
08/29/2014  20:31:00     -427.367      -36.028      -32.533      195.010      118.243       73.394    38028.989    13981.510     5386.609       12.119        2.870      428.883       95.516        0.050      346.989       25.631      860.655
08/29/2014  20:32:00     -247.047      -71.740       -4.267      174.216      123.751       70.688    30351.048    15314.324     4996.766        5.842        2.533      257.252       88.132        0.117      346.965       25.590      860.659
08/29/2014  20:33:00     -333.309      -22.891       -6.939      212.875      109.577       67.877    45315.840    12007.151     4607.355        8.679        3.097      334.094       87.723        0.069      346.926       25.523      860.656
08/29/2014  20:34:00     -379.727      -45.210      -15.270      196.136      129.563       80.829    38469.213    16786.603     6533.405       10.412        3.089      382.409       98.047        0.066      346.920       25.512      860.649
08/29/2014  20:35:00     -237.155      -73.189       13.711      189.401      124.193       74.559    35872.855    15423.828     5559.082        5.931        2.843      248.191       89.190        0.129      346.892       25.465      860.661
08/29/2014  20:36:00     -387.133      -17.586      -29.922      126.853      113.604       64.434    16091.610    12905.763     4151.699        9.211        1.657      387.532       50.724        0.017      346.909       25.490      860.657
08/29/2014  20:37:00     -352.269      -39.722      -28.086      153.195      133.042       62.870    23468.789    17700.119     3952.654        8.578        2.256      354.501       61.017        0.030      346.881       25.444      860.646
08/29/2014  20:38:00     -392.166      -88.196      -12.250      207.535      162.042       79.791    43070.583    26257.543     6366.542       11.869        3.785      401.961       93.800        0.054      346.875       25.433      860.642
08/29/2014  20:39:00     -436.614       -4.693      -21.867      195.876      154.089       78.591    38367.215    23743.354     6176.583       12.970        3.414      436.640       89.304        0.042      346.902       25.480      860.634
08/29/2014  20:40:00     -317.833      -51.034      -21.696      146.302      156.211       66.853    21404.197    24401.799     4469.369        7.717        2.514      321.904       71.417        0.049      346.854       25.397      860.645
08/29/2014  20:41:00     -346.272        1.847      -13.762      172.070      104.881       70.140    29607.951    10999.954     4919.622        8.280        2.276      346.277       82.539        0.057      346.831       25.359      860.661
08/29/2014  20:42:00     -274.247      -37.914      -12.547      129.704      123.162       61.978    16823.103    15169.000     3841.251        5.631        1.792      276.856       70.066        0.064      346.786       25.283      860.693
08/29/2014  20:43:00     -303.987      -55.161       -8.911      163.077      147.712       71.665    26594.096    21818.816     5135.940        7.453        2.677      308.951       76.596        0.061      346.760       25.236      860.686
08/29/2014  20:44:00     -375.774      -53.094      -16.220      130.727      109.496       61.682    17089.580    11989.422     3804.724        8.858        1.644      379.506       60.119        0.025      346.796       25.298      860.693
08/29/2014  20:45:00     -320.762      -40.692      -22.347      130.631      112.623       62.903    17064.407    12683.835     3956.771        6.937        1.685      323.333       61.840        0.037      346.752       25.222      860.714
08/29/2014  20:46:00     -316.972      -23.646       -6.416      138.479      129.252       62.393    19176.571    16706.174     3892.935        7.042        1.989      317.852       64.682        0.041      346.753       25.225      860.718
08/29/2014  20:47:00     -254.990       -7.810       -6.782      119.466      116.275       52.461    14272.133    13519.974     2752.197        4.783        1.527      255.109       51.229        0.040      346.714       25.158      860.711
08/29/2014  20:48:00     -263.054      -35.158       -7.428      107.014       99.998       46.813    11451.982     9999.515     2191.461        4.706        1.182      265.393       54.896        0.043      346.672       25.084      860.716
08/29/2014  20:49:00     -274.542      -11.048       -9.690      141.223       93.140       62.800    19944.053     8675.038     3943.900        5.407        1.628      274.764       72.288        0.069      346.639       25.029      860.722
08/29/2014  20:50:00     -303.130      -45.594       -8.187      165.060      118.821       75.186    27244.655    14118.454     5652.875        7.052        2.351      306.540       83.944        0.075      346.663       25.069      860.731
08/29/2014  20:51:00     -345.419      -28.498      -19.784      174.142      146.888       68.593    30325.501    21576.078     4705.037        8.855        2.830      346.593       76.472        0.049      346.640       25.031      860.745
08/29/2014  20:52:00     -342.665      -41.348      -18.890      150.159      135.366       70.533    22547.813    18324.080     4974.960        8.266        2.292      345.151       71.458        0.043      346.649       25.044      860.766
08/29/2014  20:53:00     -297.253      -87.035      -15.327      117.502      114.886       56.718    13806.832    13198.727     3216.890        6.319        1.511      309.733       57.488        0.034      346.622       24.999      860.763
08/29/2014  20:54:00     -200.816       -5.587        4.254      147.647      112.859       75.134    21799.534    12737.060     5645.055        4.027        2.009      200.894       80.603        0.161      346.597       24.955      860.752
08/29/2014  20:55:00     -172.598      -81.003       -2.921      136.664       96.396       66.831    18677.153     9292.156     4466.416        3.439        1.622      190.661       76.102        0.159      346.563       24.899      860.747
08/29/2014  20:56:00     -291.367      -74.483       -1.096      151.025      132.531       72.718    22808.419    17564.504     5287.930        6.804        2.283      300.737       75.849        0.064      346.630       25.012      860.725
08/29/2014  20:57:00     -283.678      -70.344      -20.873      157.741      124.601       70.387    24882.349    15525.427     4954.376        6.560        2.268      292.270       80.196        0.075      346.647       25.043      860.710
08/29/2014  20:58:00     -237.388     -132.847        8.353      173.453      144.921       90.026    30085.815    21002.146     8104.689        6.662        2.960      272.032       95.803        0.124      346.677       25.094      860.676
08/29/2014  20:59:00     -289.650      -60.537      -22.760      144.439      113.451       64.475    20862.691    12871.031     4157.085        6.298        1.895      295.909       61.776        0.044      346.661       25.065      860.683
08/29/2014  21:00:00     -272.123       10.671        7.345      222.596      125.641       80.730    49549.007    15785.686     6517.326        7.302        3.593      272.332       98.844        0.132      346.658       25.060      860.655
08/29/2014  21:01:00     -394.903     -128.785      -23.603      164.874      149.228       80.534    27183.569    22268.922     6485.699       11.450        2.797      415.372       80.282        0.037      346.685       25.105      860.676
08/29/2014  21:02:00     -192.809      -41.026        5.379      160.206      116.984       73.485    25666.037    13685.304     5400.084        4.181        2.238      197.125       83.899        0.181      346.638       25.026      860.676
08/29/2014  21:03:00     -378.073     -173.179      -12.624      197.035      184.084       84.886    38822.810    33886.999     7205.685       12.649        3.996      415.848       90.580        0.047      346.648       25.043      860.669
08/29/2014  21:04:00     -389.836      -63.311      -17.030      206.776      130.553       93.904    42756.506    17044.036     8817.962       11.243        3.431      394.944      102.275        0.067      346.631       25.013      860.656
08/29/2014  21:05:00     -282.159       -3.524      -19.656      151.214      106.382       72.445    22865.653    11317.201     5248.239        5.971        1.972      282.181       66.448        0.055      346.613       24.984      860.685
08/29/2014  21:06:00     -397.377      -44.814      -21.660      181.054      163.750       88.442    32780.490    26813.905     7822.040       11.389        3.371      399.896       76.524        0.037      346.617       24.990      860.683
08/29/2014  21:07:00     -352.386      -22.078      -13.838      141.695      167.290       80.124    20077.353    27985.803     6419.796        8.966        2.724      353.077       75.478        0.046      346.606       24.972      860.678
08/29/2014  21:08:00     -227.350      -70.751       -1.404      185.453      130.978       74.808    34392.971    17155.116     5596.294        5.691        2.857      238.104       80.185        0.113      346.560       24.894      860.672
08/29/2014  21:09:00     -395.662      -75.341      -21.262      148.329      131.806       69.362    22001.473    17372.704     4811.059       10.342        2.209      402.771       74.434        0.034      346.583       24.931      860.675
08/29/2014  21:10:00     -452.709      -91.895      -31.367      250.902      192.527       86.799    62951.877    37066.803     7534.141       16.094        5.378      461.942      108.166        0.055      346.602       24.964      860.663
08/29/2014  21:11:00     -329.167        5.397       -8.454      190.974      167.827       75.431    36470.945    28165.875     5689.865        8.937        3.516      329.211       83.874        0.065      346.544       24.864      860.685
08/29/2014  21:12:00     -389.594      -74.446       -7.157      191.873      126.869       69.894    36815.139    16095.675     4885.161       10.757        2.890      396.643       76.090        0.037      346.540       24.858      860.699
08/29/2014  21:13:00     -372.417     -135.091      -11.424      165.726      150.180       81.538    27465.226    22554.106     6648.423       10.686        2.833      396.161       74.384        0.035      346.545       24.867      860.716
08/29/2014  21:14:00     -237.935       -5.496       -5.212      137.974      111.963       57.765    19036.798    12535.692     3336.790        4.578        1.745      237.999       64.314        0.073      346.497       24.785      860.732
08/29/2014  21:15:00     -213.086     -148.952       -9.021       93.626       89.985       56.122     8765.788     8097.314     3149.671        4.384        1.001      259.986       52.670        0.041      346.510       24.806      860.748
08/29/2014  21:16:00     -121.424      -45.902        9.963       92.490       83.305       48.755     8554.369     6939.780     2377.050        1.741        0.894      129.811       48.538        0.140      346.445       24.697      860.744
08/29/2014  21:17:00     -256.087      -93.113       -0.203      156.974      119.344       67.496    24640.866    14242.923     4555.771        5.884        2.172      272.489       69.601        0.065      346.458       24.718      860.756
08/29/2014  21:18:00     -156.176      -54.564        7.037      143.644      101.736       67.429    20633.693    10350.215     4546.659        3.147        1.777      165.433       61.988        0.140      346.403       24.625      860.769
08/29/2014  21:19:00     -174.204      -31.220       -7.512      111.704      108.971       63.201    12477.757    11874.775     3994.328        2.986        1.417      176.979       58.797        0.110      346.419       24.649      860.778
08/29/2014  21:20:00     -209.587       -1.475       12.246      162.548       95.990       74.187    26421.910     9214.092     5503.721        4.260        2.057      209.592       85.451        0.166      346.377       24.578      860.802
08/29/2014  21:21:00     -299.501      -96.988       -2.623      160.772      116.235       74.787    25847.500    13510.501     5593.161        7.202        2.248      314.814       73.001        0.054      346.389       24.596      860.821
08/29/2014  21:22:00     -368.767      -27.451      -25.355      161.297      153.580       66.517    26016.656    23586.757     4424.538        9.570        2.701      369.787       76.740        0.043      346.416       24.643      860.824
08/29/2014  21:23:00      -67.614      -31.918       25.632       81.780      106.949       44.709     6687.994    11438.039     1998.917        1.318        1.006       74.769       47.179        0.398      346.353       24.539      860.829
08/29/2014  21:24:00     -217.498     -150.308      -18.652      228.561      144.581       59.528    52240.085    20903.590     3543.528        7.345        3.834      264.382       89.502        0.115      346.410       24.636      860.845
08/29/2014  21:25:00     -264.745     -120.325        6.140      203.152      151.125       82.586    41270.723    22838.661     6820.405        7.775        3.546      290.805       92.231        0.101      346.394       24.608      860.841
08/29/2014  21:26:00     -223.972     -135.997       -0.510      189.643      166.547       77.636    35964.453    27737.756     6027.306        6.918        3.486      262.028      100.796        0.148      346.392       24.604      860.874
08/29/2014  21:27:00     -144.073      -77.352       21.322      135.496      125.064       66.792    18359.071    15640.949     4461.116        3.282        1.923      163.525       75.538        0.213      346.357       24.543      860.889
08/29/2014  21:28:00     -186.199      -17.137        3.506      130.926      106.481       66.853    17141.493    11338.123     4469.376        3.396        1.647      186.986       75.562        0.163      346.376       24.575      860.908
08/29/2014  21:29:00     -277.035      -33.334      -10.987      173.352      116.996       72.052    30050.813    13687.990     5191.504        6.345        2.447      279.034       79.272        0.081      346.398       24.613      860.906
08/29/2014  21:30:00     -244.917      -95.140      -22.691      134.779       97.376       60.573    18165.492     9482.094     3669.060        5.043        1.566      262.747       67.562        0.066      346.402       24.621      860.920
08/29/2014  21:31:00     -142.663     -116.072       20.785      112.582      105.836       66.430    12674.645    11201.178     4412.981        3.127        1.414      183.917       72.142        0.154      346.387       24.596      860.926
08/29/2014  21:32:00     -193.291      -64.804       -6.863      158.600       94.986       62.059    25154.026     9022.384     3851.364        3.981        1.901      203.865       72.734        0.127      346.390       24.601      860.920
08/29/2014  21:33:00     -190.713      -53.331        0.512      112.197       81.369       53.490    12588.159     6620.892     2861.151        3.064        1.104      198.029       51.509        0.068      346.403       24.622      860.920
08/29/2014  21:34:00     -264.194     -100.091       -7.155      152.979      122.361       67.959    23402.431    14972.236     4618.397        6.142        2.150      282.518       64.526        0.052      346.400       24.617      860.910
08/29/2014  21:35:00     -118.988      -65.957        5.357      100.518       86.298       51.912    10103.945     7447.270     2694.806        1.939        1.012      136.046       56.973        0.175      346.338       24.511      860.925
08/29/2014  21:36:00      -56.775      -85.213        8.627       91.302      111.903       46.613     8336.119    12522.315     2172.732        1.679        1.152      102.394       43.700        0.182      346.354       24.541      860.968
08/29/2014  21:37:00      -80.563     -107.300       32.339      137.090       91.951       62.298    18793.559     8454.963     3880.983        2.508        1.556      134.178       77.408        0.333      346.350       24.534      860.988
08/29/2014  21:38:00     -105.645      -45.484       12.962      136.538       79.686       50.164    18642.642     6349.816     2516.419        2.045        1.375      115.020       43.226        0.141      346.312       24.468      860.998
08/29/2014  21:39:00     -169.393      -71.904       -2.042      145.237       95.501       49.578    21093.661     9120.467     2457.994        3.326        1.634      184.022       70.306        0.146      346.313       24.468      861.005
08/29/2014  21:40:00      -98.919     -107.722       24.446      124.206      112.206       61.792    15427.059    12590.211     3818.203        2.690        1.592      146.250       74.773        0.261      346.300       24.446      860.994
08/29/2014  21:41:00     -229.829      -25.733        7.848      129.326      110.520       64.337    16725.239    12214.714     4139.212        4.331        1.654      231.265       63.063        0.074      346.311       24.463      860.999
08/29/2014  21:42:00     -282.286      -94.746       -9.012      139.994      117.338       63.924    19598.221    13768.100     4086.261        6.309        1.873      297.762       66.422        0.050      346.348       24.528      861.006
08/29/2014  21:43:00     -193.873      -79.376       -6.234      121.348      148.243       51.318    14725.237    21975.863     2633.588        4.162        1.967      209.493       34.803        0.028      346.363       24.554      861.009
08/29/2014  21:44:00      -62.705      -57.108       25.755      109.993      114.089       47.456    12098.568    13016.375     2252.076        1.761        1.368       84.813       60.398        0.507      346.307       24.458      861.013
08/29/2014  21:45:00      -44.462      -44.842       -2.743       60.262       54.952       34.454     3631.522     3019.716     1187.060        0.592        0.392       63.148       31.985        0.257      346.310       24.466      861.008
08/29/2014  21:46:00      -97.602      -98.293        6.734       79.981       79.809       35.721     6396.942     6369.427     1276.004        1.663        0.702      138.519       30.082        0.047      346.332       24.502      861.013
08/29/2014  21:47:00      -77.835      -67.737       -4.930       66.851       73.781       41.619     4469.068     5443.624     1732.106        1.116        0.582      103.182       40.451        0.154      346.302       24.453      861.023
08/29/2014  21:48:00     -115.990      -82.489       22.483       89.779       85.985       56.524     8060.311     7393.420     3195.004        1.970        0.932      142.331       44.061        0.096      346.266       24.389      861.031
08/29/2014  21:49:00      -58.267        8.560        5.333       69.551       46.227       37.062     4837.352     2136.972     1373.576        0.592        0.417       58.892       32.861        0.311      346.256       24.372      861.018
08/29/2014  21:50:00       31.301      -78.379       -5.375       54.135       57.765       37.423     2930.644     3336.810     1400.469        0.741        0.383       84.398       36.457        0.187      346.189       24.257      861.009
08/29/2014  21:51:00        9.282      -86.076       11.125       79.405       39.574       31.752     6305.203     1566.116     1008.182        0.825        0.444       86.575       25.824        0.089      346.193       24.264      861.005
08/29/2014  21:52:00      -56.087      -66.565       -0.910      117.418       87.658       49.523    13787.083     7683.988     2452.557        1.575        1.196       87.044       61.691        0.502      346.259       24.377      860.982
08/29/2014  21:53:00     -158.497      -49.537      -13.994      109.536      106.385       41.424    11998.191    11317.725     1715.935        2.640        1.252      166.058       48.393        0.085      346.236       24.337      860.995
08/29/2014  21:54:00       12.465      -44.225       15.489       35.685       69.751       31.954     1273.419     4865.174     1021.031        0.475        0.358       45.948       42.210        0.844      346.160       24.207      860.984
08/29/2014  21:55:00      -36.583       16.833        3.894       44.673       42.337       26.275     1995.715     1792.437      690.353        0.306        0.224       40.270       23.079        0.328      346.113       24.125      860.997
08/29/2014  21:56:00     -119.154       34.518       -0.477       55.833       53.560       44.444     3117.348     2868.624     1975.243        1.167        0.398      124.053       28.031        0.051      346.210       24.294      861.007
08/29/2014  21:57:00      -30.377      -53.080       -4.550       94.372       97.384       43.646     8906.006     9483.689     1904.992        1.202        1.015       61.157       24.221        0.157      346.191       24.260      861.008
08/29/2014  21:58:00        5.625      -20.098       14.653       36.380       28.763       18.527     1323.494      827.303      343.237        0.157        0.125       20.870       21.061        1.018      346.137       24.168      861.014
08/29/2014  21:59:00      -18.909       21.646       16.392       51.090       64.447       37.957     2610.210     4153.421     1440.767        0.465        0.410       28.742       41.380        2.073      346.109       24.119      861.004
08/29/2014  22:00:00      -86.394     -127.637        0.681       81.563       87.575       57.925     6652.553     7669.452     3355.261        2.071        0.884      154.127       46.577        0.091      346.230       24.325      860.985
08/29/2014  22:01:00      -35.610      -50.737       17.916       83.104       65.018       47.207     6906.281     4227.327     2228.544        0.876        0.668       61.986       51.522        0.691      346.146       24.183      860.956
08/29/2014  22:02:00     -216.507       20.816       -8.723      100.414       77.324       47.184    10082.876     5978.996     2226.352        3.283        0.914      217.505       45.842        0.044      346.163       24.209      860.957
08/29/2014  22:03:00      -76.778       30.220       15.631       85.605       71.843       44.550     7328.160     5161.375     1984.659        1.076        0.724       82.512       45.054        0.298      346.075       24.062      860.966
08/29/2014  22:04:00     -334.041      -58.129      -41.008      158.225       94.494       53.691    25035.282     8929.066     2882.696        7.674        1.842      339.061       58.065        0.029      346.191       24.256      860.964
08/29/2014  22:05:00      -91.758      -24.749       26.628      118.399       84.506       66.830    14018.429     7141.329     4466.313        1.768        1.281       95.037       74.445        0.614      346.104       24.110      860.953
08/29/2014  22:06:00     -222.541      -32.967       -8.293      144.412      105.778       65.374    20854.683    11189.028     4273.779        4.349        1.816      224.970       70.980        0.100      346.155       24.196      860.968
08/29/2014  22:07:00     -317.916       10.521      -46.273      139.734       77.840       57.804    19525.571     6059.037     3341.270        6.612        1.446      318.090       58.727        0.034      346.177       24.231      860.971
08/29/2014  22:08:00     -178.518      -14.910       -1.933      114.759      120.498       56.770    13169.592    14519.812     3222.809        3.150        1.546      179.139       54.755        0.093      346.139       24.169      860.950
08/29/2014  22:09:00     -192.472      -41.723       -4.051      104.471       90.729       56.170    10914.195     8231.693     3155.123        3.055        1.115      196.942       56.822        0.083      346.085       24.075      860.963
08/29/2014  22:10:00     -347.587       28.589      -21.696      101.535      118.929       64.270    10309.333    14144.164     4130.603        7.534        1.429      348.760       56.175        0.026      346.169       24.218      860.951
08/29/2014  22:11:00     -278.821      -88.363       -7.514      156.565      160.007       60.218    24512.627    25602.181     3626.217        6.966        2.687      292.488       66.199        0.051      346.164       24.211      860.923
08/29/2014  22:12:00     -265.665       -2.375       -5.619      163.545      111.526       61.298    26746.942    12438.142     3757.422        5.677        2.147      265.676       79.140        0.089      346.150       24.188      860.911
08/29/2014  22:13:00     -215.393       28.215      -20.444      128.194       95.084       55.043    16433.675     9040.928     3029.751        3.805        1.425      217.234       53.961        0.062      346.093       24.090      860.902
08/29/2014  22:14:00     -188.883      -15.284        7.439      140.797       85.465       53.314    19823.793     7304.184     2842.397        3.296        1.499      189.500       58.619        0.096      346.086       24.078      860.906
08/29/2014  22:15:00     -178.797      -56.827        5.118      134.512      101.827       65.515    18093.602    10368.728     4292.235        3.398        1.638      187.611       70.052        0.139      346.105       24.112      860.908
08/29/2014  22:16:00     -215.883      -77.786      -10.251      105.655      105.798       51.060    11163.079    11193.172     2607.108        3.886        1.248      229.469       50.475        0.048      346.114       24.125      860.922
08/29/2014  22:17:00     -311.506      -41.811      -19.472      193.808      108.988       64.769    37561.705    11878.490     4195.004        7.639        2.682      314.299       86.462        0.076      346.077       24.062      860.934
08/29/2014  22:18:00     -240.762      -68.243      -24.775       95.939      114.785       48.437     9204.267    13175.556     2346.187        4.398        1.236      250.247       42.861        0.029      346.065       24.041      860.958
08/29/2014  22:19:00     -350.347      -90.822       -5.588      129.341      126.253       67.822    16729.004    15939.911     4599.813        8.414        1.863      361.927       64.053        0.031      346.088       24.079      860.972
08/29/2014  22:20:00     -350.552      -59.796      -29.475      130.058      104.334       60.644    16914.999    10885.680     3677.720        7.940        1.574      355.615       51.710        0.021      346.096       24.092      860.974
08/29/2014  22:21:00     -429.381      -93.531      -10.841      119.213      117.504       73.018    14211.798    13807.228     5331.566       11.329        1.668      439.450       66.148        0.023      346.060       24.032      860.981
08/29/2014  22:22:00     -331.093      -31.654      -15.531      167.648      117.911       66.437    28105.767    13903.009     4413.848        7.863        2.321      332.603       67.169        0.041      346.071       24.052      860.979
08/29/2014  22:23:00     -351.087      -18.931      -20.523      172.043       96.037       66.629    29598.854     9223.143     4439.388        8.364        2.163      351.597       77.598        0.049      346.053       24.021      860.990
08/29/2014  22:24:00     -402.017      -63.388      -18.716      152.584      146.718       81.315    23281.776    21526.275     6612.192       10.869        2.571      406.983       89.531        0.048      346.091       24.086      860.997
08/29/2014  22:25:00     -378.682     -130.024      -20.550      137.013      122.639       67.322    18772.637    15040.438     4532.196        9.953        1.917      400.382       75.553        0.036      346.069       24.047      860.988
08/29/2014  22:26:00     -287.551      -33.242      -10.981      208.511       86.619       62.379    43477.038     7502.801     3891.147        6.938        2.744      289.466       90.463        0.098      346.011       23.950      861.001
08/29/2014  22:27:00     -474.785       -8.690      -31.404      199.450      130.674       88.216    39780.200    17075.729     7782.098       14.555        3.232      474.864       96.974        0.042      346.130       24.152      860.990
08/29/2014  22:28:00     -238.224      -54.913       -5.390      144.616      110.722       64.761    20913.770    12259.429     4193.963        4.857        1.868      244.471       61.471        0.063      346.067       24.043      860.995
08/29/2014  22:29:00     -319.512     -104.547      -16.282      137.999      113.787       68.263    19043.819    12947.524     4659.809        7.496        1.833      336.182       66.909        0.040      346.123       24.141      860.980
08/29/2014  22:30:00     -270.448        9.938      -15.820      125.967      119.638       61.613    15867.746    14313.243     3796.218        5.373        1.699      270.630       52.683        0.038      346.069       24.050      860.984
08/29/2014  22:31:00     -376.096     -100.505      -14.991      126.011      116.099       59.901    15878.701    13479.000     3588.115        9.235        1.647      389.293       58.935        0.023      346.115       24.126      860.960
08/29/2014  22:32:00     -297.683      -51.671      -28.413      141.581      129.588       55.973    20045.314    16793.164     3133.030        6.602        1.999      302.134       55.177        0.033      346.067       24.044      860.961
08/29/2014  22:33:00     -329.343       34.377      -24.979      124.357      118.789       65.414    15464.591    14110.933     4278.988        7.206        1.693      331.132       46.898        0.020      346.065       24.042      860.955
08/29/2014  22:34:00     -323.548      -20.194      -24.918      119.227      130.089       55.079    14215.109    16923.192     3033.689        6.994        1.709      324.177       53.934        0.028      346.105       24.109      860.932
08/29/2014  22:35:00     -182.211      -61.524      -11.227       90.387       89.622       51.056     8169.889     8032.110     2606.711        2.796        0.940      192.317       35.389        0.034      346.075       24.059      860.910
08/29/2014  22:36:00     -357.651       10.355       -9.744      130.938      108.279       62.335    17144.756    11724.304     3885.702        8.043        1.638      357.800       61.258        0.029      346.121       24.136      860.918
08/29/2014  22:37:00     -307.062      -40.908      -20.191      121.008       92.831       59.104    14643.007     8617.647     3493.323        6.156        1.338      309.775       63.192        0.042      346.083       24.071      860.920
08/29/2014  22:38:00     -245.018      -33.240        1.348      108.017       82.640       53.660    11667.580     6829.432     2879.398        4.125        1.069      247.262       53.080        0.046      346.079       24.064      860.906
08/29/2014  22:39:00     -367.495      -11.740      -24.881      103.124       95.111       56.852    10634.588     9046.010     3232.173        7.936        1.146      367.682       54.752        0.022      346.130       24.152      860.911
08/29/2014  22:40:00     -297.620      -90.916       -6.642      129.554      103.476       59.526    16784.166    10707.179     3543.365        6.396        1.552      311.197       61.964        0.040      346.115       24.126      860.925
08/29/2014  22:41:00     -265.769      -89.732       -7.117       95.611       85.053       52.475     9141.555     7234.093     2753.636        4.893        0.956      280.508       54.396        0.038      346.091       24.084      860.942
08/29/2014  22:42:00     -358.638      -27.865      -26.701      182.344       96.189       65.532    33249.437     9252.298     4294.444        8.844        2.340      359.719       74.398        0.043      346.150       24.187      860.935
08/29/2014  22:43:00     -354.614      -14.065      -21.140      126.531      110.808       54.366    16009.969    12278.511     2955.705        7.881        1.562      354.892       52.121        0.022      346.162       24.207      860.936
08/29/2014  22:44:00     -376.063      -49.179      -17.348      176.943      108.299       68.722    31308.973    11728.676     4722.711        9.594        2.388      379.265       79.051        0.043      346.167       24.217      860.943
08/29/2014  22:45:00     -360.790      -47.337      -18.967      128.238       93.408       55.437    16445.054     8725.009     3073.219        8.050        1.412      363.882       45.451        0.016      346.168       24.217      860.930
08/29/2014  22:46:00     -387.882      -25.516      -34.615      118.982      139.666       62.990    14156.777    19506.712     3967.780        9.496        1.882      388.720       52.620        0.018      346.169       24.221      860.930
08/29/2014  22:47:00     -364.018      -84.059      -18.013      133.690      126.817       58.591    17873.016    16082.583     3432.849        8.864        1.869      373.597       58.879        0.025      346.148       24.184      860.903
08/29/2014  22:48:00     -325.528      -60.778       -1.932      143.108       93.004       71.724    20479.861     8649.750     5144.334        7.196        1.714      331.153       79.247        0.057      346.164       24.212      860.922
08/29/2014  22:49:00     -309.308     -107.273        3.933      122.773      113.694       59.464    15073.278    12926.338     3535.921        6.936        1.577      327.382       54.899        0.028      346.124       24.142      860.930
08/29/2014  22:50:00     -411.704       -5.747      -27.956       95.000       90.554       54.988     9025.026     8200.056     3023.683        9.528        1.012      411.744       52.668        0.016      346.171       24.222      860.935
08/29/2014  22:51:00     -305.866      -43.311      -17.344       90.036       88.188       51.875     8106.568     7777.185     2690.980        5.715        0.929      308.918       49.181        0.025      346.125       24.142      860.926
08/29/2014  22:52:00     -243.136      -55.297      -15.209      128.069       81.334       47.295    16401.692     6615.284     2236.784        4.382        1.263      249.345       49.488        0.039      346.082       24.071      860.916
08/29/2014  22:53:00     -248.379      -50.465       -6.740      120.668       99.482       53.030    14560.662     9896.717     2812.205        4.577        1.363      253.453       50.488        0.040      346.046       24.008      860.917
08/29/2014  22:54:00     -220.161      -50.307       -9.718      109.499       89.992       59.086    11990.027     8098.521     3491.133        3.733        1.179      225.835       52.556        0.054      346.086       24.079      860.924
08/29/2014  22:55:00     -226.342      -99.598       -4.728      121.086       88.385       51.139    14661.818     7811.984     2615.172        4.313        1.254      247.286       57.582        0.054      346.057       24.028      860.912
08/29/2014  22:56:00     -284.445      -40.752      -12.689      111.297      104.347       58.950    12387.122    10888.388     3475.095        5.474        1.338      287.350       64.930        0.051      346.107       24.114      860.915
08/29/2014  22:57:00     -201.814      -31.533       -7.314      108.994       94.594       50.890    11879.664     8948.110     2589.836        3.259        1.171      204.263       44.838        0.048      346.037       23.994      860.909
08/29/2014  22:58:00     -222.178      -59.609      -13.121       86.652       74.640       42.723     7508.570     5571.071     1825.224        3.399        0.745      230.035       40.702        0.031      345.996       23.923      860.914
08/29/2014  22:59:00     -282.896      -28.359      -11.127      127.025       82.650       58.710    16135.260     6830.991     3446.865        5.368        1.321      284.314       63.760        0.050      346.006       23.940      860.929
08/29/2014  23:00:00     -225.912      -92.439       -9.095      100.385      110.478       55.333    10077.170    12205.428     3061.740        4.250        1.267      244.093       58.143        0.057      346.047       24.009      860.952
08/29/2014  23:01:00     -283.291      -80.622      -13.184      162.697      102.875       60.023    26470.341    10583.350     3602.772        6.378        2.033      294.540       56.288        0.037      346.019       23.962      860.966
08/29/2014  23:02:00     -300.760      -65.970       -8.019      157.167       93.327       60.242    24701.436     8709.956     3629.100        6.595        1.852      307.910       68.477        0.049      346.054       24.024      860.968
08/29/2014  23:03:00     -234.190      -38.630       -0.535      119.952      112.650       54.009    14388.571    12689.953     2917.024        4.316        1.500      237.354       53.971        0.052      345.985       23.905      860.974
08/29/2014  23:04:00     -380.734      -15.627      -19.251      164.133       83.214       60.507    26939.577     6924.518     3661.040        9.154        1.876      381.055       75.968        0.040      346.053       24.022      860.975
08/29/2014  23:05:00     -239.393      -53.422      -18.093       79.843       95.952       51.747     6374.826     9206.742     2677.784        3.937        0.913      245.281       46.097        0.035      346.000       23.929      860.978
08/29/2014  23:06:00     -254.999      -56.938       -8.457      154.251       80.938       46.458    23793.352     6550.976     2158.312        5.041        1.625      261.278       61.349        0.055      346.023       23.969      860.961
08/29/2014  23:07:00     -299.538      -23.428      -17.706      199.052      101.271       57.459    39621.759    10255.903     3301.483        7.187        2.659      300.453       69.054        0.053      346.024       23.970      860.946
08/29/2014  23:08:00     -261.726      -35.130      -16.327      116.777      102.019       56.627    13636.808    10407.861     3206.674        4.862        1.363      264.074       54.560        0.043      345.968       23.876      860.975
08/29/2014  23:09:00     -237.948      -41.429       -6.186      111.200       82.677       47.040    12365.424     6835.453     2212.806        3.989        1.071      241.527       36.536        0.023      345.958       23.860      860.988
08/29/2014  23:10:00     -306.432        9.983      -16.866      120.484       97.296       49.345    14516.356     9466.459     2434.901        6.035        1.321      306.595       48.841        0.025      345.940       23.826      860.994
08/29/2014  23:11:00     -166.465      -39.118       -4.775       71.465       76.854       37.849     5107.184     5906.585     1432.549        2.085        0.622      170.999       40.566        0.056      345.883       23.731      861.006
08/29/2014  23:12:00     -238.473      -96.759       -8.707      120.280       97.915       52.509    14467.309     9587.259     2757.166        4.655        1.341      257.355       59.437        0.053      345.915       23.783      861.002
08/29/2014  23:13:00     -390.841       28.962      -26.139      145.628      140.090       51.703    21207.551    19625.200     2673.240        9.888        2.175      391.912       63.973        0.027      345.947       23.838      860.989
08/29/2014  23:14:00     -260.064      -42.436       -9.287      130.568       97.213       60.268    17048.056     9450.342     3632.285        4.982        1.507      263.504       65.253        0.061      345.893       23.747      860.974
08/29/2014  23:15:00     -230.711      -38.023       -5.276       89.547      103.354       58.171     8018.613    10682.085     3383.818        3.839        1.104      233.824       49.044        0.044      345.862       23.692      860.970
08/29/2014  23:16:00     -219.814      -47.476       -5.849      168.338       96.712       58.709    28337.689     9353.269     3446.773        4.586        2.057      224.882       78.737        0.123      345.854       23.679      860.967
08/29/2014  23:17:00     -251.652      -86.205       -3.802      156.846      110.676       55.813    24600.816    12249.287     3115.120        5.536        1.998      266.007       52.993        0.040      345.905       23.768      860.959
08/29/2014  23:18:00     -247.146      -27.948       -8.091       90.756       84.581       46.464     8236.676     7154.023     2158.906        3.974        0.877      248.721       46.246        0.035      345.870       23.707      860.941
08/29/2014  23:19:00     -258.246       -2.881      -17.372      107.046       59.712       42.320    11458.923     3565.489     1791.007        4.190        0.841      258.262       36.837        0.020      345.868       23.704      860.899
08/29/2014  23:20:00     -165.688      -51.247       -4.112       86.584       60.920       39.179     7496.783     3711.298     1535.012        2.142        0.637      173.433       40.534        0.055      345.838       23.653      860.880
08/29/2014  23:21:00     -185.344      -63.922        6.560      142.808       86.580       64.756    20393.987     7496.073     4193.372        3.528        1.604      196.057       75.132        0.147      345.897       23.753      860.846
08/29/2014  23:22:00     -224.974      -47.237       -5.058      120.834      108.054       48.419    14600.903    11675.709     2344.428        4.074        1.431      229.880       43.944        0.037      345.859       23.688      860.799
08/29/2014  23:23:00     -271.288      -44.294        9.858      142.291       96.804       68.574    20246.724     9371.073     4702.407        5.498        1.716      274.881       81.005        0.087      345.889       23.739      860.760
08/29/2014  23:24:00     -324.706       10.213      -19.513      175.924      100.152       65.363    30949.188    10030.325     4272.319        7.558        2.263      324.867       81.980        0.064      345.886       23.735      860.753
08/29/2014  23:25:00     -295.038      -51.453      -13.173      150.492      100.162       43.448    22647.707    10032.365     1887.707        6.221        1.728      299.491       47.397        0.025      345.874       23.713      860.766
08/29/2014  23:26:00     -237.447      -30.038       -3.139      109.483       78.646       47.396    11986.634     6185.143     2246.391        3.885        1.021      239.340       50.016        0.044      345.812       23.607      860.789
08/29/2014  23:27:00     -437.620      -99.762      -25.739      138.316      117.593       69.649    19131.451    13828.164     4850.995       11.996        1.891      448.847       57.417        0.016      345.911       23.777      860.797
08/29/2014  23:28:00     -293.446      -58.785      -15.231      138.562       85.980       65.050    19199.428     7392.567     4231.478        6.030        1.541      299.277       69.780        0.054      345.889       23.741      860.794
08/29/2014  23:29:00     -314.937      -78.999      -12.620      140.210       95.256       64.481    19658.951     9073.646     4157.750        6.923        1.645      324.694       64.932        0.040      345.893       23.746      860.773
08/29/2014  23:30:00     -303.202      -33.436      -10.910      124.124      108.533       58.488    15406.800    11779.350     3420.793        6.188        1.530      305.040       57.871        0.036      345.855       23.680      860.764
08/29/2014  23:31:00     -426.921      -25.634      -23.478      141.960       98.428       66.788    20152.616     9688.106     4460.672       10.888        1.715      427.690       70.287        0.027      345.940       23.825      860.740
08/29/2014  23:32:00     -217.931      -35.643      -16.433      114.607       81.984       53.760    13134.819     6721.335     2890.173        3.589        1.137      220.826       60.770        0.076      345.818       23.618      860.744
08/29/2014  23:33:00     -280.160      -47.041       -3.235      152.890       88.146       64.819    23375.346     7769.713     4201.540        5.802        1.767      284.082       71.160        0.063      345.843       23.660      860.735
08/29/2014  23:34:00     -394.187      -38.731      -18.706      154.736      135.015       70.822    23943.370    18228.968     5015.776       10.220        2.359      396.085       76.645        0.037      345.920       23.790      860.729
08/29/2014  23:35:00     -289.226      -86.274      -15.321      154.066       92.228       53.119    23736.218     8505.972     2821.594        6.319        1.753      301.820       67.684        0.050      345.853       23.678      860.722
08/29/2014  23:36:00     -262.590     -165.526       14.186      160.481      119.271       69.994    25754.045    14225.530     4899.144        7.071        2.244      310.407       72.846        0.055      345.852       23.676      860.735
08/29/2014  23:37:00     -213.433      -92.830       -8.848       99.460      112.731       57.358     9892.274    12708.297     3289.951        4.006        1.295      232.747       57.452        0.061      345.831       23.641      860.761
08/29/2014  23:38:00     -298.779     -107.801      -10.479      185.032      102.040       62.476    34236.782    10412.099     3903.242        7.477        2.428      317.632       85.833        0.073      345.813       23.610      860.746
08/29/2014  23:39:00     -273.503      -47.868      -26.979      104.112       83.396       55.768    10839.327     6954.838     3110.065        4.936        1.045      277.660       54.739        0.039      345.807       23.597      860.743
08/29/2014  23:40:00     -311.231      -50.670       -1.613      130.470      132.575       66.499    17022.480    17576.202     4422.135        6.922        1.951      315.329       70.986        0.051      345.771       23.537      860.742
08/29/2014  23:41:00     -326.072      -83.658        0.209      133.829      116.794       66.214    17910.223    13640.831     4384.342        7.462        1.797      336.633       49.209        0.021      345.762       23.521      860.750
08/29/2014  23:42:00     -311.361      -31.394      -14.440      126.477      111.148       70.125    15996.322    12353.969     4917.469        6.570        1.663      312.939       70.137        0.050      345.757       23.513      860.776
08/29/2014  23:43:00     -225.589      -70.712      -18.461      108.215      100.655       55.440    11710.585    10131.404     3073.601        4.057        1.246      236.412       54.115        0.052      345.759       23.517      860.774
08/29/2014  23:44:00     -260.111      -29.605      -13.884       97.561       88.995       53.357     9518.064     7920.030     2847.015        4.450        1.014      261.790       43.687        0.028      345.781       23.554      860.769
08/29/2014  23:45:00     -240.148      -14.858      -20.240      102.048       82.520       49.675    10413.834     6809.521     2467.633        3.899        0.985      240.607       50.026        0.043      345.746       23.495      860.763
08/29/2014  23:46:00     -100.706      -48.806        1.671       88.558       80.427       46.274     7842.496     6468.524     2141.316        1.449        0.823      111.909       51.126        0.209      345.708       23.431      860.723
08/29/2014  23:47:00      -87.962      -11.379       20.982      149.963       45.810       45.394    22488.880     2098.601     2060.628        1.747        1.332       88.695       70.326        0.629      345.619       23.278      860.710
08/29/2014  23:48:00     -281.893      -76.861       -9.103      150.711      122.122       66.537    22713.734    14913.731     4427.148        6.375        2.103      292.183       60.580        0.043      345.723       23.455      860.733
08/29/2014  23:49:00     -228.987     -127.936      -12.361      158.399      110.173       64.752    25090.187    12138.083     4192.857        5.518        2.071      262.303       79.779        0.093      345.756       23.512      860.738
08/29/2014  23:50:00     -157.938      -52.484       -6.193       69.489       68.344       36.966     4828.787     4670.902     1366.501        1.930        0.543      166.430       23.997        0.021      345.684       23.389      860.730
08/29/2014  23:51:00     -335.554      -15.975      -32.479      110.671       71.642       55.592    12247.993     5132.614     3090.505        6.718        1.024      335.934       60.434        0.032      345.729       23.465      860.674
08/29/2014  23:52:00     -237.792      -65.178       -9.264       98.540       79.889       53.531     9710.229     6382.199     2865.528        3.991        0.948      246.562       39.873        0.026      345.682       23.384      860.632
08/29/2014  23:53:00     -349.012      -55.473      -27.975       94.608       90.954       52.567     8950.673     8272.668     2763.240        7.282        0.999      353.393       45.491        0.017      345.696       23.407      860.645
08/29/2014  23:54:00     -298.441      -85.173       -7.043      116.243      122.560       65.506    13512.420    15020.833     4290.998        6.459        1.641      310.357       56.739        0.033      345.690       23.397      860.675
08/29/2014  23:55:00     -338.293      -72.526      -19.413      125.206      101.883       52.934    15676.463    10380.162     2802.011        7.446        1.443      345.980       56.386        0.027      345.657       23.341      860.701
08/29/2014  23:56:00     -228.879      -68.447        4.473      114.754       95.009       50.866    13168.554     9026.642     2587.372        4.093        1.239      238.894       55.818        0.055      345.582       23.211      860.698
08/29/2014  23:57:00     -290.795       -2.279      -20.325       92.774       74.278       45.757     8607.015     5517.148     2093.729        5.060        0.811      290.804       40.208        0.019      345.593       23.230      860.693
08/29/2014  23:58:00     -259.095      -61.245      -10.505      108.621       79.076       52.709    11798.547     6253.003     2778.205        4.591        1.041      266.235       55.040        0.043      345.588       23.222      860.707
08/29/2014  23:59:00     -233.231      -64.191        0.287      130.577       94.004       56.119    17050.318     8836.726     3149.349        4.377        1.452      241.904       61.775        0.065      345.562       23.179      860.731
